[[{"header":{"parameterUnit":"m.s-1","parameterCategory":1,"la1":31.0,"la2":29.5877,"lo1":-88.7671,"lo2":-86.6584,"dy":0.0162,"dx":0.0185,"nx":115,"ny":88,"refTime":"2026-03-03T12:00:00:Z","depth":0,"parameterNumber":2,"parameterNumberName":"U-component_of_WINDS"},"data":[0.0,0.0,0.0,0.0,0.0,0.0,0.0,0.0,0.0,0.0,0.0,0.0,0.0,0.0,0.0,0.0,0.0,0.0,0.0,0.0,0.0,0.0,0.0,0.0,0.0,0.0,0.0,0.0,0.0,0.0,0.0,0.0,0.0,0.0,0.0,0.0,0.0,0.0,0.0,0.0,0.0,0.0,0.0,0.0,0.0,0.0,0.0,0.0,0.0,0.0,0.0,0.0,0.0,0.0,0.0,0.0,0.0,0.0,0.0,0.0,0.0,0.0,0.0,0.0,0.0,0.0,0.0,0.0,0.0,0.0,0.0,0.0,0.0,0.0,0.0,0.0,0.0,0.0,0.0,0.0,0.0,0.0,0.0,0.0,0.0,0.0,0.0,0.0,0.0,0.0,0.0,0.0,0.0,0.0,0.0,0.0,0.0,0.0,0.0,0.0,0.0,0.0,0.0,0.0,0.0,0.0,0.0,0.0,0.0,0.0,0.0,0.0,0.0,0.0,0.0,0.0,0.0,0.0,0.0,0.0,0.0,0.0,0.0,0.0,0.0,0.0,0.0,0.0,0.0,0.0,0.0,0.0,0.0,0.0,0.0,0.0,0.0,0.0,0.0,0.0,0.0,0.0,0.0,0.0,0.0,0.0,0.0,0.0,0.0,0.0,0.0,0.0,0.0,0.0,0.0,0.0,0.0,0.0,0.0,0.0,0.0,0.0,0.0,0.0,0.0,0.0,0.0,0.0,0.0,0.0,0.0,0.0,0.0,0.0,0.0,0.0,0.0,0.0,0.0,0.0,0.0,0.0,0.0,0.0,0.0,0.0,0.0,0.0,0.0,0.0,0.0,0.0,0.0,0.0,0.0,0.0,0.0,0.0,0.0,0.0,0.0,0.0,0.0,0.0,0.0,0.0,0.0,0.0,0.0,0.0,0.0,0.0,0.0,0.0,0.0,0.0,0.0,0.0,0.0,0.0,0.0,0.0,0.0,0.0,0.0,0.0,0.0,0.0,0.0,0.0,0.0,0.0,0.0,0.0,0.0,0.0,0.0,0.0,0.0,0.0,0.0,0.0,0.0,0.0,0.0,0.0,0.0,0.0,0.0,0.0,0.0,0.0,0.0,0.0,0.0,0.0,0.0,0.0,0.0,0.0,0.0,0.0,0.0,0.0,0.0,0.0,0.0,0.0,0.0,0.0,0.0,0.0,0.0,0.0,0.0,0.0,0.0,0.0,0.0,0.0,0.0,0.0,0.0,0.0,0.0,0.0,0.0,0.0,0.0,0.0,0.0,0.0,0.0,0.0,0.0,0.0,0.0,0.0,0.0,0.0,0.0,0.0,0.0,0.0,0.0,0.0,0.0,0.0,0.0,0.0,0.0,0.0,0.0,0.0,0.0,0.0,0.0,0.0,0.0,0.0,0.0,0.0,0.0,0.0,0.0,0.0,0.0,0.0,0.0,0.0,0.0,0.0,0.0,0.0,0.0,0.0,0.0,0.0,0.0,0.0,0.0,0.0,0.0,0.0,0.0,0.0,0.0,0.0,0.0,0.0,0.0,0.0,0.0,0.0,0.0,0.0,0.0,0.0,0.0,0.0,0.0,0.0,0.0,0.0,0.0,0.0,0.0,0.0,0.0,0.0,0.0,0.0,0.0,0.0,0.0,0.0,0.0,0.0,0.0,0.0,0.0,0.0,0.0,0.0,0.0,0.0,0.0,0.0,0.0,0.0,0.0,0.0,0.0,0.0,0.0,0.0,0.0,0.0,0.0,0.0,0.0,0.0,0.0,0.0,0.0,0.0,0.0,0.0,0.0,0.0,0.0,0.0,0.0,0.0,0.0,0.0,0.0,0.0,0.0,0.0,0.0,0.0,0.0,0.0,0.0,0.0,0.0,0.0,0.0,0.0,0.0,0.0,0.0,0.0,0.0,0.0,0.0,0.0,0.0,0.0,0.0,0.0,0.0,0.0,0.0,0.0,0.0,0.0,0.0,0.0,0.0,0.0,0.0,0.0,0.0,0.0,0.0,0.0,0.0,0.0,0.0,0.0,0.0,0.0,0.0,0.0,0.0,0.0,0.0,0.0,0.0,0.0,0.0,0.0,0.0,0.0,0.0,0.0,0.0,0.0,0.0,0.0,0.0,0.0,0.0,0.0,0.0,0.0,0.0,0.0,0.0,0.0,0.0,0.0,0.0,0.0,0.0,0.0,0.0,0.0,0.0,0.0,0.0,0.0,0.0,0.0,0.0,0.0,0.0,0.0,0.0,0.0,0.0,0.0,0.0,0.0,0.0,0.0,0.0,0.0,0.0,0.0,0.0,0.0,0.0,0.0,0.0,0.0,0.0,0.0,0.0,0.0,0.0,0.0,0.0,0.0,0.0,0.0,0.0,0.0,0.0,0.0,0.0,0.0,0.0,0.0,0.0,0.0,0.0,0.0,0.0,0.0,0.0,0.0,0.0,0.0,0.0,0.0,0.0,0.0,0.0,0.0,0.0,0.0,0.0,0.0,0.0,0.0,0.0,0.0,0.0,0.0,0.0,0.0,0.0,0.0,0.0,0.0,0.0,0.0,0.0,0.0,0.0,0.0,0.0,0.0,0.0,0.0,0.0,0.0,0.0,0.0,0.0,0.0,0.0,0.0,0.0,0.0,0.0,0.0,0.0,0.0,0.0,0.0,0.0,0.0,0.0,0.0,0.0,0.0,0.0,0.0,0.0,0.0,0.0,0.0,0.0,0.0,0.0,0.0,0.0,0.0,0.0,0.0,0.0,0.0,0.0,0.0,0.0,0.0,0.0,0.0,0.0,0.0,0.0,0.0,0.0,0.0,0.0,0.0,0.0,0.0,0.0,0.0,0.0,0.0,0.0,0.0,0.0,0.0,0.0,0.0,0.0,0.0,0.0,0.0,0.0,0.0,0.0,0.0,0.0,0.0,0.0,0.0,0.0,0.0,0.0,0.0,0.0,0.0,0.0,0.0,0.0,0.0,0.0,0.0,0.0,0.0,0.0,0.0,0.0,0.0,0.0,0.0,0.0,0.0,0.0,0.0,0.0,0.0,0.0,0.0,0.0,0.0,0.0,0.0,0.0,0.0,0.0,0.0,0.0,0.0,0.0,0.0,0.0,0.0,0.0,0.0,0.0,0.0,0.0,0.0,0.0,0.0,0.0,0.0,0.0,0.0,0.0,0.0,0.0,0.0,0.0,0.0,0.0,0.0,0.0,0.0,0.0,0.0,0.0,0.0,0.0,0.0,0.0,0.0,0.0,0.0,0.0,0.0,0.0,0.0,0.0,0.0,0.0,0.0,0.0,0.0,0.0,0.0,0.0,0.0,0.0,0.0,0.0,0.0,0.0,0.0,0.0,0.0,0.0,0.0,0.0,0.0,0.0,0.0,0.0,0.0,0.0,0.0,0.0,0.0,0.0,0.0,0.0,0.0,0.0,0.0,0.0,0.0,0.0,0.0,0.0,0.0,0.0,0.0,0.0,0.0,0.0,0.0,0.0,0.0,0.0,0.0,0.0,0.0,0.0,0.0,0.0,0.0,0.0,0.0,0.0,0.0,0.0,0.0,0.0,0.0,0.0,0.0,0.0,0.0,0.0,0.0,0.0,0.0,0.0,0.0,0.0,0.0,0.0,0.0,0.0,0.0,0.0,0.0,0.0,0.0,0.0,0.0,0.0,0.0,0.0,0.0,0.0,0.0,0.0,0.0,0.0,0.0,0.0,0.0,0.0,0.0,0.0,0.0,0.0,0.0,0.0,0.0,0.0,0.0,0.0,0.0,0.0,0.0,0.0,0.0,0.0,0.0,0.0,0.0,0.0,0.0,0.0,0.0,0.0,0.0,0.0,0.0,0.0,0.0,0.0,0.0,0.0,0.0,0.0,0.0,0.0,0.0,0.0,0.0,0.0,0.0,0.0,0.0,0.0,0.0,0.0,0.0,0.0,0.0,0.0,0.0,0.0,0.0,0.0,0.0,0.0,0.0,0.0,0.0,0.0,0.0,0.0,0.0,0.0,0.0,0.0,0.0,0.0,0.0,0.0,0.0,0.0,0.0,0.0,0.0,0.0,0.0,0.0,0.0,0.0,0.0,0.0,0.0,0.0,0.0,0.0,0.0,0.0,0.0,0.0,0.0,0.0,0.0,0.0,0.0,0.0,0.0,0.0,0.0,0.0,0.0,0.0,0.0,0.0,0.0,0.0,0.0,0.0,0.0,0.0,0.0,0.0,0.0,0.0,0.0,0.0,0.0,0.0,0.0,0.0,0.0,0.0,0.0,-3.7837,0.0,0.0,0.0,0.0,0.0,0.0,0.0,0.0,0.0,0.0,0.0,0.0,0.0,0.0,0.0,0.0,0.0,0.0,0.0,0.0,0.0,0.0,0.0,0.0,0.0,0.0,0.0,0.0,0.0,0.0,0.0,0.0,0.0,0.0,0.0,0.0,0.0,0.0,0.0,0.0,0.0,0.0,0.0,0.0,0.0,0.0,0.0,0.0,0.0,0.0,0.0,0.0,0.0,0.0,0.0,0.0,0.0,0.0,0.0,0.0,0.0,0.0,0.0,0.0,0.0,0.0,0.0,0.0,0.0,0.0,0.0,0.0,0.0,0.0,0.0,0.0,0.0,0.0,0.0,0.0,0.0,0.0,0.0,0.0,0.0,0.0,0.0,0.0,0.0,0.0,0.0,0.0,0.0,0.0,0.0,0.0,0.0,0.0,0.0,0.0,0.0,0.0,0.0,0.0,0.0,0.0,0.0,0.0,0.0,0.0,-4.0517,-4.0789,-4.0454,-3.9529,-3.8019,0.0,0.0,0.0,0.0,0.0,0.0,0.0,0.0,0.0,0.0,0.0,0.0,0.0,0.0,0.0,0.0,0.0,0.0,0.0,0.0,0.0,0.0,0.0,0.0,0.0,0.0,0.0,0.0,0.0,0.0,0.0,0.0,0.0,0.0,0.0,0.0,0.0,0.0,0.0,0.0,0.0,0.0,0.0,0.0,0.0,0.0,0.0,0.0,0.0,0.0,0.0,0.0,0.0,0.0,0.0,0.0,0.0,0.0,0.0,0.0,0.0,0.0,0.0,0.0,0.0,0.0,0.0,0.0,0.0,0.0,0.0,0.0,0.0,0.0,0.0,0.0,0.0,0.0,0.0,0.0,0.0,0.0,0.0,0.0,0.0,0.0,0.0,0.0,0.0,0.0,0.0,0.0,0.0,0.0,0.0,0.0,0.0,0.0,0.0,0.0,0.0,0.0,0.0,0.0,0.0,0.0,0.0,0.0,0.0,0.0,0.0,0.0,-4.112,-4.0068,-3.7803,0.0,0.0,0.0,0.0,0.0,0.0,0.0,0.0,0.0,0.0,0.0,0.0,0.0,0.0,0.0,0.0,0.0,0.0,0.0,0.0,0.0,0.0,0.0,0.0,0.0,0.0,0.0,0.0,0.0,0.0,0.0,0.0,0.0,0.0,0.0,0.0,0.0,0.0,0.0,0.0,0.0,0.0,0.0,0.0,0.0,0.0,0.0,0.0,0.0,0.0,0.0,0.0,0.0,0.0,0.0,0.0,0.0,0.0,0.0,0.0,0.0,0.0,0.0,0.0,0.0,0.0,0.0,0.0,0.0,0.0,0.0,0.0,0.0,0.0,0.0,0.0,0.0,0.0,0.0,0.0,0.0,0.0,0.0,0.0,0.0,0.0,0.0,0.0,0.0,0.0,0.0,0.0,0.0,0.0,0.0,0.0,0.0,0.0,0.0,0.0,0.0,0.0,0.0,0.0,0.0,0.0,0.0,0.0,0.0,0.0,-4.1268,-4.2052,-4.205,0.0,-3.7234,0.0,0.0,0.0,0.0,0.0,0.0,0.0,0.0,0.0,0.0,0.0,0.0,0.0,0.0,0.0,0.0,0.0,0.0,0.0,0.0,0.0,0.0,0.0,0.0,0.0,0.0,0.0,0.0,0.0,0.0,0.0,0.0,0.0,0.0,0.0,0.0,0.0,0.0,0.0,0.0,0.0,0.0,0.0,0.0,0.0,0.0,0.0,0.0,0.0,0.0,0.0,0.0,0.0,0.0,0.0,0.0,0.0,0.0,0.0,0.0,0.0,0.0,0.0,0.0,0.0,0.0,0.0,0.0,0.0,0.0,0.0,0.0,0.0,0.0,0.0,0.0,0.0,0.0,0.0,0.0,0.0,0.0,0.0,0.0,0.0,0.0,0.0,0.0,0.0,0.0,0.0,0.0,0.0,0.0,0.0,0.0,0.0,0.0,0.0,0.0,0.0,0.0,0.0,0.0,0.0,0.0,0.0,0.0,0.0,0.0,-4.1385,-4.2201,-4.0665,-3.8651,0.0,0.0,0.0,0.0,0.0,0.0,0.0,0.0,0.0,0.0,0.0,0.0,0.0,0.0,0.0,0.0,0.0,0.0,0.0,0.0,0.0,0.0,0.0,0.0,0.0,0.0,0.0,0.0,0.0,0.0,0.0,0.0,0.0,0.0,0.0,0.0,0.0,0.0,0.0,0.0,0.0,0.0,0.0,0.0,0.0,0.0,0.0,0.0,0.0,0.0,0.0,0.0,0.0,0.0,0.0,0.0,0.0,0.0,0.0,0.0,0.0,0.0,0.0,0.0,0.0,0.0,0.0,0.0,0.0,0.0,0.0,0.0,0.0,0.0,0.0,0.0,0.0,0.0,0.0,0.0,0.0,0.0,0.0,0.0,0.0,0.0,0.0,0.0,0.0,0.0,0.0,0.0,0.0,0.0,0.0,0.0,0.0,0.0,0.0,0.0,0.0,0.0,0.0,0.0,0.0,0.0,0.0,0.0,0.0,0.0,-4.1331,-4.1613,-4.2059,-4.0081,-3.7879,-3.5695,0.0,0.0,0.0,0.0,0.0,0.0,0.0,0.0,0.0,0.0,0.0,0.0,0.0,0.0,0.0,0.0,0.0,0.0,0.0,0.0,0.0,0.0,0.0,0.0,0.0,0.0,0.0,0.0,0.0,0.0,0.0,0.0,0.0,0.0,0.0,0.0,0.0,0.0,0.0,0.0,0.0,0.0,0.0,0.0,0.0,0.0,0.0,0.0,0.0,0.0,0.0,0.0,0.0,0.0,0.0,0.0,0.0,0.0,0.0,0.0,0.0,0.0,0.0,0.0,0.0,0.0,0.0,0.0,0.0,0.0,0.0,0.0,0.0,0.0,0.0,0.0,0.0,0.0,0.0,0.0,0.0,0.0,0.0,0.0,0.0,0.0,0.0,0.0,0.0,0.0,0.0,0.0,0.0,0.0,0.0,0.0,0.0,0.0,0.0,0.0,0.0,0.0,0.0,0.0,0.0,0.0,0.0,0.0,0.0,-4.2156,-4.2136,-4.2172,-4.1212,-3.91,0.0,0.0,0.0,0.0,0.0,0.0,0.0,0.0,0.0,0.0,0.0,0.0,0.0,0.0,0.0,0.0,0.0,0.0,0.0,0.0,0.0,0.0,0.0,0.0,0.0,0.0,0.0,0.0,0.0,0.0,0.0,0.0,0.0,0.0,0.0,0.0,0.0,0.0,0.0,0.0,0.0,0.0,0.0,0.0,0.0,0.0,0.0,0.0,0.0,0.0,0.0,0.0,0.0,0.0,0.0,0.0,0.0,0.0,0.0,0.0,0.0,0.0,0.0,0.0,0.0,0.0,0.0,0.0,0.0,0.0,0.0,0.0,0.0,0.0,0.0,0.0,0.0,0.0,0.0,0.0,0.0,0.0,0.0,0.0,0.0,0.0,0.0,0.0,0.0,0.0,0.0,0.0,0.0,0.0,0.0,0.0,0.0,0.0,0.0,0.0,0.0,0.0,0.0,0.0,0.0,0.0,0.0,0.0,0.0,-4.0554,-4.117,-4.1693,-4.2068,-3.918,-3.6955,0.0,0.0,0.0,0.0,0.0,0.0,0.0,0.0,0.0,0.0,0.0,0.0,0.0,0.0,0.0,0.0,0.0,0.0,0.0,0.0,0.0,0.0,0.0,0.0,0.0,0.0,0.0,0.0,0.0,0.0,0.0,0.0,0.0,0.0,0.0,0.0,0.0,0.0,0.0,0.0,0.0,0.0,0.0,0.0,0.0,0.0,0.0,0.0,0.0,0.0,0.0,0.0,0.0,0.0,0.0,0.0,0.0,0.0,0.0,0.0,0.0,0.0,0.0,0.0,0.0,0.0,0.0,0.0,0.0,0.0,0.0,0.0,0.0,0.0,0.0,0.0,0.0,0.0,0.0,0.0,0.0,0.0,0.0,0.0,0.0,0.0,0.0,0.0,0.0,0.0,0.0,0.0,0.0,0.0,0.0,0.0,0.0,0.0,0.0,0.0,0.0,0.0,0.0,0.0,0.0,0.0,0.0,0.0,0.0,-4.0048,0.0,-4.1386,0.0,-3.8218,-3.6003,0.0,0.0,0.0,0.0,0.0,0.0,0.0,0.0,0.0,0.0,0.0,0.0,0.0,0.0,0.0,0.0,0.0,0.0,0.0,0.0,0.0,0.0,0.0,0.0,0.0,0.0,0.0,0.0,0.0,0.0,0.0,0.0,0.0,0.0,0.0,0.0,0.0,0.0,0.0,0.0,0.0,0.0,0.0,0.0,0.0,0.0,0.0,0.0,0.0,0.0,0.0,0.0,0.0,0.0,0.0,0.0,0.0,0.0,0.0,0.0,0.0,0.0,0.0,0.0,0.0,0.0,0.0,0.0,0.0,0.0,0.0,0.0,0.0,0.0,0.0,0.0,0.0,0.0,0.0,0.0,0.0,0.0,0.0,0.0,0.0,0.0,0.0,0.0,0.0,0.0,0.0,0.0,0.0,0.0,0.0,0.0,0.0,0.0,0.0,0.0,0.0,0.0,0.0,0.0,0.0,0.0,0.0,0.0,-3.8229,-4.0814,-4.1688,-4.1359,-3.9819,-3.8635,-3.6556,0.0,0.0,0.0,0.0,0.0,0.0,0.0,0.0,0.0,0.0,0.0,0.0,0.0,0.0,0.0,0.0,0.0,0.0,0.0,0.0,0.0,0.0,0.0,0.0,0.0,0.0,0.0,0.0,0.0,0.0,0.0,0.0,0.0,0.0,0.0,0.0,0.0,0.0,0.0,0.0,0.0,0.0,0.0,0.0,0.0,0.0,0.0,0.0,0.0,0.0,0.0,0.0,0.0,0.0,0.0,0.0,0.0,0.0,0.0,0.0,0.0,0.0,0.0,0.0,0.0,0.0,0.0,0.0,0.0,0.0,0.0,0.0,0.0,0.0,0.0,0.0,0.0,0.0,0.0,0.0,0.0,0.0,0.0,0.0,0.0,0.0,0.0,0.0,0.0,0.0,0.0,0.0,0.0,0.0,0.0,0.0,0.0,0.0,0.0,0.0,0.0,0.0,0.0,0.0,0.0,0.0,0.0,0.0,0.0,-3.9259,-4.0064,-4.0803,-4.1329,-3.7677,-3.5741,0.0,0.0,0.0,0.0,0.0,0.0,0.0,0.0,0.0,0.0,0.0,0.0,0.0,0.0,0.0,0.0,0.0,0.0,0.0,0.0,0.0,0.0,0.0,0.0,0.0,0.0,0.0,0.0,0.0,0.0,0.0,0.0,0.0,0.0,0.0,0.0,0.0,0.0,0.0,0.0,0.0,0.0,0.0,0.0,0.0,0.0,0.0,0.0,0.0,0.0,0.0,0.0,0.0,0.0,0.0,0.0,0.0,0.0,0.0,0.0,0.0,0.0,0.0,0.0,0.0,0.0,0.0,0.0,0.0,0.0,0.0,0.0,0.0,0.0,0.0,0.0,0.0,0.0,0.0,0.0,0.0,0.0,0.0,0.0,0.0,0.0,0.0,0.0,0.0,0.0,0.0,0.0,0.0,0.0,0.0,0.0,0.0,0.0,0.0,0.0,0.0,0.0,0.0,0.0,0.0,0.0,0.0,0.0,0.0,-3.9442,-4.0244,-4.1028,-4.1788,-3.8004,-3.6021,-3.6073,0.0,0.0,0.0,0.0,0.0,0.0,0.0,0.0,0.0,0.0,0.0,0.0,0.0,0.0,0.0,0.0,0.0,0.0,0.0,0.0,0.0,0.0,0.0,0.0,0.0,0.0,0.0,0.0,0.0,0.0,0.0,0.0,0.0,0.0,0.0,0.0,0.0,0.0,0.0,0.0,0.0,0.0,0.0,0.0,0.0,0.0,0.0,0.0,0.0,0.0,0.0,0.0,0.0,0.0,0.0,0.0,0.0,0.0,0.0,0.0,0.0,0.0,0.0,0.0,0.0,0.0,0.0,0.0,0.0,0.0,0.0,0.0,0.0,0.0,0.0,0.0,0.0,0.0,0.0,0.0,0.0,0.0,0.0,0.0,0.0,0.0,0.0,0.0,0.0,0.0,0.0,0.0,0.0,0.0,0.0,0.0,0.0,0.0,0.0,0.0,0.0,0.0,0.0,0.0,0.0,0.0,0.0,0.0,-4.11,-4.2048,-4.2117,-4.1281,-3.94,-3.7249,0.0,0.0,0.0,0.0,0.0,0.0,0.0,0.0,0.0,0.0,0.0,0.0,0.0,0.0,0.0,0.0,0.0,0.0,0.0,0.0,0.0,0.0,0.0,0.0,0.0,0.0,0.0,0.0,0.0,0.0,0.0,0.0,0.0,0.0,0.0,0.0,0.0,0.0,0.0,0.0,0.0,0.0,0.0,0.0,0.0,0.0,0.0,0.0,0.0,0.0,0.0,0.0,0.0,0.0,0.0,0.0,0.0,0.0,0.0,0.0,0.0,0.0,0.0,0.0,0.0,0.0,0.0,0.0,0.0,0.0,0.0,0.0,0.0,0.0,0.0,0.0,0.0,0.0,0.0,0.0,0.0,0.0,0.0,0.0,0.0,0.0,0.0,0.0,0.0,0.0,0.0,0.0,0.0,0.0,0.0,0.0,0.0,0.0,0.0,0.0,0.0,0.0,0.0,0.0,0.0,0.0,0.0,0.0,0.0,-4.2727,-4.4348,-4.4761,-4.384,-4.0309,-3.7803,0.0,0.0,0.0,0.0,0.0,0.0,0.0,0.0,0.0,0.0,0.0,0.0,0.0,0.0,0.0,0.0,0.0,0.0,0.0,0.0,0.0,0.0,0.0,0.0,0.0,0.0,0.0,0.0,0.0,0.0,0.0,0.0,0.0,0.0,0.0,0.0,0.0,0.0,0.0,0.0,0.0,0.0,0.0,0.0,0.0,0.0,0.0,0.0,0.0,0.0,0.0,0.0,0.0,0.0,0.0,0.0,0.0,0.0,0.0,0.0,0.0,0.0,0.0,0.0,0.0,0.0,0.0,0.0,0.0,0.0,0.0,0.0,0.0,0.0,0.0,0.0,0.0,0.0,0.0,0.0,0.0,0.0,0.0,0.0,0.0,0.0,0.0,0.0,0.0,0.0,0.0,0.0,0.0,0.0,0.0,0.0,0.0,0.0,0.0,0.0,0.0,0.0,0.0,0.0,0.0,0.0,0.0,0.0,-4.1392,-4.3903,-4.5444,-4.6152,-4.5996,-4.2841,-3.9852,0.0,0.0,0.0,0.0,0.0,0.0,0.0,0.0,0.0,0.0,0.0,0.0,0.0,0.0,0.0,0.0,0.0,0.0,0.0,0.0,0.0,0.0,0.0,0.0,0.0,0.0,0.0,0.0,0.0,0.0,0.0,0.0,0.0,0.0,0.0,0.0,0.0,0.0,0.0,0.0,0.0,0.0,0.0,0.0,0.0,0.0,0.0,0.0,0.0,0.0,0.0,0.0,0.0,0.0,0.0,0.0,0.0,0.0,0.0,0.0,0.0,0.0,0.0,0.0,0.0,0.0,0.0,0.0,0.0,0.0,0.0,0.0,0.0,0.0,0.0,0.0,0.0,0.0,0.0,0.0,0.0,0.0,0.0,0.0,0.0,0.0,0.0,0.0,0.0,0.0,0.0,0.0,0.0,0.0,0.0,0.0,0.0,0.0,0.0,0.0,0.0,0.0,0.0,0.0,0.0,0.0,0.0,0.0,-4.2063,-4.4628,-4.5813,-4.6766,-4.7377,-4.5643,-4.2262,0.0,0.0,0.0,0.0,0.0,0.0,0.0,0.0,0.0,0.0,0.0,0.0,0.0,0.0,0.0,0.0,0.0,0.0,0.0,0.0,0.0,0.0,0.0,0.0,0.0,0.0,0.0,0.0,0.0,0.0,0.0,0.0,0.0,0.0,0.0,0.0,0.0,0.0,0.0,0.0,0.0,0.0,0.0,0.0,0.0,0.0,0.0,0.0,0.0,0.0,0.0,0.0,0.0,0.0,0.0,0.0,0.0,0.0,0.0,0.0,0.0,0.0,0.0,0.0,0.0,0.0,0.0,0.0,0.0,0.0,0.0,0.0,0.0,0.0,0.0,0.0,0.0,0.0,0.0,0.0,0.0,0.0,0.0,0.0,0.0,0.0,0.0,0.0,0.0,0.0,0.0,0.0,0.0,0.0,0.0,0.0,0.0,0.0,0.0,0.0,0.0,0.0,0.0,0.0,0.0,0.0,0.0,0.0,-4.1689,-4.4415,-4.6173,-4.7166,-4.7315,-4.4463,-4.1294,0.0,0.0,0.0,0.0,0.0,0.0,0.0,0.0,0.0,0.0,0.0,0.0,0.0,0.0,0.0,0.0,0.0,0.0,0.0,0.0,0.0,0.0,0.0,0.0,0.0,0.0,0.0,0.0,0.0,0.0,0.0,0.0,0.0,0.0,0.0,0.0,0.0,0.0,0.0,0.0,0.0,0.0,0.0,0.0,0.0,0.0,0.0,0.0,-3.1258,0.0,0.0,0.0,0.0,0.0,0.0,0.0,0.0,0.0,0.0,0.0,0.0,0.0,0.0,0.0,0.0,0.0,0.0,0.0,0.0,0.0,0.0,0.0,0.0,0.0,0.0,0.0,0.0,0.0,0.0,0.0,0.0,0.0,0.0,0.0,0.0,0.0,0.0,0.0,0.0,0.0,0.0,0.0,0.0,0.0,0.0,0.0,0.0,0.0,0.0,0.0,0.0,0.0,0.0,0.0,0.0,0.0,0.0,0.0,-4.212,-4.488,-4.6026,-4.6759,-4.704,-4.428,-4.1196,0.0,0.0,0.0,0.0,0.0,0.0,0.0,0.0,0.0,0.0,0.0,0.0,0.0,0.0,0.0,0.0,0.0,0.0,0.0,0.0,0.0,0.0,0.0,0.0,0.0,0.0,0.0,0.0,0.0,0.0,0.0,0.0,0.0,0.0,0.0,0.0,0.0,0.0,0.0,0.0,0.0,0.0,0.0,0.0,0.0,0.0,0.0,0.0,0.0,0.0,0.0,0.0,0.0,0.0,0.0,0.0,0.0,0.0,0.0,0.0,0.0,0.0,0.0,0.0,0.0,0.0,0.0,0.0,0.0,0.0,0.0,0.0,0.0,0.0,0.0,0.0,0.0,0.0,0.0,0.0,0.0,0.0,0.0,0.0,0.0,0.0,0.0,0.0,0.0,0.0,0.0,0.0,0.0,0.0,0.0,0.0,0.0,0.0,0.0,0.0,0.0,0.0,0.0,0.0,0.0,0.0,0.0,-3.9366,-4.2368,-4.5181,-4.5592,-4.6028,-4.6531,-4.4304,-4.1354,-3.7766,0.0,0.0,0.0,0.0,0.0,0.0,0.0,0.0,0.0,0.0,0.0,0.0,0.0,0.0,0.0,0.0,0.0,0.0,0.0,0.0,0.0,0.0,0.0,0.0,0.0,0.0,0.0,0.0,0.0,0.0,0.0,0.0,0.0,0.0,0.0,0.0,0.0,0.0,-2.8253,-3.0739,0.0,0.0,0.0,0.0,0.0,0.0,0.0,0.0,-3.1857,0.0,0.0,0.0,0.0,0.0,0.0,0.0,0.0,0.0,0.0,0.0,0.0,0.0,0.0,0.0,0.0,0.0,0.0,0.0,0.0,0.0,0.0,0.0,0.0,0.0,0.0,0.0,0.0,0.0,0.0,0.0,0.0,0.0,0.0,0.0,0.0,0.0,0.0,0.0,0.0,0.0,0.0,0.0,0.0,0.0,0.0,0.0,0.0,0.0,0.0,0.0,0.0,0.0,0.0,0.0,0.0,-3.7515,-3.847,-4.0558,-4.392,-4.5025,-4.5285,-4.4758,-4.3558,-4.1123,-3.7376,0.0,0.0,0.0,0.0,0.0,0.0,0.0,0.0,0.0,0.0,0.0,0.0,0.0,0.0,0.0,0.0,0.0,0.0,0.0,0.0,0.0,0.0,0.0,0.0,0.0,0.0,0.0,0.0,0.0,0.0,0.0,0.0,0.0,0.0,0.0,0.0,0.0,0.0,0.0,-3.141,-3.2586,0.0,0.0,0.0,0.0,0.0,0.0,0.0,0.0,-3.135,0.0,0.0,0.0,0.0,0.0,0.0,0.0,0.0,0.0,0.0,0.0,0.0,0.0,0.0,0.0,0.0,0.0,0.0,0.0,0.0,0.0,0.0,0.0,0.0,0.0,0.0,0.0,0.0,0.0,0.0,0.0,0.0,0.0,0.0,0.0,0.0,0.0,0.0,0.0,0.0,0.0,0.0,0.0,0.0,0.0,0.0,0.0,0.0,0.0,0.0,0.0,0.0,0.0,0.0,0.0,-3.6814,-3.8923,-4.129,-4.3925,-4.4621,-4.4595,-4.3871,-4.202,-3.957,0.0,0.0,0.0,0.0,0.0,0.0,0.0,0.0,0.0,0.0,0.0,0.0,0.0,0.0,0.0,0.0,0.0,0.0,0.0,0.0,0.0,0.0,0.0,0.0,0.0,0.0,0.0,0.0,0.0,0.0,0.0,0.0,0.0,0.0,0.0,0.0,0.0,0.0,0.0,0.0,-3.2108,-3.3035,-3.327,0.0,0.0,0.0,0.0,0.0,0.0,-3.1749,-3.1228,0.0,0.0,0.0,0.0,0.0,0.0,0.0,0.0,0.0,0.0,0.0,0.0,0.0,0.0,0.0,0.0,0.0,0.0,0.0,0.0,0.0,0.0,0.0,0.0,0.0,0.0,0.0,0.0,0.0,0.0,0.0,0.0,0.0,0.0,0.0,0.0,0.0,0.0,0.0,0.0,0.0,0.0,0.0,0.0,0.0,0.0,0.0,0.0,0.0,0.0,0.0,0.0,0.0,0.0,0.0,-3.5904,-3.8966,-4.1709,-4.4042,-4.4285,-4.3955,-4.3133,-4.0772,-3.8259,0.0,0.0,0.0,0.0,0.0,0.0,0.0,0.0,0.0,0.0,0.0,0.0,0.0,0.0,0.0,0.0,0.0,0.0,0.0,0.0,0.0,0.0,0.0,0.0,0.0,0.0,0.0,0.0,0.0,0.0,0.0,0.0,0.0,0.0,0.0,0.0,0.0,0.0,0.0,0.0,0.0,-3.3238,-3.3811,-3.2474,0.0,0.0,0.0,0.0,-3.2433,-3.2115,0.0,0.0,0.0,0.0,0.0,0.0,0.0,0.0,0.0,0.0,0.0,0.0,0.0,0.0,0.0,0.0,0.0,0.0,0.0,0.0,0.0,0.0,0.0,0.0,0.0,0.0,0.0,0.0,0.0,0.0,0.0,0.0,0.0,0.0,0.0,0.0,0.0,0.0,0.0,0.0,0.0,0.0,0.0,0.0,0.0,0.0,0.0,0.0,0.0,0.0,0.0,0.0,0.0,0.0,0.0,0.0,-3.5401,-3.6903,-3.9593,-4.3534,-4.3998,-4.3432,-4.1945,-4.0835,-3.864,0.0,0.0,0.0,0.0,0.0,0.0,0.0,0.0,0.0,0.0,0.0,0.0,0.0,0.0,0.0,0.0,0.0,0.0,0.0,0.0,0.0,0.0,0.0,0.0,0.0,0.0,0.0,0.0,0.0,0.0,0.0,0.0,0.0,0.0,0.0,0.0,0.0,0.0,0.0,0.0,0.0,-3.2226,-3.1086,-3.1239,-3.1383,0.0,0.0,-3.2247,-3.336,-3.3463,0.0,0.0,0.0,0.0,0.0,0.0,0.0,0.0,0.0,0.0,0.0,0.0,0.0,0.0,0.0,0.0,0.0,0.0,0.0,0.0,0.0,0.0,0.0,0.0,0.0,0.0,0.0,0.0,0.0,0.0,0.0,0.0,0.0,0.0,0.0,0.0,0.0,0.0,0.0,0.0,0.0,0.0,0.0,0.0,0.0,0.0,0.0,0.0,0.0,0.0,0.0,0.0,0.0,0.0,0.0,-3.0801,-3.3952,-3.6417,-3.8833,-4.1178,-4.2067,-4.171,-4.0028,-3.8563,-3.6497,0.0,0.0,0.0,0.0,0.0,0.0,0.0,0.0,0.0,0.0,0.0,0.0,0.0,0.0,0.0,0.0,0.0,0.0,0.0,0.0,0.0,0.0,0.0,0.0,0.0,0.0,0.0,0.0,0.0,0.0,0.0,0.0,0.0,0.0,0.0,0.0,0.0,0.0,0.0,0.0,0.0,0.0,-3.1276,-3.1203,0.0,0.0,0.0,-3.225,-3.3211,0.0,0.0,0.0,0.0,0.0,0.0,0.0,0.0,0.0,0.0,0.0,0.0,0.0,0.0,0.0,0.0,0.0,0.0,0.0,0.0,0.0,0.0,0.0,0.0,0.0,0.0,0.0,0.0,0.0,0.0,0.0,0.0,0.0,0.0,0.0,0.0,0.0,0.0,0.0,0.0,0.0,0.0,0.0,0.0,0.0,0.0,0.0,0.0,0.0,0.0,0.0,0.0,0.0,0.0,0.0,0.0,0.0,-3.27,-3.5625,-3.7825,-3.9236,-4.0182,-3.9984,-3.8484,-3.6665,0.0,0.0,0.0,0.0,0.0,0.0,0.0,0.0,0.0,0.0,0.0,0.0,0.0,0.0,0.0,0.0,0.0,0.0,0.0,0.0,0.0,0.0,0.0,0.0,0.0,0.0,0.0,-2.0804,0.0,0.0,0.0,0.0,0.0,0.0,0.0,0.0,0.0,0.0,0.0,0.0,0.0,0.0,-3.0982,-3.1269,-3.1371,-3.1864,0.0,0.0,-3.2173,-3.294,-3.3054,-3.2305,0.0,0.0,0.0,0.0,0.0,0.0,0.0,0.0,0.0,0.0,0.0,0.0,0.0,0.0,0.0,0.0,0.0,0.0,0.0,0.0,0.0,0.0,0.0,0.0,0.0,0.0,0.0,0.0,0.0,0.0,0.0,0.0,0.0,0.0,0.0,0.0,0.0,0.0,0.0,0.0,0.0,0.0,0.0,0.0,0.0,0.0,0.0,0.0,0.0,0.0,0.0,0.0,0.0,0.0,0.0,-3.205,-3.3656,-3.5912,-3.8789,-3.901,-3.8646,-3.7766,-3.6232,-3.3994,0.0,0.0,0.0,0.0,0.0,0.0,0.0,0.0,0.0,0.0,0.0,0.0,0.0,0.0,0.0,0.0,0.0,0.0,0.0,0.0,0.0,0.0,0.0,0.0,0.0,0.0,0.0,0.0,0.0,0.0,0.0,0.0,0.0,0.0,0.0,0.0,0.0,0.0,0.0,0.0,0.0,-3.0619,-2.9765,-3.1435,-3.2563,0.0,0.0,-3.2138,-3.2795,-3.3052,-3.2443,-3.0239,0.0,0.0,0.0,0.0,0.0,0.0,0.0,0.0,0.0,0.0,0.0,0.0,0.0,0.0,0.0,0.0,0.0,0.0,0.0,0.0,0.0,0.0,0.0,0.0,0.0,0.0,0.0,0.0,0.0,0.0,0.0,0.0,0.0,0.0,0.0,0.0,0.0,0.0,0.0,0.0,0.0,0.0,0.0,0.0,0.0,0.0,0.0,0.0,0.0,0.0,0.0,0.0,0.0,-2.7259,-3.025,-3.2157,-3.3906,-3.5583,-3.6319,-3.6202,-3.5186,-3.4457,-3.2886,0.0,0.0,0.0,0.0,0.0,0.0,0.0,0.0,0.0,0.0,0.0,0.0,0.0,0.0,0.0,0.0,0.0,0.0,0.0,0.0,0.0,0.0,0.0,0.0,0.0,0.0,0.0,0.0,-2.1714,-2.1744,-2.1591,0.0,0.0,0.0,0.0,0.0,0.0,0.0,0.0,0.0,0.0,-2.8722,-2.9122,-3.0303,0.0,0.0,-3.1612,-3.1852,-3.1572,-3.2012,-3.1521,-2.8962,-2.8361,0.0,0.0,0.0,0.0,0.0,0.0,0.0,0.0,0.0,0.0,0.0,0.0,0.0,0.0,0.0,0.0,0.0,0.0,0.0,0.0,0.0,0.0,0.0,0.0,0.0,0.0,0.0,0.0,0.0,0.0,0.0,0.0,0.0,0.0,0.0,0.0,0.0,0.0,0.0,0.0,0.0,0.0,0.0,0.0,0.0,0.0,0.0,0.0,0.0,0.0,0.0,0.0,-2.6294,-2.8794,-3.0728,-3.2199,-3.3308,-3.4163,-3.4204,-3.336,-3.2845,-3.1523,0.0,0.0,0.0,0.0,0.0,0.0,0.0,0.0,0.0,0.0,0.0,0.0,0.0,0.0,0.0,0.0,0.0,0.0,0.0,0.0,0.0,0.0,0.0,0.0,0.0,0.0,0.0,0.0,-2.1829,-2.1654,-2.0759,0.0,0.0,0.0,0.0,0.0,0.0,0.0,0.0,0.0,0.0,-2.7726,-2.8793,-2.9392,-2.9853,-3.0231,-3.0628,-3.0726,-3.0172,-3.0502,-3.0038,-2.7781,0.0,0.0,0.0,0.0,0.0,0.0,0.0,0.0,0.0,0.0,0.0,0.0,0.0,0.0,0.0,0.0,0.0,0.0,0.0,0.0,0.0,0.0,0.0,0.0,0.0,0.0,0.0,0.0,0.0,0.0,-2.3674,0.0,0.0,0.0,0.0,0.0,0.0,0.0,0.0,0.0,0.0,0.0,0.0,0.0,0.0,0.0,0.0,0.0,0.0,0.0,0.0,0.0,0.0,-2.5461,-2.7981,-2.9342,-3.0902,-3.2598,-3.2933,-3.2922,-3.264,-3.1554,-2.9916,-2.7718,0.0,0.0,0.0,0.0,0.0,0.0,0.0,0.0,0.0,0.0,0.0,0.0,0.0,0.0,0.0,0.0,0.0,0.0,0.0,0.0,0.0,0.0,0.0,0.0,0.0,0.0,-2.1716,-2.1222,-2.0692,0.0,0.0,0.0,0.0,0.0,0.0,0.0,0.0,0.0,0.0,-2.6664,-2.8151,-2.8672,-2.8951,-2.9114,-2.9085,-2.8713,-2.8492,-2.8712,-2.8545,-2.8002,0.0,0.0,0.0,0.0,0.0,0.0,0.0,0.0,0.0,0.0,0.0,0.0,0.0,0.0,0.0,0.0,0.0,0.0,0.0,0.0,0.0,0.0,0.0,0.0,0.0,0.0,0.0,-2.4904,-2.4562,0.0,0.0,0.0,0.0,0.0,0.0,0.0,0.0,0.0,0.0,0.0,-2.068,-2.1201,0.0,0.0,0.0,0.0,0.0,0.0,0.0,0.0,0.0,0.0,0.0,0.0,-2.418,-2.6224,-2.7496,-2.8799,-3.0185,-3.0274,-3.0318,-3.0229,-2.9753,-2.8647,-2.6793,0.0,0.0,0.0,0.0,0.0,0.0,0.0,0.0,0.0,0.0,0.0,0.0,0.0,0.0,0.0,0.0,0.0,0.0,0.0,0.0,0.0,0.0,0.0,0.0,0.0,-2.1975,0.0,0.0,0.0,0.0,0.0,0.0,0.0,0.0,0.0,0.0,0.0,-2.3219,-2.453,-2.5447,-2.6196,-2.6741,-2.7595,-2.8011,0.0,0.0,0.0,0.0,0.0,0.0,0.0,0.0,0.0,0.0,0.0,0.0,0.0,0.0,-2.8015,-2.5886,-2.5315,-2.5208,-2.5335,0.0,0.0,0.0,0.0,0.0,0.0,0.0,0.0,0.0,0.0,0.0,0.0,0.0,0.0,-2.4131,0.0,-2.3436,0.0,0.0,0.0,0.0,0.0,0.0,0.0,0.0,-2.0644,-2.0861,-2.0534,-2.1231,-2.1446,0.0,-2.1012,-2.0672,0.0,0.0,0.0,0.0,0.0,0.0,0.0,0.0,-2.3915,-2.5519,-2.6726,-2.7824,-2.8789,-2.8876,-2.8889,-2.883,-2.8131,-2.7153,-2.5835,-2.4528,-2.3303,0.0,0.0,0.0,0.0,0.0,0.0,0.0,0.0,0.0,0.0,0.0,0.0,0.0,0.0,0.0,0.0,0.0,0.0,0.0,0.0,0.0,0.0,0.0,-2.0927,0.0,0.0,0.0,0.0,0.0,0.0,0.0,0.0,0.0,-2.1689,-2.2061,-2.277,-2.4312,-2.5011,-2.5569,-2.6039,0.0,0.0,0.0,0.0,0.0,0.0,0.0,-2.6947,-2.6273,-2.6412,-2.682,-2.7498,-2.8207,-2.84,-2.7551,0.0,0.0,-2.6977,-2.6566,-2.6616,-2.6995,-2.7322,-2.7567,-2.7719,-2.8354,-2.8839,0.0,0.0,0.0,0.0,0.0,0.0,0.0,0.0,-2.255,-2.2222,0.0,-2.1488,0.0,0.0,0.0,0.0,0.0,-1.9229,0.0,0.0,-2.0968,-2.135,-2.1024,-2.1664,-2.1743,-2.1439,-2.1854,-2.1572,-2.065,-2.0587,0.0,0.0,0.0,0.0,0.0,0.0,-2.4498,-2.5614,-2.6799,-2.7764,-2.8368,-2.8597,-2.8615,-2.8392,-2.6749,-2.5542,-2.4823,-2.3741,-2.3045,-2.2951,-2.1695,0.0,0.0,0.0,0.0,0.0,0.0,0.0,0.0,0.0,0.0,0.0,0.0,0.0,0.0,0.0,0.0,0.0,0.0,0.0,0.0,-1.9597,0.0,0.0,0.0,0.0,0.0,0.0,0.0,0.0,0.0,0.0,-2.064,-2.1659,-2.281,-2.4176,0.0,0.0,0.0,0.0,-2.6628,-2.6628,-2.6747,-2.6722,-2.6338,-2.6573,-2.6698,-2.6369,0.0,0.0,-2.7757,-2.8009,-2.814,-2.8046,-2.8594,-2.8978,-2.8816,-2.8509,-2.8718,-2.9673,-2.943,-2.949,-3.0399,-3.0762,-3.1267,-2.1732,0.0,0.0,0.0,0.0,-2.2621,-2.3053,-2.4115,-2.3043,-2.2529,-2.2421,-2.1686,0.0,0.0,0.0,0.0,0.0,0.0,-1.8015,-1.9259,-1.9777,-2.0372,-2.0928,-2.1271,-2.1225,-2.083,-2.0629,-2.0655,-2.0839,-2.0554,-2.0007,-1.9309,0.0,0.0,0.0,0.0,-2.2068,-2.3359,-2.4415,-2.5521,-2.6641,-2.6688,-2.6721,-2.6713,-2.6213,-2.5703,-2.5151,-2.4386,-2.3555,-2.2747,-2.1513,0.0,0.0,0.0,0.0,0.0,0.0,0.0,0.0,0.0,0.0,0.0,0.0,0.0,0.0,0.0,0.0,0.0,0.0,0.0,-1.8335,-1.8585,-1.8504,0.0,0.0,0.0,0.0,0.0,0.0,0.0,0.0,0.0,-2.0038,-2.1542,-2.2781,0.0,0.0,-2.4323,-2.4615,-2.5124,-2.5465,-2.5498,0.0,0.0,0.0,-2.5697,-2.5771,-2.6474,-2.7381,-2.8093,-2.8481,-2.8795,-2.8919,-2.8579,-2.9259,-2.9769,-2.9317,-2.9295,-2.9559,-3.0094,-3.0154,-3.0049,-3.0252,-3.0432,-3.0616,-2.0704,-2.182,-2.1115,-2.1165,-2.1592,-2.1117,-2.1583,-2.2588,-2.1595,-2.1259,-2.1384,-2.0692,-1.9906,-1.9089,-1.7805,0.0,0.0,0.0,-1.7524,-1.8812,-1.9005,-1.9454,-2.0012,-2.0094,-1.9959,-1.9559,-1.926,-1.9371,-1.9803,-1.9525,-1.8879,-1.7985,0.0,0.0,-1.8844,-2.0074,-2.1237,-2.2223,-2.3213,-2.4142,-2.4933,-2.4933,-2.4979,-2.5012,-2.4621,-2.4271,-2.401,-2.3462,-2.2862,-2.2163,-2.1197,-2.0031,0.0,0.0,0.0,0.0,0.0,0.0,0.0,0.0,0.0,0.0,0.0,-1.6986,0.0,0.0,0.0,0.0,-1.6824,-1.7545,-1.7994,-1.8048,0.0,0.0,0.0,0.0,0.0,0.0,0.0,-1.783,-1.8708,-1.9545,-2.023,-2.1481,-2.2428,-2.2722,-2.312,-2.3491,-2.3881,0.0,-2.5129,-2.5232,-2.5313,-2.5472,-2.5765,-2.5582,-2.566,-2.6554,-2.7341,-2.8078,-2.8656,-2.8843,-2.8962,-2.908,-2.9397,-2.9698,-2.9749,-2.9666,-2.9876,-3.0691,-3.065,-3.0438,-3.0582,-3.0342,-3.0148,-1.9972,-1.9708,-1.8818,-1.8657,-1.8901,-1.8868,-1.9093,-1.9418,-1.8999,-1.9048,-1.9418,-1.893,-1.849,-1.7986,-1.7014,0.0,-1.7059,-1.7117,-1.7608,-1.8414,-1.8483,-1.8561,-1.8665,-1.8565,-1.8323,-1.7997,-1.7997,-1.7997,-1.7989,-1.7989,-1.755,-1.6805,-1.8829,-1.9706,-1.9402,-2.0512,-2.1373,-2.193,-2.2853,-2.3404,-2.3452,-2.3489,-2.343,-2.3411,-2.2503,-2.1989,-2.1923,-2.1615,-2.144,-2.135,-2.0688,-1.991,-1.8963,0.0,0.0,0.0,0.0,0.0,0.0,0.0,0.0,0.0,0.0,0.0,0.0,0.0,0.0,0.0,-1.6852,0.0,-1.8319,-1.7577,0.0,0.0,0.0,-1.4456,-1.4331,-1.5255,-1.6315,-1.7539,0.0,0.0,-2.0882,0.0,-2.1959,-2.23,-2.2809,-2.3331,-2.3891,-2.4589,-2.5193,-2.531,-2.5592,-2.5732,-2.573,-2.5761,-2.5893,-2.6388,-2.6836,-2.7301,-2.8072,-2.8197,-2.8443,-2.9097,-2.8968,-2.8866,-2.9872,-2.9533,-2.977,-3.1049,-3.0797,-3.0529,-3.0911,-3.0501,-3.0014,-1.8114,-1.7799,-1.7344,-1.81,-1.9605,-1.9206,-1.9104,-1.9169,-1.8921,-1.8846,-1.8948,-1.8558,-1.777,-1.6734,-1.649,-1.6162,-1.5843,-1.585,-1.6464,-1.7527,-1.7264,-1.7593,-1.8433,-1.8103,-1.7953,-1.7997,-1.7827,-1.7779,-1.7787,-1.7787,-1.751,-1.6985,-1.7669,-1.8008,-1.7957,-1.9429,-2.0575,-2.1296,-2.1903,-2.2499,-2.3095,-2.3132,-2.2967,-2.2581,-2.235,-2.1888,-2.1206,-2.1108,-2.0862,-2.043,-1.9889,-1.9265,-1.8651,-1.686,0.0,0.0,0.0,0.0,0.0,0.0,0.0,0.0,0.0,-1.5204,-1.3866,0.0,-1.3742,0.0,-1.4758,-1.5359,-1.5482,-1.5322,0.0,0.0,-1.4903,-1.473,-1.5283,-1.5454,-1.599,-1.7186,-1.8371,-1.9465,-2.0312,-2.1244,-2.1845,-2.1921,-2.2317,-2.2681,-2.3016,-2.346,-2.3827,-2.4057,-2.4274,-2.4563,-2.5075,-2.5251,-2.5302,-2.545,-2.5633,-2.589,-2.6254,-2.668,-2.7145,-2.7613,-2.7668,-2.7792,-2.814,-2.841,-2.8799,-2.9215,-2.9607,-2.9909,-2.9889,-2.9713,-2.9524,-1.7347,-1.7166,-1.6737,-1.7225,-1.8268,-1.7804,-1.7623,-1.7623,-1.7537,-1.7451,-1.7436,-1.722,-1.6723,-1.6116,-1.6064,-1.5886,-1.5578,-1.5458,-1.5802,-1.6429,-1.6047,-1.6184,-1.6848,-1.6529,-1.6445,-1.6527,-1.6445,-1.6363,-1.6363,-1.6355,-1.6302,-1.6171,-1.6693,-1.7013,-1.7119,-1.8235,-1.9165,-1.9958,-2.0456,-2.1116,-2.1907,-2.1945,-2.1726,-2.123,-2.1058,-2.0619,-1.992,-1.9235,-1.8841,-1.868,-1.7849,-1.7187,-1.6692,-1.5543,-1.4604,0.0,0.0,0.0,0.0,0.0,0.0,0.0,0.0,0.0,0.0,0.0,-1.3147,0.0,-1.4435,-1.4968,-1.501,-1.4987,-1.5084,-1.5309,-1.4812,-1.4617,-1.4912,-1.4997,-1.5454,-1.659,-1.7402,-1.8458,-1.9955,-2.0698,-2.128,-2.1721,-2.1997,-2.2214,-2.2402,-2.2692,-2.3001,-2.3309,-2.3556,-2.3868,-2.4236,-2.4128,-2.4124,-2.4323,-2.4522,-2.4841,-2.549,-2.5717,-2.6113,-2.6909,-2.6996,-2.7033,-2.7415,-2.7568,-2.7783,-2.7993,-2.8176,-2.852,-2.9032,-2.9056,-2.891,-1.7179,-1.7092,-1.6401,-1.6168,-1.6253,-1.5808,-1.5683,-1.5825,-1.5825,-1.5825,-1.5825,-1.5825,-1.5825,-1.5825,-1.5825,-1.5825,-1.5812,-1.5531,-1.5398,-1.541,-1.5025,-1.4884,-1.487,-1.4768,-1.4692,-1.4692,-1.4699,-1.465,-1.4657,-1.4657,-1.4783,-1.5041,-1.5824,-1.6386,-1.665,-1.6957,-1.7596,-1.85,-1.8961,-1.9499,-2.0245,-2.0284,-2.0014,-1.9543,-1.9178,-1.8735,-1.8197,-1.6961,-1.6401,-1.6615,-1.5635,-1.49,-1.4521,-1.4106,-1.3615,0.0,-1.2721,0.0,0.0,0.0,0.0,0.0,0.0,0.0,0.0,-1.3112,-1.3286,-1.3719,-1.4736,-1.543,-1.5471,-1.5466,-1.5474,-1.5435,-1.4841,-1.4328,-1.4071,-1.424,-1.4795,-1.5849,-1.6286,-1.7383,-1.9556,-2.008,-2.0644,-2.1492,-2.1759,-2.1873,-2.2035,-2.2252,-2.2515,-2.2889,-2.329,-2.3519,-2.3338,-2.2949,-2.2807,-2.3219,-2.343,-2.3912,-2.4829,-2.4861,-2.5129,-2.6229,-2.631,-2.6391,-2.7077,-2.6875,-2.6792,-2.7111,-2.6915,-2.7115,-2.8255,-2.8505,-2.8354,-1.7007,-1.666,-1.5518,-1.5477,-1.6204,-1.5088,-1.5057,-1.5825,-1.5825,-1.5825,-1.5825,-1.5825,-1.5825,-1.5825,-1.5825,-1.5825,-1.5764,-1.5524,-1.5398,-1.5371,-1.4834,-1.4703,-1.4863,-1.4591,-1.4524,-1.4692,-1.4524,-1.444,-1.444,-1.444,-1.4482,-1.4566,-1.5075,-1.5699,-1.6386,0.0,0.0,0.0,-1.8212,-1.8327,-1.8479,-1.8479,-1.8184,-1.7505,-1.7409,0.0,-1.5988,-1.5869,-1.5696,-1.5369,-1.5402,0.0,0.0,0.0,0.0,0.0,0.0,0.0,0.0,0.0,0.0,0.0,-1.1843,-1.177,-1.2663,-1.2917,-1.3182,-1.354,-1.4019,-1.4441,-1.4675,-1.4694,-1.4738,-1.4691,-1.4346,-1.4093,-1.3982,-1.3858,-1.4089,-1.5158,-1.596,-1.6973,-1.8444,-1.9668,-2.0576,-2.1021,-2.1492,-2.1807,-2.1845,-2.1997,-2.2289,-2.2681,-2.2955,-2.3079,-2.2869,-2.2376,-2.2065,-2.2217,-2.2212,-2.2392,-2.2681,-2.331,-2.371,-2.4307,-2.4704,-2.5208,-2.5572,-2.5772,-2.5994,-2.6158,-2.6356,-2.6817,-2.775,-2.7971,-2.8005,-1.4992,0.0,-1.4048,-1.4041,0.0,-1.3804,-1.38,-1.4322,-1.5343,-1.5825,-1.5825,-1.5825,-1.5825,-1.5825,-1.5825,-1.5825,-1.5764,-1.5524,-1.5324,-1.5209,-1.4723,-1.4492,-1.448,-1.4318,-1.4279,-1.4412,-1.4279,-1.4243,-1.4243,-1.4243,-1.4321,-1.4391,-1.4615,-1.5026,-1.5519,-1.5242,-1.5816,-1.735,-1.7277,-1.744,-1.7827,-1.7868,-1.7564,-1.6983,0.0,0.0,0.0,0.0,0.0,0.0,0.0,0.0,0.0,0.0,0.0,-1.3097,-1.2416,-1.2075,-1.2157,-1.1403,-1.1237,-1.1988,-1.2245,-1.2408,-1.2595,-1.3056,-1.3469,-1.3787,-1.419,-1.4523,-1.4684,-1.4845,-1.4882,-1.4721,-1.456,-1.4348,-1.4048,-1.3982,-1.4213,-1.4709,-1.5397,-1.6403,-1.7817,-1.8678,-1.959,-2.0304,-2.0972,-2.1377,-2.1415,-2.1683,-2.2038,-2.2173,-2.2054,-2.2035,-2.2015,-2.1717,-2.1451,-2.1502,-2.1542,-2.1663,-2.1846,-2.2322,-2.2793,-2.319,-2.3842,-2.4379,-2.4595,-2.5062,-2.5508,-2.5661,-2.5921,-2.6297,-2.7008,-2.7499,-2.784,-1.2906,-1.3056,-1.2612,-1.2533,-1.2684,-1.2484,-1.2533,-1.2829,0.0,0.0,0.0,-1.5248,-1.5242,-1.5248,-1.5248,-1.5248,-1.5229,-1.4958,-1.4721,-1.4443,-1.4159,-1.3838,-1.3623,-1.361,-1.361,-1.361,-1.3786,-1.387,-1.387,-1.3997,-1.4159,-1.4321,-1.4398,-1.4475,-1.4692,-1.4657,-1.5228,-1.6288,-1.6173,-1.6419,-1.7131,-1.7163,-1.696,-1.6522,-1.6348,-1.6018,-1.5438,-1.4471,-1.3939,-1.3806,-1.2883,-1.2351,-1.2372,-1.2412,-1.2465,-1.2434,-1.1833,-1.1549,-1.177,-1.0745,-1.0514,-1.149,-1.2619,-1.3128,-1.2791,-1.3374,-1.3887,-1.4148,-1.462,-1.4922,-1.498,-1.5221,-1.5279,-1.5009,-1.4936,-1.4681,-1.4253,-1.4357,-1.4511,-1.4607,-1.5011,-1.5811,-1.7196,-1.7764,-1.8359,-1.9432,-2.0187,-2.0779,-2.0924,-2.14,-2.1711,-2.1579,-2.1285,-2.1006,-2.1041,-2.1014,-2.0882,-2.1076,-2.1149,-2.1316,-2.1639,-2.1858,-2.2113,-2.2616,-2.328,-2.3771,-2.4005,-2.4637,-2.5188,-2.5397,-2.5564,-2.5797,-2.627,-2.6982,-2.7549,-1.2766,-1.2673,-1.177,-1.1901,-1.263,-1.1755,-1.1907,-1.2732,-1.3017,-1.3162,-1.3119,-1.3113,-1.3113,-1.3167,-1.3113,-1.3113,-1.3102,-1.2864,-1.262,0.0,-1.2132,-1.1893,-1.1671,-1.1714,-1.1714,-1.1757,-1.2534,-1.2918,-1.296,-1.3695,-1.4124,-1.4166,-1.4321,-1.4482,-1.4657,-1.4524,-1.4608,-1.4977,-1.4977,-1.4985,-1.5144,-1.5144,-1.4993,-1.4691,-1.4676,-1.4335,-1.3672,-1.3789,-1.3603,-1.3182,-1.324,-1.324,-1.3058,-1.3046,-1.308,-1.304,-1.2232,-1.1752,-1.1788,-1.0895,-1.0402,-1.063,-1.1684,-1.2653,-1.3301,-1.3765,-1.4202,-1.451,-1.4764,-1.5024,-1.5272,-1.536,-1.536,-1.5287,-1.5061,-1.4856,-1.4718,-1.4596,-1.4582,-1.4823,-1.5097,-1.5503,-1.6339,-1.7172,-1.7893,-1.8496,-1.9246,-2.0012,-2.0729,-2.123,-2.1345,-2.1108,-2.0842,-2.0584,-2.0424,-2.0422,-2.0529,-2.0679,-2.0871,-2.1063,-2.1305,-2.1608,-2.1877,-2.2044,-2.2859,-2.3505,-2.3758,-2.4379,-2.4863,-2.5118,-2.5355,-2.5592,-2.5784,-2.627,-2.6774,-1.0771,-1.0939,-1.0498,-1.0596,-1.0988,-1.0498,-1.0596,-1.1037,-1.1033,-1.1663,-1.2678,-1.2684,-1.2684,-1.2684,-1.2684,-1.2684,-1.2678,-1.2571,-1.2324,-1.2016,-1.1858,-1.1622,-1.13,-1.1278,-1.1278,-1.1327,-1.1714,-1.1929,-1.2052,-1.2875,-1.3088,-1.2656,-1.3167,-1.3766,-1.4328,-1.4286,-1.4286,-1.4377,-1.4489,-1.4524,-1.4524,-1.4524,-1.4455,-1.4358,-1.4248,-1.4042,-1.3722,-1.368,-1.3499,-1.3136,-1.3251,-1.3081,-1.2479,-1.2439,-1.224,-1.1782,-1.0899,-1.0472,-1.0676,-1.034,-1.0154,-1.0154,-1.1113,-1.1874,-1.2289,-1.3588,-1.4444,-1.466,-1.4957,-1.5221,-1.5374,-1.5389,-1.5316,-1.5141,-1.4988,-1.4834,-1.4728,-1.4743,-1.4787,-1.4933,-1.5257,-1.5666,-1.6064,-1.6607,-1.7164,-1.7634,-1.8307,-1.9214,-2.03,-2.0229,-2.0221,-2.0536,-2.0231,-1.9969,-1.9955,-2.015,-2.0388,-2.07,-2.0839,-2.0999,-2.1169,-2.1431,-2.1494,-2.1557,-2.2199,-2.2725,-2.3088,-2.3695,-2.4263,-2.4765,-2.4977,-2.5159,-2.5342,-2.555,-2.6068,-0.9122,-0.9624,-0.9624,-0.9624,-0.9624,-0.9624,-0.9624,-0.9624,-0.9628,-1.0502,-1.1858,-1.2004,-1.2004,-1.2004,-1.2004,-1.2004,-1.2004,-1.2004,-1.176,-1.1359,-1.1334,-1.1095,-1.0715,-1.0679,-1.0679,-1.0722,-1.0895,-1.0977,-1.1111,-1.1929,-1.2015,-1.1456,-1.2015,-1.2741,-1.3483,-1.3701,-1.3779,-1.3786,-1.4153,-1.4314,-1.4321,-1.4321,-1.4314,-1.4314,-1.4166,-1.4058,-1.3994,-1.3823,-1.3511,-1.3138,-1.3078,-1.2668,-1.1764,-1.1682,-1.1391,-1.0772,-0.9868,-0.9364,-0.9436,-0.9554,-0.9602,-0.9646,-1.0501,-1.1063,-1.1139,-1.2835,-1.4097,-1.435,-1.4901,-1.534,-1.5347,-1.5389,-1.5279,-1.5039,-1.5017,-1.4944,-1.4765,-1.4904,-1.5009,-1.5079,-1.5393,-1.5692,-1.5914,-1.6113,-1.6476,-1.6968,-1.7579,-1.8541,-1.9506,-1.9175,-1.9157,-1.9737,-1.9655,-1.9404,-1.966,-1.9857,-2.0183,-2.0635,-2.0807,-2.0935,-2.1126,-2.1201,-2.1201,-2.1285,-2.162,-2.2063,-2.2421,-2.2937,-2.3564,-2.4134,-2.4436,-2.465,-2.4977,-2.5061,-2.5467,-0.9126,-0.9579,-0.9628,-0.9624,-0.9624,-0.9624,-0.9624,-0.9624,-0.9624,-0.9677,-1.0015,-0.9871,-0.9969,-0.9871,-0.9965,-1.0019,-0.9965,-0.992,-0.9768,-0.949,-0.9372,-0.9179,-0.8981,-0.8915,-0.8872,-0.9003,-0.9689,-1.0028,-1.0072,-1.0939,-1.1365,-1.1278,-1.1413,-1.1499,-1.1671,-1.2448,-1.2833,-1.2833,-1.3695,-1.4124,-1.413,-1.4124,-1.413,-1.413,-1.4088,-1.4117,-1.3986,-1.4084,-1.3643,-1.285,-1.2747,-1.2323,-1.146,-1.1337,-1.1294,-1.1155,-1.0302,-0.9513,-0.8794,-0.8688,-0.874,-0.878,-0.9767,-1.0279,-1.0115,-1.1375,-1.2505,-1.3184,-1.4356,-1.5041,-1.5138,-1.5305,-1.5367,-1.5316,-1.5316,-1.533,-1.5313,-1.5323,-1.5387,-1.5338,-1.5401,-1.5472,-1.5555,-1.5707,-1.6064,-1.6689,-1.7301,-1.8013,-1.868,-1.8555,-1.8556,-1.9271,-1.93,-1.9158,-1.9252,-1.944,-1.9791,-2.0183,-2.0485,-2.0786,-2.1074,-2.1201,-2.1201,-2.1265,-2.1526,-2.1858,-2.2063,-2.2359,-2.2937,-2.3607,-2.393,-2.4121,-2.4765,-2.4948,-2.5244,-0.913,-0.9381,-0.9529,-0.9624,-0.9624,-0.9624,-0.9624,-0.9624,-0.9624,-0.9624,-0.9624,-0.9624,-0.9624,-0.9624,-0.9624,-0.9624,-0.962,-0.9514,-0.9336,-0.9096,-0.8986,-0.88,-0.8633,-0.8616,-0.8616,-0.8612,-0.8955,-0.913,-0.9218,-0.9559,-1.025,-1.1111,-1.0766,-1.0722,-1.1284,-1.1671,-1.188,-1.188,-1.2229,-1.2448,-1.2528,-1.3003,-1.3264,-1.3215,-1.2747,-1.2448,-1.2448,-1.2448,-1.2272,-1.1929,-1.188,-1.1451,-1.0549,-1.0463,-1.0192,-0.9605,-0.9167,-0.8785,-0.8445,-0.8503,-0.8616,-0.8616,-0.9038,-0.9253,-0.9218,-1.0289,-1.1354,-1.2242,-1.3451,-1.4482,-1.5006,-1.5264,-1.5389,-1.5389,-1.5389,-1.5389,-1.5389,-1.5389,-1.5389,-1.5389,-1.5389,-1.5389,-1.5431,-1.5582,-1.594,-1.6445,-1.6862,-1.7324,-1.8101,-1.8058,-1.8264,-1.8857,-1.8994,-1.9046,-1.9158,-1.9308,-1.9638,-2.0009,-2.0324,-2.0658,-2.0935,-2.1126,-2.1201,-2.1201,-2.138,-2.1651,-2.1889,-2.2032,-2.2433,-2.31,-2.378,-2.4073,-2.4419,-2.4447,-2.4563,-0.9133,-0.9331,-0.9529,-0.9624,-0.9624,-0.9624,-0.9624,-0.9624,-0.9624,-0.9624,-0.9624,-0.9624,-0.9624,-0.9624,-0.9624,-0.9604,-0.9539,-0.9461,-0.9282,-0.9027,-0.8881,-0.8727,-0.8624,-0.8616,-0.8616,-0.8616,-0.8612,-0.8616,-0.8616,-0.8616,-0.9305,-1.0294,-0.9859,-0.9907,-1.0511,-1.0766,-1.0895,-1.0939,-1.1149,-1.1278,-1.1365,-1.1714,-1.2057,-1.2229,-1.1666,-1.1278,-1.1278,-1.1278,-1.1192,-1.0933,-1.0895,-1.0506,-0.9646,-0.9559,-0.9191,-0.8472,-0.8365,-0.8365,-0.8365,-0.8539,-0.8616,-0.8616,-0.8616,-0.8616,-0.874,-0.9388,-1.0332,-1.1311,-1.2382,-1.3493,-1.4915,-1.5298,-1.5389,-1.5389,-1.5389,-1.5389,-1.5389,-1.5389,-1.5389,-1.5389,-1.5389,-1.5389,-1.5431,-1.5548,-1.5741,-1.6116,-1.6275,-1.6636,-1.7431,-1.7593,-1.7667,-1.8572,-1.866,-1.876,-1.9145,-1.9285,-1.9539,-1.9824,-2.0129,-2.0421,-2.0732,-2.0967,-2.1169,-2.1169,-2.1201,-2.1265,-2.1537,-2.1745,-2.1951,-2.2732,-2.3335,-2.3734,-2.3907,-2.3907,-2.3995,-0.8882,-0.9525,-0.9575,-0.9579,-0.9624,-0.9579,-0.9579,-0.9579,-0.9579,-0.9575,-0.9624,-0.9624,-0.9624,-0.9624,-0.9624,-0.9531,-0.9433,-0.94,-0.9161,-0.8869,-0.882,-0.8727,-0.862,-0.8616,-0.8616,-0.8616,-0.8616,-0.8616,-0.8616,-0.8612,-0.8652,-0.8744,-0.8784,-0.87,-0.8959,-0.9602,-0.9946,-1.0033,-1.0722,-1.1192,-1.1111,-1.0467,-1.0477,-1.117,-1.1284,-1.1149,-1.1192,-1.1235,-1.0852,-0.999,-0.9985,-0.9559,-0.8784,-0.87,-0.8692,-0.8592,-0.8592,-0.8592,-0.8588,-0.86,-0.8616,-0.8616,-0.8616,-0.8616,-0.8612,-0.8911,-0.9559,-1.0593,-1.1273,-1.2565,-1.4615,-1.5124,-1.5347,-1.5389,-1.5389,-1.5389,-1.5389,-1.5389,-1.5389,-1.5389,-1.5389,-1.5389,-1.5389,-1.5431,-1.5541,-1.573,-1.583,-1.6213,-1.6911,-1.6896,-1.7354,-1.8184,-1.8432,-1.8286,-1.8964,-1.9218,-1.9384,-1.9605,-1.9889,-2.0215,-2.0506,-2.0775,-2.0967,-2.1126,-2.1126,-2.1158,-2.1233,-2.138,-2.162,-2.2106,-2.2586,-2.2962,-2.3522,-2.3463,-2.3641,-0.8928,-0.9331,-0.9335,-0.9331,-0.9331,-0.9179,-0.9179,-0.9331,-0.9335,-0.9434,-0.9579,-0.9624,-0.9624,-0.9624,-0.9624,-0.9527,-0.9404,-0.9242,-0.9056,-0.8824,-0.871,-0.8629,-0.862,-0.8616,-0.8616,-0.8616,-0.8616,-0.8616,-0.8616,-0.8616,-0.8616,-0.8616,-0.8616,-0.8616,-0.8652,-0.8911,-0.9087,-0.9126,-0.9432,-0.9559,-0.9625,-0.9327,-0.9388,-0.9642,-0.9622,-0.9559,-0.9559,-0.9559,-0.9428,-0.9087,-0.9087,-0.8911,-0.8656,-0.8616,-0.8616,-0.8616,-0.8616,-0.8616,-0.8616,-0.8616,-0.8616,-0.8616,-0.8616,-0.8624,-0.8656,-0.8823,-0.934,-1.0284,-1.1235,-1.2522,-1.3795,-1.4524,-1.495,-1.5305,-1.5389,-1.5389,-1.5389,-1.5389,-1.5389,-1.5389,-1.5389,-1.5389,-1.5389,-1.5389,-1.5465,-1.565,-1.5849,-1.6211,-1.6699,-1.6967,-1.747,-1.8437,-1.8798,-1.9041,-1.9832,-1.9419,-1.9252,-1.9407,-1.9638,-1.9889,-2.0161,-2.0476,-2.0693,-2.0807,-2.0903,-2.1094,-2.1138,-2.1443,-2.1608,-2.1765,-2.2218,-2.2567,-2.3313,-2.3241,-2.3509,-0.8829,-0.8931,-0.9034,-0.9084,-0.9034,-0.8878,-0.8928,-0.9084,-0.9084,-0.9179,-0.9327,-0.9327,-0.9327,-0.9327,-0.9426,-0.9384,-0.93,-0.9126,-0.8995,-0.8816,-0.869,-0.8616,-0.8616,-0.8616,-0.8616,-0.8616,-0.8616,-0.8616,-0.8616,-0.8616,-0.8616,-0.8616,-0.8616,-0.8616,-0.8616,-0.8616,-0.8616,-0.8616,-0.8616,-0.8637,-0.8653,-0.8759,-0.8852,-0.8885,-0.8796,-0.8788,-0.8784,-0.8784,-0.8735,-0.8739,-0.8784,-0.8739,-0.8788,-0.8739,-0.8739,-0.8784,-0.8788,-0.8739,-0.8784,-0.878,-0.8743,-0.8788,-0.8788,-0.8739,-0.878,-0.8955,-0.9407,-1.0104,-1.1086,-1.2247,-1.3215,-1.3964,-1.4615,-1.5222,-1.5389,-1.5389,-1.5389,-1.5389,-1.5389,-1.5389,-1.5389,-1.5389,-1.5389,-1.5389,-1.5465,-1.5624,-1.5831,-1.6121,-1.6492,-1.6845,-1.7525,-1.8568,-1.8832,-1.9359,-1.9965,-1.9903,-1.9696,-1.9812,-1.9868,-1.9965,-1.9961,-2.0259,-2.0402,-2.0541,-2.0711,-2.0914,-2.119,-2.1463,-2.1608,-2.1702,-2.1765,-2.2013,-2.258,-2.3017,-2.3288,-0.8627,-0.8482,-0.868,-0.8825,-0.8775,-0.8726,-0.8775,-0.8775,-0.8775,-0.8825,-0.8874,-0.8825,-0.8878,-0.8878,-0.9084,-0.9143,-0.9087,-0.9064,-0.8981,-0.8799,-0.8686,-0.8661,-0.8661,-0.8673,-0.8673,-0.8665,-0.8633,-0.8629,-0.8661,-0.8653,-0.8641,-0.8629,-0.8641,-0.8633,-0.8616,-0.8584,-0.8629,-0.8641,-0.8657,-0.8678,-0.88,-0.8857,-0.8946,-0.908,-0.9096,-0.91,-0.91,-0.9076,-0.9051,-0.906,-0.9068,-0.9084,-0.9051,-0.9051,-0.9072,-0.9051,-0.9072,-0.908,-0.9072,-0.9056,-0.9035,-0.9039,-0.9068,-0.9035,-0.9069,-0.9221,-0.9434,-0.984,-1.0736,-1.1778,-1.2771,-1.3714,-1.4552,-1.5215,-1.5389,-1.5389,-1.5389,-1.5389,-1.5389,-1.5389,-1.5389,-1.5389,-1.5389,-1.5389,-1.5431,-1.5465,-1.5582,-1.5824,-1.6079,-1.6368,-1.7073,-1.8126,-1.8674,-1.9069,-1.9755,-2.037,-2.037,-2.0385,-2.0396,-2.0425,-2.0247,-2.0334,-2.0344,-2.0446,-2.053,-2.0744,-2.0935,-2.121,-2.1285,-2.138,-2.1431,-2.16,-2.2075,-2.2537,-2.2854,-0.8482,-0.8382,-0.8478,-0.8528,-0.8478,-0.8333,-0.8333,-0.8531,-0.8528,-0.8627,-0.8775,-0.8775,-0.8775,-0.8825,-0.8878,-0.9,-0.9139,-0.9072,-0.904,-0.8981,-0.8954,-0.8917,-0.8922,-0.8926,-0.8934,-0.8909,-0.88,-0.8808,-0.8881,-0.88,-0.8739,-0.8743,-0.8743,-0.8678,-0.8641,-0.8678,-0.8739,-0.8755,-0.8873,-0.8962,-0.9023,-0.9129,-0.9265,-0.9326,-0.9393,-0.9462,-0.9453,-0.923,-0.9104,-0.9104,-0.9096,-0.9096,-0.91,-0.9096,-0.9096,-0.9096,-0.9096,-0.9096,-0.9096,-0.91,-0.9108,-0.91,-0.91,-0.9096,-0.9096,-0.9155,-0.9541,-1.0191,-1.1182,-1.221,-1.3324,-1.4306,-1.4986,-1.5369,-1.5389,-1.5389,-1.5389,-1.5389,-1.5389,-1.5389,-1.5389,-1.5389,-1.5389,-1.5389,-1.5389,-1.5389,-1.5465,-1.559,-1.579,-1.6038,-1.6706,-1.7914,-1.8237,-1.8725,-1.9592,-2.0247,-2.0454,-2.0602,-2.0731,-2.0704,-2.0554,-2.0428,-2.0392,-2.0374,-2.0457,-2.0619,-2.0801,-2.1028,-2.1204,-2.1229,-2.1389,-2.1596,-2.1839,-2.2125,-2.2476,-0.8233,-0.8233,-0.8233,-0.8237,-0.8237,-0.8041,-0.8088,-0.8237,-0.8237,-0.8333,-0.8482,-0.8478,-0.8531,-0.8531,-0.8627,-0.8733,-0.8871,-0.8916,-0.8962,-0.8985,-0.9086,-0.9049,-0.8995,-0.8948,-0.8999,-0.908,-0.8978,-0.8982,-0.9088,-0.8982,-0.8922,-0.8922,-0.8922,-0.8877,-0.8775,-0.8865,-0.8876,-0.8946,-0.9031,-0.9129,-0.9202,-0.9343,-0.9437,-0.9458,-0.9567,-0.962,-0.9612,-0.9409,-0.9295,-0.9295,-0.9295,-0.9295,-0.9295,-0.9303,-0.9295,-0.9295,-0.9299,-0.9299,-0.9295,-0.9315,-0.9295,-0.9295,-0.9291,-0.9295,-0.9295,-0.9295,-0.9694,-1.0641,-1.1549,-1.2649,-1.3818,-1.4832,-1.5453,-1.5761,-1.5562,-1.5411,-1.5389,-1.5389,-1.5389,-1.5389,-1.5389,-1.5389,-1.5389,-1.5389,-1.5389,-1.5389,-1.5389,-1.5431,-1.5582,-1.5714,-1.6558,-1.7269,-1.7705,-1.843,-1.9434,-2.0051,-2.0498,-2.0733,-2.0965,-2.0931,-2.0824,-2.0704,-2.0638,-2.0607,-2.0625,-2.0885,-2.1086,-2.1374,-2.1597,-2.1502,-2.1472,-2.1675,-2.192,-2.1898,-2.2149,-0.7988,-0.7988,-0.8038,-0.8038,-0.8038,-0.7988,-0.7988,-0.8038,-0.8038,-0.8038,-0.8038,-0.8088,-0.8041,-0.8088,-0.8283,-0.8435,-0.8428,-0.8665,-0.8795,-0.886,-0.898,-0.8985,-0.8843,-0.8804,-0.895,-0.9122,-0.9129,-0.9133,-0.9185,-0.9133,-0.9108,-0.9112,-0.9108,-0.9096,-0.906,-0.9096,-0.9108,-0.9112,-0.9141,-0.9238,-0.9412,-0.9429,-0.9498,-0.9604,-0.9616,-0.9624,-0.962,-0.9538,-0.9592,-0.9616,-0.953,-0.9571,-0.9608,-0.9575,-0.9587,-0.953,-0.9562,-0.9592,-0.9608,-0.9567,-0.9526,-0.9567,-0.9567,-0.9624,-0.9575,-0.9551,-1.0034,-1.1048,-1.1884,-1.2903,-1.4204,-1.5143,-1.5798,-1.6155,-1.579,-1.5498,-1.5425,-1.5418,-1.5389,-1.5389,-1.5389,-1.5389,-1.5389,-1.5389,-1.5389,-1.5389,-1.5389,-1.5431,-1.5431,-1.5631,-1.594,-1.6501,-1.7066,-1.7674,-1.8559,-1.9195,-1.9678,-2.0372,-2.0801,-2.1094,-2.1071,-2.099,-2.0767,-2.0723,-2.0791,-2.1047,-2.1277,-2.1483,-2.1766,-2.1857,-2.1845,-2.1931,-2.1957,-2.204,-2.2103,-0.8187,-0.8038,-0.8184,-0.8184,-0.7988,-0.7988,-0.7988,-0.7988,-0.7988,-0.7988,-0.7988,-0.7988,-0.7988,-0.7988,-0.8088,-0.8187,-0.8382,-0.8478,-0.8627,-0.8814,-0.8849,-0.8999,-0.9047,-0.9043,-0.9186,-0.9409,-0.9344,-0.9356,-0.947,-0.9344,-0.9339,-0.9335,-0.9335,-0.9222,-0.9133,-0.923,-0.9326,-0.9307,-0.9429,-0.949,-0.9535,-0.9547,-0.9575,-0.9616,-0.9624,-0.9624,-0.9624,-0.9624,-0.9624,-0.9624,-0.9624,-0.9624,-0.9624,-0.9624,-0.9624,-0.9624,-0.9624,-0.9624,-0.9624,-0.9624,-0.9624,-0.9624,-0.9624,-0.9624,-0.9624,-0.9624,-1.0476,-1.1724,-1.2534,-1.3347,-1.4916,-1.5552,-1.5781,-1.5791,-1.5792,-1.5668,-1.5511,-1.5443,-1.5389,-1.5389,-1.5389,-1.5389,-1.5389,-1.5389,-1.5389,-1.5389,-1.5389,-1.5389,-1.5389,-1.5431,-1.5699,-1.5997,-1.6484,-1.6886,-1.7489,-1.8175,-1.8935,-1.9766,-2.045,-2.1209,-2.1241,-2.1269,-2.0897,-2.0636,-2.0761,-2.0977,-2.1096,-2.1226,-2.1605,-2.2118,-2.2068,-2.2048,-2.2241,-2.2374,-2.2372,-0.8333,-0.8038,-0.8287,-0.8237,-0.7988,-0.7988,-0.7988,-0.7988,-0.7988,-0.7988,-0.7988,-0.7988,-0.7988,-0.7988,-0.7988,-0.8084,-0.8237,-0.8233,-0.8333,-0.8432,-0.8471,-0.8669,-0.8924,-0.9031,-0.9179,-0.9422,-0.9474,-0.9535,-0.9592,-0.9514,-0.9478,-0.947,-0.947,-0.9413,-0.9356,-0.9409,-0.9466,-0.9486,-0.9579,-0.9624,-0.9624,-0.9624,-0.9624,-0.9624,-0.9624,-0.9624,-0.9624,-0.9624,-0.9624,-0.9624,-0.9624,-0.9624,-0.9624,-0.9624,-0.9624,-0.9624,-0.9624,-0.9624,-0.9624,-0.9624,-0.9624,-0.9624,-0.9624,-0.9624,-0.9723,-0.9965,-1.1082,-1.2382,-1.3022,-1.4201,-1.5491,-1.6004,-1.6008,-1.5954,-1.5918,-1.5848,-1.5562,-1.5575,-1.5528,-1.544,-1.5389,-1.5389,-1.5396,-1.5396,-1.5389,-1.5389,-1.5389,-1.5389,-1.5389,-1.5431,-1.5465,-1.5756,-1.5971,-1.6335,-1.668,-1.7294,-1.8164,-1.9038,-2.0118,-2.0905,-2.1179,-2.1278,-2.1259,-2.0975,-2.0912,-2.0948,-2.1201,-2.1488,-2.1933,-2.2266,-2.2182,-2.2205,-2.2358,-2.2454,-2.2512,-0.828,-0.7988,-0.818,-0.8134,-0.7988,-0.7988,-0.7988,-0.7988,-0.7988,-0.7988,-0.7988,-0.7988,-0.7988,-0.7988,-0.7988,-0.7988,-0.8038,-0.8038,-0.8038,-0.8088,-0.8088,-0.8287,-0.863,-0.8829,-0.9027,-0.9327,-0.9529,-0.9571,-0.962,-0.9612,-0.9616,-0.96,-0.9608,-0.962,-0.9567,-0.9604,-0.962,-0.9604,-0.9612,-0.9624,-0.9624,-0.9624,-0.9624,-0.9624,-0.9624,-0.9624,-0.9624,-0.9624,-0.9624,-0.9624,-0.9624,-0.9624,-0.9624,-0.9624,-0.9624,-0.9624,-0.9624,-0.9624,-0.9624,-0.9624,-0.9624,-0.9624,-0.9624,-0.9624,-0.9772,-1.0449,-1.1517,-1.2587,-1.3661,-1.4711,-1.5798,-1.6332,-1.6304,-1.6128,-1.6088,-1.5948,-1.5732,-1.5763,-1.5805,-1.5577,-1.5533,-1.544,-1.5433,-1.5411,-1.5389,-1.5389,-1.5389,-1.5389,-1.5389,-1.5431,-1.5431,-1.5472,-1.5646,-1.582,-1.6091,-1.6412,-1.7376,-1.8313,-1.9636,-2.0498,-2.0846,-2.107,-2.1429,-2.1483,-2.1343,-2.1412,-2.1711,-2.2035,-2.2264,-2.2339,-2.2269,-2.2255,-2.231,-2.2383,-2.2437,-0.6781,-0.7939,-0.7378,-0.7481,-0.7939,-0.7988,-0.7988,-0.7988,-0.7988,-0.7988,-0.7988,-0.7988,-0.7988,-0.7988,-0.7988,-0.7988,-0.7988,-0.7988,-0.7988,-0.7988,-0.7988,-0.8038,-0.8283,-0.8577,-0.9027,-0.9377,-0.9525,-0.9575,-0.9624,-0.9624,-0.9624,-0.9624,-0.9624,-0.9624,-0.9624,-0.9624,-0.9624,-0.9624,-0.9624,-0.9624,-0.9624,-0.9624,-0.9624,-0.9624,-0.9624,-0.9624,-0.9624,-0.9624,-0.9624,-0.9624,-0.9624,-0.9624,-0.9624,-0.9624,-0.9624,-0.9624,-0.9624,-0.9624,-0.9624,-0.9624,-0.9624,-0.9624,-0.9624,-0.9624,-0.9673,-1.0654,-1.1673,-1.2635,-1.3661,-1.4881,-1.577,-1.6137,-1.6137,-1.6062,-1.6176,-1.6276,-1.6077,-1.5981,-1.6016,-1.6075,-1.5935,-1.5768,-1.5804,-1.5549,-1.5484,-1.5418,-1.546,-1.5411,-1.5482,-1.5526,-1.557,-1.5643,-1.5678,-1.5898,-1.6149,-1.6469,-1.7177,-1.7888,-1.903,-1.9948,-2.0342,-2.0759,-2.1064,-2.139,-2.1704,-2.1825,-2.1835,-2.1911,-2.2,-2.214,-2.2269,-2.2275,-2.2268,-2.2345,-2.2342,-0.6581,-0.7235,-0.7481,-0.7736,-0.7988,-0.7988,-0.7988,-0.7988,-0.7988,-0.7988,-0.7988,-0.7988,-0.7988,-0.7988,-0.7988,-0.7988,-0.7988,-0.7988,-0.7988,-0.7988,-0.7988,-0.8088,-0.8237,-0.8581,-0.8973,-0.9274,-0.9525,-0.9575,-0.9624,-0.9624,-0.9624,-0.9624,-0.9624,-0.9624,-0.9624,-0.9624,-0.9624,-0.9624,-0.9624,-0.9624,-0.9624,-0.9624,-0.9624,-0.9624,-0.9624,-0.9624,-0.9624,-0.9624,-0.9624,-0.9624,-0.9624,-0.9624,-0.9624,-0.9624,-0.9624,-0.9624,-0.9624,-0.9624,-0.9624,-0.9624,-0.9624,-0.9624,-0.9624,-0.9681,-1.0162,-1.1123,-1.2321,-1.3182,-1.4408,-1.567,-1.6011,-1.6142,-1.6101,-1.5899,-1.6069,-1.6176,-1.6151,-1.6215,-1.626,-1.6359,-1.6257,-1.6148,-1.6045,-1.5884,-1.5877,-1.5921,-1.5943,-1.5935,-1.5965,-1.5994,-1.5965,-1.5987,-1.5943,-1.6058,-1.6299,-1.6682,-1.7192,-1.779,-1.8437,-1.9177,-1.9663,-2.0153,-2.0634,-2.1039,-2.1395,-2.1634,-2.1645,-2.1721,-2.1807,-2.1928,-2.2069,-2.2176,-2.2172,-2.2099,-2.2152,-0.6512,-0.6487,-0.7683,-0.8084,-0.8038,-0.8038,-0.8038,-0.7988,-0.7988,-0.7988,-0.7988,-0.7988,-0.7988,-0.7988,-0.7988,-0.7988,-0.7988,-0.7988,-0.7988,-0.7988,-0.7988,-0.8088,-0.8287,-0.8531,-0.8775,-0.8874,-0.9327,-0.9579,-0.9624,-0.9624,-0.9624,-0.9624,-0.9624,-0.9624,-0.9624,-0.9624,-0.9624,-0.9624,-0.9624,-0.9624,-0.9624,-0.9624,-0.9624,-0.9624,-0.9624,-0.9624,-0.9624,-0.9624,-0.9624,-0.9624,-0.9624,-0.9624,-0.9624,-0.9624,-0.9624,-0.9624,-0.9624,-0.9624,-0.9624,-0.9624,-0.9624,-0.9624,-0.9624,-0.9685,-1.0229,-1.1586,-1.2736,-1.3757,-1.4849,-1.6261,-1.6335,-1.6194,-1.6066,-1.5952,-1.5879,-1.5933,-1.6177,-1.6404,-1.6478,-1.6555,-1.6535,-1.6507,-1.6448,-1.6345,-1.6389,-1.6374,-1.6382,-1.6433,-1.6396,-1.6411,-1.6294,-1.6228,-1.6162,-1.6279,-1.6529,-1.6625,-1.7192,-1.7478,-1.7996,-1.8313,-1.8839,-1.9215,-1.9687,-2.0605,-2.1021,-2.1272,-2.155,-2.1731,-2.1807,-2.1807,-2.1845,-2.1959,-2.1921,-2.1807,-2.1991,-0.486,-0.6437,-0.6883,-0.7434,-0.7988,-0.8233,-0.818,-0.8038,-0.7988,-0.7988,-0.7988,-0.7988,-0.7988,-0.7988,-0.7988,-0.7988,-0.7988,-0.7988,-0.7988,-0.7988,-0.7988,-0.8038,-0.8137,-0.8382,-0.8577,-0.8878,-0.9278,-0.9579,-0.9624,-0.9624,-0.9624,-0.9624,-0.9624,-0.9624,-0.9624,-0.9624,-0.9624,-0.9624,-0.9624,-0.9624,-0.9624,-0.9624,-0.9624,-0.9624,-0.9624,-0.9624,-0.9624,-0.9624,-0.9624,-0.9624,-0.9628,-0.9632,-0.9644,-0.9644,-0.964,-0.9624,-0.9624,-0.9624,-0.9624,-0.9624,-0.9624,-0.9624,-0.9624,-0.9632,-1.0169,-1.1555,-1.2882,-1.3673,-1.4844,-1.6092,-1.6308,-1.6119,-1.6059,-1.6052,-1.5972,-1.5933,-1.6157,-1.6432,-1.6642,-1.6778,-1.6817,-1.6815,-1.6771,-1.6712,-1.663,-1.6623,-1.6608,-1.6594,-1.6587,-1.6573,-1.6492,-1.6433,-1.6375,-1.6565,-1.6763,-1.68,-1.7033,-1.7094,-1.7372,-1.7399,-1.7797,-1.8099,-1.8676,-1.9679,-2.0566,-2.1082,-2.1371,-2.1668,-2.188,-2.1932,-2.188,-2.1838,-2.2025,-2.218,-2.2045,-0.4718,-0.5893,-0.7033,-0.7865,-0.8358,-0.8347,-0.8266,-0.8184,-0.8088,-0.7988,-0.7988,-0.7988,-0.7988,-0.7988,-0.7988,-0.7988,-0.7988,-0.7988,-0.7988,-0.7988,-0.7988,-0.7988,-0.8038,-0.8283,-0.8531,-0.8829,-0.9179,-0.948,-0.9575,-0.9624,-0.9628,-0.9624,-0.9624,-0.9624,-0.9624,-0.9624,-0.9624,-0.9624,-0.9624,-0.9624,-0.9624,-0.9624,-0.9624,-0.9624,-0.9624,-0.9624,-0.9624,-0.9624,-0.9624,-0.9644,-0.9713,-0.975,-0.9762,-0.9754,-0.9721,-0.9657,-0.9632,-0.9628,-0.9628,-0.9624,-0.9624,-0.9624,-0.9624,-0.9975,-1.0717,-1.2053,-1.3379,-1.4624,-1.5275,-1.6266,-1.6279,-1.6119,-1.6079,-1.6005,-1.5905,-1.5947,-1.617,-1.6447,-1.669,-1.6979,-1.7015,-1.7031,-1.7091,-1.7011,-1.6916,-1.6872,-1.685,-1.6821,-1.6799,-1.6769,-1.6726,-1.6748,-1.674,-1.6821,-1.6989,-1.7004,-1.7026,-1.7059,-1.7016,-1.7056,-1.7167,-1.758,-1.8146,-1.8869,-1.9729,-2.0609,-2.1271,-2.1602,-2.1835,-2.2059,-2.217,-2.2273,-2.2459,-2.2532,-2.2418,-0.4695,-0.5296,-0.7138,-0.8225,-0.8604,-0.8445,-0.8324,-0.828,-0.8077,-0.7988,-0.7988,-0.7988,-0.7988,-0.7988,-0.7988,-0.7988,-0.7988,-0.7988,-0.7988,-0.7988,-0.7988,-0.7988,-0.8038,-0.8233,-0.8482,-0.8829,-0.8977,-0.9278,-0.9529,-0.9529,-0.9529,-0.9579,-0.9579,-0.9579,-0.9579,-0.9628,-0.9624,-0.9624,-0.9624,-0.9624,-0.9624,-0.9624,-0.9624,-0.9624,-0.9624,-0.9624,-0.9624,-0.9624,-0.9661,-0.9713,-0.9799,-0.9896,-0.9929,-0.9937,-0.9872,-0.9754,-0.9627,-0.9644,-0.9673,-0.9628,-0.9723,-1.0064,-0.9969,-1.0587,-1.1538,-1.2805,-1.4231,-1.6021,-1.6466,-1.6413,-1.6273,-1.6254,-1.6106,-1.6012,-1.5905,-1.5927,-1.617,-1.6454,-1.6737,-1.6972,-1.7153,-1.7257,-1.7206,-1.7238,-1.7113,-1.7106,-1.7091,-1.7106,-1.7091,-1.7143,-1.7135,-1.7194,-1.7208,-1.7208,-1.7245,-1.7223,-1.7223,-1.7186,-1.7152,-1.7119,-1.7152,-1.7304,-1.7892,-1.8458,-1.9093,-1.9969,-2.0754,-2.1451,-2.1659,-2.1927,-2.2355,-2.2687,-2.2811,-2.2904,-2.2873,-0.3937,-0.5047,-0.647,-0.7527,-0.8332,-0.8486,-0.8404,-0.8209,-0.8089,-0.7988,-0.7988,-0.7988,-0.7988,-0.8038,-0.7988,-0.7988,-0.7988,-0.7988,-0.7988,-0.7988,-0.7988,-0.7988,-0.7988,-0.7988,-0.8333,-0.8676,-0.8829,-0.913,-0.943,-0.9385,-0.9381,-0.948,-0.9381,-0.9385,-0.9579,-0.9624,-0.9624,-0.9624,-0.9624,-0.9624,-0.9624,-0.9624,-0.9624,-0.9624,-0.964,-0.9648,-0.9665,-0.9681,-0.9734,-0.9851,-0.988,-0.9977,-1.0091,-1.0184,-1.018,-1.0061,-0.9855,-0.9697,-0.9786,-0.985,-1.0109,-1.0641,-1.0935,-1.158,-1.251,-1.3548,-1.4739,-1.5667,-1.5924,-1.6079,-1.6152,-1.6039,-1.6025,-1.6012,-1.5939,-1.596,-1.617,-1.6447,-1.6737,-1.6972,-1.7153,-1.7239,-1.7257,-1.7271,-1.7271,-1.7279,-1.7286,-1.7286,-1.7286,-1.7286,-1.7286,-1.7286,-1.7286,-1.7286,-1.7286,-1.7286,-1.7286,-1.7286,-1.7274,-1.7201,-1.722,-1.7338,-1.7627,-1.819,-1.8713,-1.9109,-1.9689,-2.0397,-2.1182,-2.1888,-2.2453,-2.2818,-2.3122,-2.3215,-2.337,-0.3716,-0.5034,-0.6666,-0.7741,-0.8297,-0.8281,-0.8221,-0.8184,-0.8076,-0.7988,-0.7988,-0.7988,-0.8088,-0.8137,-0.8088,-0.8088,-0.8187,-0.8088,-0.7988,-0.7988,-0.7988,-0.7988,-0.7988,-0.8038,-0.8233,-0.8528,-0.8726,-0.8977,-0.9229,-0.9282,-0.9282,-0.9331,-0.9282,-0.9331,-0.9575,-0.9624,-0.9624,-0.9624,-0.9624,-0.9624,-0.9624,-0.9624,-0.9628,-0.9632,-0.9721,-0.9758,-0.9791,-0.9892,-0.9949,-1.0114,-1.0123,-1.0225,-1.0294,-1.0327,-1.0347,-1.0486,-1.018,-0.9941,-0.9922,-1.027,-1.0789,-1.1233,-1.177,-1.2543,-1.3511,-1.4502,-1.5226,-1.5737,-1.5832,-1.5919,-1.6019,-1.5905,-1.5919,-1.5932,-1.5932,-1.6035,-1.617,-1.6447,-1.673,-1.6965,-1.7153,-1.7192,-1.7239,-1.7239,-1.7286,-1.7286,-1.7286,-1.7286,-1.7286,-1.7286,-1.7286,-1.7286,-1.7286,-1.7286,-1.7286,-1.7286,-1.7286,-1.7286,-1.7286,-1.7282,-1.7304,-1.7451,-1.7621,-1.7621,-1.7873,-1.824,-1.8677,-1.974,-2.0917,-2.1758,-2.2589,-2.2875,-2.3214,-2.3867,-2.4001,-0.3836,-0.4888,-0.662,-0.7692,-0.8229,-0.8023,-0.799,-0.8113,-0.8062,-0.7988,-0.7988,-0.7988,-0.8088,-0.8237,-0.8088,-0.8088,-0.8287,-0.8088,-0.8038,-0.7988,-0.7988,-0.7988,-0.7988,-0.8038,-0.8137,-0.8382,-0.8577,-0.8779,-0.8931,-0.908,-0.913,-0.9282,-0.913,-0.9327,-0.9525,-0.9624,-0.9624,-0.9624,-0.9624,-0.9624,-0.9624,-0.9624,-0.9611,-0.9717,-0.9807,-0.9904,-0.9969,-1.011,-1.0192,-1.0253,-1.0331,-1.0408,-1.0481,-1.0505,-1.0542,-1.0566,-1.0347,-1.0433,-1.0664,-1.107,-1.1458,-1.2068,-1.2997,-1.4258,-1.4826,-1.566,-1.6052,-1.6119,-1.6119,-1.6099,-1.5991,-1.6032,-1.5999,-1.5979,-1.5858,-1.6014,-1.6137,-1.6387,-1.6562,-1.6777,-1.6918,-1.7012,-1.7052,-1.7145,-1.7239,-1.7286,-1.7286,-1.7286,-1.7286,-1.7286,-1.7286,-1.7286,-1.7286,-1.7286,-1.7286,-1.7286,-1.7286,-1.7286,-1.7286,-1.7286,-1.7333,-1.7333,-1.738,-1.7333,-1.7286,-1.7503,-1.8018,-1.9372,-2.0634,-2.0964,-2.148,-2.2619,-2.3308,-2.392,-2.4305,-0.4247,-0.4431,-0.5727,-0.69,-0.793,-0.7894,-0.7879,-0.7939,-0.7965,-0.7978,-0.7988,-0.7988,-0.8038,-0.8038,-0.8038,-0.8038,-0.8038,-0.7988,-0.7988,-0.7988,-0.7988,-0.7988,-0.7988,-0.8038,-0.8084,-0.8333,-0.8478,-0.8482,-0.8535,-0.8779,-0.908,-0.943,-0.913,-0.9274,-0.9476,-0.9624,-0.9624,-0.9636,-0.9648,-0.9595,-0.9648,-0.9669,-0.9734,-0.9835,-0.9888,-1.0016,-1.0132,-1.0249,-1.0274,-1.0408,-1.0452,-1.0521,-1.0607,-1.0631,-1.0664,-1.0627,-1.08,-1.1026,-1.1563,-1.1911,-1.2408,-1.3525,-1.4817,-1.5911,-1.6084,-1.6388,-1.662,-1.654,-1.6473,-1.6526,-1.6486,-1.6433,-1.6266,-1.6206,-1.6126,-1.6115,-1.6225,-1.6259,-1.6476,-1.6609,-1.6725,-1.6897,-1.7044,-1.7189,-1.7077,-1.7102,-1.7246,-1.7246,-1.7286,-1.7286,-1.7286,-1.7286,-1.7286,-1.7286,-1.7286,-1.7286,-1.7286,-1.7286,-1.7286,-1.7286,-1.7286,-1.7286,-1.7286,-1.7286,-1.7333,-1.7304,-1.7414,-1.8526,-1.936,-1.9637,-2.0351,-2.1669,-2.2494,-2.2945,-2.342,-0.5184,-0.527,-0.6293,-0.7003,-0.7422,-0.7549,-0.7648,-0.7712,-0.7811,-0.7911,-0.7988,-0.7988,-0.8088,-0.8137,-0.8088,-0.8088,-0.8187,-0.8041,-0.8038,-0.7988,-0.7988,-0.7988,-0.7988,-0.7988,-0.8038,-0.8187,-0.8287,-0.8382,-0.8432,-0.8531,-0.8882,-0.9133,-0.913,-0.9327,-0.9525,-0.9628,-0.9632,-0.9669,-0.9717,-0.9746,-0.9631,-0.986,-0.9937,-0.9876,-1.016,-1.0233,-1.0339,-1.0444,-1.0517,-1.0566,-1.0582,-1.0631,-1.0672,-1.0688,-1.0747,-1.0907,-1.1196,-1.1868,-1.2384,-1.2798,-1.355,-1.5172,-1.6236,-1.6727,-1.6774,-1.6727,-1.6714,-1.6693,-1.674,-1.6787,-1.668,-1.6607,-1.6533,-1.6506,-1.6406,-1.6301,-1.6311,-1.636,-1.645,-1.6649,-1.6828,-1.7036,-1.7141,-1.7288,-1.711,-1.6964,-1.7055,-1.7174,-1.7327,-1.7381,-1.7457,-1.7381,-1.7421,-1.7301,-1.7293,-1.7293,-1.7286,-1.7286,-1.7286,-1.7286,-1.7286,-1.7286,-1.7286,-1.7286,-1.7286,-1.7318,-1.7451,-1.7684,-1.821,-1.8771,-1.9729,-2.0882,-2.1525,-2.1933,-2.234,-0.5722,-0.5808,-0.6697,-0.7095,-0.7115,-0.7305,-0.7431,-0.7553,-0.7736,-0.7896,-0.7988,-0.7988,-0.8088,-0.8187,-0.8137,-0.8088,-0.8134,-0.8088,-0.8038,-0.7988,-0.7988,-0.7988,-0.7988,-0.7988,-0.7988,-0.8041,-0.8137,-0.8283,-0.8237,-0.8382,-0.8684,-0.8985,-0.9187,-0.9331,-0.9525,-0.9628,-0.9648,-0.9734,-0.9791,-0.9888,-0.9827,-1.0002,-1.0168,-1.0079,-1.0298,-1.0432,-1.0505,-1.059,-1.0643,-1.0668,-1.0676,-1.0684,-1.0692,-1.0747,-1.0907,-1.1341,-1.1932,-1.263,-1.3398,-1.3942,-1.5003,-1.6465,-1.6868,-1.7014,-1.6967,-1.6967,-1.7054,-1.7027,-1.7001,-1.6961,-1.6934,-1.6921,-1.6854,-1.6864,-1.6647,-1.6549,-1.6496,-1.6554,-1.6603,-1.6708,-1.684,-1.6952,-1.6993,-1.7132,-1.7295,-1.7272,-1.7589,-1.7712,-1.7753,-1.7772,-1.7691,-1.7633,-1.7545,-1.745,-1.7355,-1.733,-1.7337,-1.7286,-1.7286,-1.7286,-1.7286,-1.7315,-1.7308,-1.7286,-1.7286,-1.7286,-1.7387,-1.7574,-1.7839,-1.818,-1.9109,-2.0039,-2.0314,-2.0719,-2.1042,-0.5719,-0.5808,-0.6697,-0.7095,-0.7112,-0.7305,-0.7419,-0.7484,-0.7689,-0.7847,-0.7982,-0.7988,-0.8088,-0.8137,-0.8287,-0.8333,-0.8283,-0.8237,-0.8088,-0.8038,-0.7988,-0.7988,-0.7988,-0.7988,-0.7988,-0.7988,-0.8038,-0.8088,-0.8041,-0.8233,-0.8531,-0.8893,-0.9157,-0.942,-0.9587,-0.9632,-0.9717,-0.986,-0.99,-1.001,-1.0075,-1.0224,-1.029,-1.0335,-1.0424,-1.0538,-1.0623,-1.066,-1.0692,-1.0692,-1.0692,-1.0692,-1.0692,-1.0692,-1.1177,-1.215,-1.2363,-1.3545,-1.547,-1.5719,-1.6411,-1.7213,-1.7361,-1.7402,-1.7495,-1.7515,-1.7448,-1.7348,-1.7428,-1.7475,-1.7428,-1.736,-1.7246,-1.7146,-1.6934,-1.6807,-1.6811,-1.675,-1.6807,-1.6857,-1.675,-1.675,-1.6764,-1.6891,-1.7332,-1.7626,-1.8051,-1.8156,-1.8069,-1.803,-1.7865,-1.7904,-1.7801,-1.775,-1.7655,-1.7439,-1.7374,-1.7323,-1.7388,-1.7545,-1.7552,-1.7582,-1.753,-1.7366,-1.7447,-1.764,-1.7516,-1.7377,-1.7784,-1.814,-1.8365,-1.9006,-1.9234,-1.952,-1.9874,-0.6605,-0.6653,-0.6962,-0.7095,-0.7102,-0.7149,-0.7272,-0.7414,-0.7675,-0.7847,-0.7968,-0.7988,-0.8478,-0.8874,-0.9069,-0.9019,-0.9019,-0.9023,-0.8874,-0.8038,-0.7988,-0.7988,-0.7988,-0.8038,-0.7988,-0.7988,-0.7988,-0.8038,-0.7988,-0.8137,-0.8432,-0.879,-0.9576,-0.9698,-0.9799,-0.9811,-0.9888,-1.0063,-1.0168,-1.0241,-1.0257,-1.0371,-1.0481,-1.0456,-1.0542,-1.0627,-1.0684,-1.0692,-1.0692,-1.0692,-1.0692,-1.0692,-1.0747,-1.0743,-1.1341,-1.2417,-1.295,-1.462,-1.6287,-1.7028,-1.714,-1.7477,-1.7589,-1.7589,-1.7589,-1.7589,-1.7582,-1.7589,-1.7589,-1.7589,-1.7528,-1.7502,-1.7487,-1.7435,-1.7315,-1.7188,-1.7159,-1.7092,-1.7058,-1.7058,-1.7052,-1.7114,-1.7168,-1.7152,-1.7459,-1.7544,-1.7806,-1.801,-1.7953,-1.7987,-1.795,-1.8083,-1.813,-1.8079,-1.7943,-1.7734,-1.7753,-1.783,-1.7918,-1.8043,-1.8006,-1.786,-1.7896,-1.7882,-1.7925,-1.7969,-1.786,-1.7808,-1.7933,-1.8156,-1.8399,-1.8482,-1.8718,-1.8762,-1.8789,-0.7095,-0.7095,-0.7095,-0.7095,-0.7095,-0.7095,-0.7227,-0.74,-0.7631,-0.7821,-0.7992,-0.835,-0.8871,-0.9558,-0.9953,-0.9805,-0.9657,-0.9558,-0.9019,-0.8137,-0.7988,-0.7988,-0.8038,-0.8088,-0.8187,-0.8137,-0.8137,-0.8137,-0.8134,-0.8038,-0.8667,-0.963,-1.0523,-1.1268,-1.1165,-1.0874,-1.0075,-1.0233,-1.0343,-1.0396,-1.0428,-1.053,-1.0623,-1.059,-1.0619,-1.0692,-1.0692,-1.0692,-1.0692,-1.0692,-1.0692,-1.0692,-1.0743,-1.1177,-1.1769,-1.295,-1.462,-1.5968,-1.7153,-1.7529,-1.7529,-1.7589,-1.7589,-1.7589,-1.7589,-1.7589,-1.7589,-1.7589,-1.7589,-1.7589,-1.7589,-1.7589,-1.7582,-1.7575,-1.7528,-1.7395,-1.7414,-1.734,-1.7326,-1.7326,-1.734,-1.7435,-1.7522,-1.7627,-1.7723,-1.7628,-1.7585,-1.7721,-1.7879,-1.7966,-1.801,-1.8125,-1.8238,-1.8123,-1.8051,-1.7999,-1.8049,-1.8284,-1.8343,-1.8394,-1.8269,-1.8108,-1.8225,-1.8306,-1.8233,-1.8196,-1.824,-1.8269,-1.8299,-1.8335,-1.8405,-1.8432,-1.8321,-1.835,-1.8394,-0.7095,-0.7095,-0.7095,-0.7095,-0.7095,-0.7095,-0.7227,-0.7426,-0.7539,-0.7736,-0.7966,-0.9102,-0.9752,-1.0002,-1.0828,-1.0783,-1.01,-0.9899,-0.9167,-0.8382,-0.8137,-0.8038,-0.8088,-0.8184,-0.8233,-0.8333,-0.8333,-0.8233,-0.8329,-0.8577,-0.9341,-1.0689,-1.1939,-1.2562,-1.2422,-1.1789,-1.0893,-1.0879,-1.0522,-1.0584,-1.0595,-1.0651,-1.0676,-1.066,-1.068,-1.0692,-1.0692,-1.0692,-1.0692,-1.0692,-1.0692,-1.0692,-1.1067,-1.1769,-1.2896,-1.44,-1.6293,-1.71,-1.7529,-1.7589,-1.7589,-1.7595,-1.7635,-1.7609,-1.7589,-1.7589,-1.7589,-1.7589,-1.7589,-1.7589,-1.7589,-1.7589,-1.7589,-1.7582,-1.7582,-1.7549,-1.7549,-1.7528,-1.7528,-1.7522,-1.7515,-1.7569,-1.7569,-1.7687,-1.7747,-1.764,-1.7598,-1.7741,-1.7891,-1.8088,-1.8121,-1.8142,-1.8143,-1.8058,-1.8038,-1.816,-1.834,-1.852,-1.8577,-1.8577,-1.8452,-1.8445,-1.8569,-1.8599,-1.8445,-1.843,-1.8584,-1.8606,-1.8562,-1.8606,-1.8694,-1.8686,-1.8679,-1.8584,-1.8577,-0.7095,-0.7095,-0.7095,-0.7095,-0.7095,-0.7095,-0.7227,-0.7426,-0.7533,-0.8055,-0.8964,-0.938,-1.0337,-1.1804,-1.2139,-1.1999,-1.1609,-1.1028,-1.01,-0.9266,-0.8336,-0.8088,-0.8038,-0.8137,-0.8237,-0.8287,-0.8283,-0.8382,-0.8722,-0.9114,-1.035,-1.1649,-1.2869,-1.3388,-1.3434,-1.2966,-1.2389,-1.1764,-1.1216,-1.0791,-1.0722,-1.0692,-1.0692,-1.0692,-1.0692,-1.0692,-1.0692,-1.0692,-1.0692,-1.0692,-1.0692,-1.0692,-1.0802,-1.1823,-1.3058,-1.5269,-1.667,-1.7589,-1.7589,-1.7589,-1.7609,-1.7682,-1.7789,-1.7742,-1.7675,-1.7642,-1.7655,-1.7702,-1.7716,-1.7742,-1.7695,-1.7669,-1.7629,-1.7589,-1.7589,-1.7589,-1.7589,-1.7589,-1.7589,-1.7589,-1.7589,-1.7589,-1.7589,-1.7641,-1.7641,-1.7641,-1.7641,-1.774,-1.7845,-1.801,-1.814,-1.8092,-1.8095,-1.8004,-1.8288,-1.8442,-1.8619,-1.8729,-1.876,-1.8811,-1.8906,-1.8921,-1.8972,-1.8928,-1.8811,-1.8877,-1.9023,-1.8986,-1.8869,-1.8994,-1.9081,-1.906,-1.9067,-1.8899,-1.8855,-0.7095,-0.7095,-0.7095,-0.7095,-0.7095,-0.7095,-0.72,-0.7309,-0.7509,-0.8073,-0.8787,-0.979,-1.0925,-1.1999,-1.278,-1.3071,-1.249,-1.1512,-1.0538,-0.946,-0.8482,-0.8137,-0.7988,-0.8187,-0.8577,-0.863,-0.873,-0.8874,-0.9653,-1.1028,-1.2311,-1.2948,-1.3737,-1.4313,-1.4609,-1.4482,-1.4088,-1.322,-1.2346,-1.1324,-1.0907,-1.0747,-1.0692,-1.0692,-1.0692,-1.0692,-1.0692,-1.0692,-1.0692,-1.0692,-1.0692,-1.0962,-1.1341,-1.2526,-1.376,-1.5642,-1.6346,-1.7153,-1.7444,-1.7736,-1.7749,-1.7836,-1.8029,-1.809,-1.8056,-1.8036,-1.8023,-1.8029,-1.7983,-1.7929,-1.7842,-1.7756,-1.7675,-1.7595,-1.7589,-1.7589,-1.7589,-1.7589,-1.7589,-1.7589,-1.7589,-1.7589,-1.7589,-1.7589,-1.7589,-1.7589,-1.7589,-1.7641,-1.7687,-1.774,-1.7845,-1.7889,-1.7941,-1.7987,-1.8272,-1.8436,-1.8492,-1.8613,-1.8858,-1.8948,-1.9175,-1.9198,-1.9155,-1.9177,-1.9213,-1.9235,-1.9199,-1.9228,-1.9191,-1.9272,-1.9272,-1.9206,-1.9162,-1.9147,-1.9147,-0.7095,-0.7095,-0.7095,-0.7095,-0.7095,-0.7095,-0.7102,-0.7173,-0.7583,-0.7825,-0.8455,-1.0224,-1.1317,-1.2285,-1.3363,-1.3428,-1.2641,-1.1619,-1.06,-0.955,-0.8482,-0.7988,-0.8088,-0.8386,-0.9023,-0.9316,-0.9513,-0.9657,-1.1604,-1.2587,-1.3202,-1.4366,-1.5346,-1.5904,-1.6029,-1.5667,-1.5237,-1.4754,-1.3639,-1.2526,-1.1341,-1.0907,-1.0802,-1.0692,-1.0692,-1.0692,-1.0692,-1.0692,-1.0692,-1.0692,-1.1017,-1.1446,-1.2526,-1.3652,-1.4835,-1.5595,-1.6293,-1.6882,-1.7497,-1.7816,-1.7902,-1.8049,-1.8323,-1.8444,-1.8444,-1.8323,-1.8283,-1.8277,-1.8237,-1.819,-1.811,-1.8076,-1.8009,-1.7889,-1.7822,-1.7789,-1.7749,-1.7689,-1.7589,-1.7589,-1.7589,-1.7589,-1.7589,-1.7589,-1.7589,-1.7589,-1.7589,-1.7589,-1.7635,-1.7635,-1.7687,-1.7687,-1.7793,-1.7845,-1.7957,-1.8122,-1.8227,-1.8377,-1.8653,-1.881,-1.8855,-1.9011,-1.9279,-1.9279,-1.9272,-1.9272,-1.9264,-1.9272,-1.9272,-1.9272,-1.9272,-1.9272,-1.9272,-1.9272,-1.9272,-0.7095,-0.7095,-0.7095,-0.7095,-0.7095,-0.7095,-0.7095,-0.72,-0.8144,-0.8996,-0.9961,-1.0857,-1.2052,-1.3253,-1.3666,-1.3524,-1.2619,-1.1472,-1.0475,-0.9514,-0.8471,-0.7988,-0.8233,-0.8775,-0.9513,-0.9756,-0.9998,-1.0681,-1.1999,-1.2829,-1.3709,-1.5051,-1.5876,-1.6192,-1.6593,-1.6213,-1.6113,-1.5799,-1.5293,-1.3863,-1.2417,-1.1932,-1.1719,-1.1122,-1.0798,-1.0743,-1.0747,-1.0692,-1.0692,-1.0747,-1.1605,-1.2521,-1.3652,-1.4781,-1.5482,-1.5968,-1.6564,-1.7047,-1.7516,-1.7876,-1.8015,-1.8195,-1.8402,-1.8698,-1.8751,-1.8591,-1.851,-1.8524,-1.851,-1.847,-1.8404,-1.8384,-1.8323,-1.819,-1.8056,-1.7996,-1.7929,-1.7776,-1.7622,-1.7589,-1.7589,-1.7589,-1.7589,-1.7589,-1.7589,-1.7589,-1.7589,-1.7589,-1.7589,-1.7635,-1.7635,-1.7635,-1.7641,-1.7694,-1.7747,-1.7799,-1.7957,-1.8115,-1.8331,-1.8436,-1.8541,-1.875,-1.9018,-1.9227,-1.9272,-1.9227,-1.9227,-1.9272,-1.9272,-1.9272,-1.9272,-1.9272,-1.9272,-1.9272,-1.9272,-0.7095,-0.7095,-0.7095,-0.7095,-0.7095,-0.7095,-0.7095,-0.7299,-0.8278,-0.9446,-1.0562,-1.1397,-1.2432,-1.3688,-1.3738,-1.3338,-1.2464,-1.1359,-1.0363,-0.9421,-0.8605,-0.8134,-0.8428,-0.9114,-1.0047,-1.0538,-1.1994,-1.2915,-1.2872,-1.3746,-1.486,-1.554,-1.5811,-1.6012,-1.6393,-1.6461,-1.6563,-1.6265,-1.6478,-1.5577,-1.3868,-1.3383,-1.263,-1.1823,-1.1446,-1.1286,-1.0747,-1.0692,-1.0692,-1.1232,-1.225,-1.2684,-1.3706,-1.484,-1.5695,-1.6021,-1.6452,-1.7047,-1.7536,-1.7929,-1.8155,-1.8355,-1.8771,-1.9078,-1.9118,-1.8985,-1.8978,-1.8985,-1.8985,-1.8945,-1.8744,-1.8671,-1.8537,-1.8404,-1.8297,-1.8217,-1.8029,-1.7869,-1.7742,-1.7589,-1.7589,-1.7589,-1.7589,-1.7589,-1.7589,-1.7589,-1.7589,-1.7589,-1.7589,-1.7589,-1.7589,-1.7589,-1.7589,-1.7589,-1.7641,-1.7694,-1.7747,-1.7905,-1.8062,-1.822,-1.8377,-1.8534,-1.875,-1.8936,-1.9047,-1.9078,-1.913,-1.9189,-1.9279,-1.9272,-1.9272,-1.9272,-1.9286,-1.9308,-1.9294,-0.7095,-0.7095,-0.7095,-0.7095,-0.7095,-0.7095,-0.7183,-0.751,-0.8471,-0.9606,-1.076,-1.1946,-1.2541,-1.2981,-1.3408,-1.2933,-1.2219,-1.1132,-1.0204,-0.915,-0.8386,-0.8074,-0.8478,-0.9312,-1.0587,-1.2047,-1.3505,-1.3794,-1.3794,-1.4519,-1.5057,-1.5642,-1.5879,-1.5925,-1.6092,-1.6433,-1.6755,-1.6909,-1.6977,-1.6903,-1.5968,-1.4948,-1.3814,-1.3058,-1.2521,-1.2091,-1.1446,-1.1017,-1.1017,-1.166,-1.2842,-1.3491,-1.4191,-1.5322,-1.5701,-1.6187,-1.6399,-1.7027,-1.7549,-1.815,-1.8384,-1.8664,-1.9118,-1.939,-1.9403,-1.9397,-1.939,-1.9383,-1.9383,-1.9259,-1.9058,-1.8931,-1.8791,-1.8637,-1.8544,-1.8357,-1.8129,-1.7955,-1.7796,-1.7595,-1.7589,-1.7589,-1.7589,-1.7589,-1.7589,-1.7589,-1.7589,-1.7589,-1.7589,-1.7589,-1.7589,-1.7589,-1.7589,-1.7589,-1.7589,-1.7641,-1.7694,-1.7687,-1.7845,-1.8055,-1.8213,-1.8325,-1.8464,-1.864,-1.8745,-1.8829,-1.8972,-1.9083,-1.9166,-1.9255,-1.9279,-1.9301,-1.9447,-1.9447,-1.9404,-0.7095,-0.7095,-0.7095,-0.7095,-0.7139,-0.7139,-0.7536,-0.8324,-0.927,-1.047,-1.165,-1.2694,-1.3307,-1.3337,-1.3439,-1.2865,-1.1645,-1.082,-0.956,-0.8329,-0.8354,-0.8177,-0.8577,-0.985,-1.1609,-1.2974,-1.395,-1.395,-1.4382,-1.4675,-1.5064,-1.5737,-1.6112,-1.6286,-1.6553,-1.686,-1.7159,-1.7268,-1.7382,-1.7371,-1.71,-1.6074,-1.5001,-1.4298,-1.3755,-1.3647,-1.3275,-1.2526,-1.22,-1.2521,-1.3275,-1.4191,-1.5209,-1.6074,-1.6505,-1.6452,-1.667,-1.723,-1.7882,-1.8263,-1.8497,-1.8798,-1.9165,-1.941,-1.9417,-1.9417,-1.941,-1.941,-1.941,-1.941,-1.9225,-1.9225,-1.9176,-1.8938,-1.8804,-1.8424,-1.8075,-1.7916,-1.7695,-1.7609,-1.7589,-1.7589,-1.7589,-1.7589,-1.7589,-1.7589,-1.7589,-1.7589,-1.7589,-1.7589,-1.7602,-1.7635,-1.7649,-1.7589,-1.7589,-1.7589,-1.7641,-1.7635,-1.7734,-1.7981,-1.8087,-1.8023,-1.8177,-1.851,-1.8575,-1.8664,-1.8809,-1.9028,-1.9141,-1.9269,-1.9262,-1.9338,-1.9528,-1.9652,-1.9616]},{"header":{"parameterUnit":"m.s-1","parameterCategory":1,"la1":31.0,"la2":29.5877,"lo1":-88.7671,"lo2":-86.6584,"dy":0.0162,"dx":0.0185,"nx":115,"ny":88,"refTime":"2026-03-03T12:00:00:Z","depth":0,"parameterNumber":3,"parameterNumberName":"V-component_of_WINDS"},"data":[0.0,0.0,0.0,0.0,0.0,0.0,0.0,0.0,0.0,0.0,0.0,0.0,0.0,0.0,0.0,0.0,0.0,0.0,0.0,0.0,0.0,0.0,0.0,0.0,0.0,0.0,0.0,0.0,0.0,0.0,0.0,0.0,0.0,0.0,0.0,0.0,0.0,0.0,0.0,0.0,0.0,0.0,0.0,0.0,0.0,0.0,0.0,0.0,0.0,0.0,0.0,0.0,0.0,0.0,0.0,0.0,0.0,0.0,0.0,0.0,0.0,0.0,0.0,0.0,0.0,0.0,0.0,0.0,0.0,0.0,0.0,0.0,0.0,0.0,0.0,0.0,0.0,0.0,0.0,0.0,0.0,0.0,0.0,0.0,0.0,0.0,0.0,0.0,0.0,0.0,0.0,0.0,0.0,0.0,0.0,0.0,0.0,0.0,0.0,0.0,0.0,0.0,0.0,0.0,0.0,0.0,0.0,0.0,0.0,0.0,0.0,0.0,0.0,0.0,0.0,0.0,0.0,0.0,0.0,0.0,0.0,0.0,0.0,0.0,0.0,0.0,0.0,0.0,0.0,0.0,0.0,0.0,0.0,0.0,0.0,0.0,0.0,0.0,0.0,0.0,0.0,0.0,0.0,0.0,0.0,0.0,0.0,0.0,0.0,0.0,0.0,0.0,0.0,0.0,0.0,0.0,0.0,0.0,0.0,0.0,0.0,0.0,0.0,0.0,0.0,0.0,0.0,0.0,0.0,0.0,0.0,0.0,0.0,0.0,0.0,0.0,0.0,0.0,0.0,0.0,0.0,0.0,0.0,0.0,0.0,0.0,0.0,0.0,0.0,0.0,0.0,0.0,0.0,0.0,0.0,0.0,0.0,0.0,0.0,0.0,0.0,0.0,0.0,0.0,0.0,0.0,0.0,0.0,0.0,0.0,0.0,0.0,0.0,0.0,0.0,0.0,0.0,0.0,0.0,0.0,0.0,0.0,0.0,0.0,0.0,0.0,0.0,0.0,0.0,0.0,0.0,0.0,0.0,0.0,0.0,0.0,0.0,0.0,0.0,0.0,0.0,0.0,0.0,0.0,0.0,0.0,0.0,0.0,0.0,0.0,0.0,0.0,0.0,0.0,0.0,0.0,0.0,0.0,0.0,0.0,0.0,0.0,0.0,0.0,0.0,0.0,0.0,0.0,0.0,0.0,0.0,0.0,0.0,0.0,0.0,0.0,0.0,0.0,0.0,0.0,0.0,0.0,0.0,0.0,0.0,0.0,0.0,0.0,0.0,0.0,0.0,0.0,0.0,0.0,0.0,0.0,0.0,0.0,0.0,0.0,0.0,0.0,0.0,0.0,0.0,0.0,0.0,0.0,0.0,0.0,0.0,0.0,0.0,0.0,0.0,0.0,0.0,0.0,0.0,0.0,0.0,0.0,0.0,0.0,0.0,0.0,0.0,0.0,0.0,0.0,0.0,0.0,0.0,0.0,0.0,0.0,0.0,0.0,0.0,0.0,0.0,0.0,0.0,0.0,0.0,0.0,0.0,0.0,0.0,0.0,0.0,0.0,0.0,0.0,0.0,0.0,0.0,0.0,0.0,0.0,0.0,0.0,0.0,0.0,0.0,0.0,0.0,0.0,0.0,0.0,0.0,0.0,0.0,0.0,0.0,0.0,0.0,0.0,0.0,0.0,0.0,0.0,0.0,0.0,0.0,0.0,0.0,0.0,0.0,0.0,0.0,0.0,0.0,0.0,0.0,0.0,0.0,0.0,0.0,0.0,0.0,0.0,0.0,0.0,0.0,0.0,0.0,0.0,0.0,0.0,0.0,0.0,0.0,0.0,0.0,0.0,0.0,0.0,0.0,0.0,0.0,0.0,0.0,0.0,0.0,0.0,0.0,0.0,0.0,0.0,0.0,0.0,0.0,0.0,0.0,0.0,0.0,0.0,0.0,0.0,0.0,0.0,0.0,0.0,0.0,0.0,0.0,0.0,0.0,0.0,0.0,0.0,0.0,0.0,0.0,0.0,0.0,0.0,0.0,0.0,0.0,0.0,0.0,0.0,0.0,0.0,0.0,0.0,0.0,0.0,0.0,0.0,0.0,0.0,0.0,0.0,0.0,0.0,0.0,0.0,0.0,0.0,0.0,0.0,0.0,0.0,0.0,0.0,0.0,0.0,0.0,0.0,0.0,0.0,0.0,0.0,0.0,0.0,0.0,0.0,0.0,0.0,0.0,0.0,0.0,0.0,0.0,0.0,0.0,0.0,0.0,0.0,0.0,0.0,0.0,0.0,0.0,0.0,0.0,0.0,0.0,0.0,0.0,0.0,0.0,0.0,0.0,0.0,0.0,0.0,0.0,0.0,0.0,0.0,0.0,0.0,0.0,0.0,0.0,0.0,0.0,0.0,0.0,0.0,0.0,0.0,0.0,0.0,0.0,0.0,0.0,0.0,0.0,0.0,0.0,0.0,0.0,0.0,0.0,0.0,0.0,0.0,0.0,0.0,0.0,0.0,0.0,0.0,0.0,0.0,0.0,0.0,0.0,0.0,0.0,0.0,0.0,0.0,0.0,0.0,0.0,0.0,0.0,0.0,0.0,0.0,0.0,0.0,0.0,0.0,0.0,0.0,0.0,0.0,0.0,0.0,0.0,0.0,0.0,0.0,0.0,0.0,0.0,0.0,0.0,0.0,0.0,0.0,0.0,0.0,0.0,0.0,0.0,0.0,0.0,0.0,0.0,0.0,0.0,0.0,0.0,0.0,0.0,0.0,0.0,0.0,0.0,0.0,0.0,0.0,0.0,0.0,0.0,0.0,0.0,0.0,0.0,0.0,0.0,0.0,0.0,0.0,0.0,0.0,0.0,0.0,0.0,0.0,0.0,0.0,0.0,0.0,0.0,0.0,0.0,0.0,0.0,0.0,0.0,0.0,0.0,0.0,0.0,0.0,0.0,0.0,0.0,0.0,0.0,0.0,0.0,0.0,0.0,0.0,0.0,0.0,0.0,0.0,0.0,0.0,0.0,0.0,0.0,0.0,0.0,0.0,0.0,0.0,0.0,0.0,0.0,0.0,0.0,0.0,0.0,0.0,0.0,0.0,0.0,0.0,0.0,0.0,0.0,0.0,0.0,0.0,0.0,0.0,0.0,0.0,0.0,0.0,0.0,0.0,0.0,0.0,0.0,0.0,0.0,0.0,0.0,0.0,0.0,0.0,0.0,0.0,0.0,0.0,0.0,0.0,0.0,0.0,0.0,0.0,0.0,0.0,0.0,0.0,0.0,0.0,0.0,0.0,0.0,0.0,0.0,0.0,0.0,0.0,0.0,0.0,0.0,0.0,0.0,0.0,0.0,0.0,0.0,0.0,0.0,0.0,0.0,0.0,0.0,0.0,0.0,0.0,0.0,0.0,0.0,0.0,0.0,0.0,0.0,0.0,0.0,0.0,0.0,0.0,0.0,0.0,0.0,0.0,0.0,0.0,0.0,0.0,0.0,0.0,0.0,0.0,0.0,0.0,0.0,0.0,0.0,0.0,0.0,0.0,0.0,0.0,0.0,0.0,0.0,0.0,0.0,0.0,0.0,0.0,0.0,0.0,0.0,0.0,0.0,0.0,0.0,0.0,0.0,0.0,0.0,0.0,0.0,0.0,0.0,0.0,0.0,0.0,0.0,0.0,0.0,0.0,0.0,0.0,0.0,0.0,0.0,0.0,0.0,0.0,0.0,0.0,0.0,0.0,0.0,0.0,0.0,0.0,0.0,0.0,0.0,0.0,0.0,0.0,0.0,0.0,0.0,0.0,0.0,0.0,0.0,0.0,0.0,0.0,0.0,0.0,0.0,0.0,0.0,0.0,0.0,0.0,0.0,0.0,0.0,0.0,0.0,0.0,0.0,0.0,0.0,0.0,0.0,0.0,0.0,0.0,0.0,0.0,0.0,0.0,0.0,0.0,0.0,0.0,0.0,0.0,0.0,0.0,0.0,0.0,0.0,0.0,0.0,0.0,0.0,0.0,0.0,0.0,0.0,0.0,0.0,0.0,0.0,0.0,0.0,0.0,0.0,0.0,0.0,0.0,0.0,0.0,0.0,0.0,0.0,0.0,0.0,0.0,0.0,0.0,0.0,0.0,0.0,0.0,0.0,0.0,0.0,0.0,0.0,0.0,0.0,0.0,0.0,0.0,0.0,0.0,0.0,0.0,0.0,0.0,0.0,0.0,0.0,0.0,0.0,0.0,0.0,0.0,0.0,0.0,0.0,0.0,0.0,0.0,0.0,0.0,0.0,0.0,-0.6544,0.0,0.0,0.0,0.0,0.0,0.0,0.0,0.0,0.0,0.0,0.0,0.0,0.0,0.0,0.0,0.0,0.0,0.0,0.0,0.0,0.0,0.0,0.0,0.0,0.0,0.0,0.0,0.0,0.0,0.0,0.0,0.0,0.0,0.0,0.0,0.0,0.0,0.0,0.0,0.0,0.0,0.0,0.0,0.0,0.0,0.0,0.0,0.0,0.0,0.0,0.0,0.0,0.0,0.0,0.0,0.0,0.0,0.0,0.0,0.0,0.0,0.0,0.0,0.0,0.0,0.0,0.0,0.0,0.0,0.0,0.0,0.0,0.0,0.0,0.0,0.0,0.0,0.0,0.0,0.0,0.0,0.0,0.0,0.0,0.0,0.0,0.0,0.0,0.0,0.0,0.0,0.0,0.0,0.0,0.0,0.0,0.0,0.0,0.0,0.0,0.0,0.0,0.0,0.0,0.0,0.0,0.0,0.0,0.0,0.0,-0.0928,-0.3479,-0.3717,-0.4679,-0.6405,0.0,0.0,0.0,0.0,0.0,0.0,0.0,0.0,0.0,0.0,0.0,0.0,0.0,0.0,0.0,0.0,0.0,0.0,0.0,0.0,0.0,0.0,0.0,0.0,0.0,0.0,0.0,0.0,0.0,0.0,0.0,0.0,0.0,0.0,0.0,0.0,0.0,0.0,0.0,0.0,0.0,0.0,0.0,0.0,0.0,0.0,0.0,0.0,0.0,0.0,0.0,0.0,0.0,0.0,0.0,0.0,0.0,0.0,0.0,0.0,0.0,0.0,0.0,0.0,0.0,0.0,0.0,0.0,0.0,0.0,0.0,0.0,0.0,0.0,0.0,0.0,0.0,0.0,0.0,0.0,0.0,0.0,0.0,0.0,0.0,0.0,0.0,0.0,0.0,0.0,0.0,0.0,0.0,0.0,0.0,0.0,0.0,0.0,0.0,0.0,0.0,0.0,0.0,0.0,0.0,0.0,0.0,0.0,0.0,0.0,0.0,0.0,-0.3733,-0.4609,-0.603,0.0,0.0,0.0,0.0,0.0,0.0,0.0,0.0,0.0,0.0,0.0,0.0,0.0,0.0,0.0,0.0,0.0,0.0,0.0,0.0,0.0,0.0,0.0,0.0,0.0,0.0,0.0,0.0,0.0,0.0,0.0,0.0,0.0,0.0,0.0,0.0,0.0,0.0,0.0,0.0,0.0,0.0,0.0,0.0,0.0,0.0,0.0,0.0,0.0,0.0,0.0,0.0,0.0,0.0,0.0,0.0,0.0,0.0,0.0,0.0,0.0,0.0,0.0,0.0,0.0,0.0,0.0,0.0,0.0,0.0,0.0,0.0,0.0,0.0,0.0,0.0,0.0,0.0,0.0,0.0,0.0,0.0,0.0,0.0,0.0,0.0,0.0,0.0,0.0,0.0,0.0,0.0,0.0,0.0,0.0,0.0,0.0,0.0,0.0,0.0,0.0,0.0,0.0,0.0,0.0,0.0,0.0,0.0,0.0,0.0,-0.0315,-0.3125,-0.3633,0.0,-0.5357,0.0,0.0,0.0,0.0,0.0,0.0,0.0,0.0,0.0,0.0,0.0,0.0,0.0,0.0,0.0,0.0,0.0,0.0,0.0,0.0,0.0,0.0,0.0,0.0,0.0,0.0,0.0,0.0,0.0,0.0,0.0,0.0,0.0,0.0,0.0,0.0,0.0,0.0,0.0,0.0,0.0,0.0,0.0,0.0,0.0,0.0,0.0,0.0,0.0,0.0,0.0,0.0,0.0,0.0,0.0,0.0,0.0,0.0,0.0,0.0,0.0,0.0,0.0,0.0,0.0,0.0,0.0,0.0,0.0,0.0,0.0,0.0,0.0,0.0,0.0,0.0,0.0,0.0,0.0,0.0,0.0,0.0,0.0,0.0,0.0,0.0,0.0,0.0,0.0,0.0,0.0,0.0,0.0,0.0,0.0,0.0,0.0,0.0,0.0,0.0,0.0,0.0,0.0,0.0,0.0,0.0,0.0,0.0,0.0,0.0,0.0316,-0.3229,-0.4364,-0.5088,0.0,0.0,0.0,0.0,0.0,0.0,0.0,0.0,0.0,0.0,0.0,0.0,0.0,0.0,0.0,0.0,0.0,0.0,0.0,0.0,0.0,0.0,0.0,0.0,0.0,0.0,0.0,0.0,0.0,0.0,0.0,0.0,0.0,0.0,0.0,0.0,0.0,0.0,0.0,0.0,0.0,0.0,0.0,0.0,0.0,0.0,0.0,0.0,0.0,0.0,0.0,0.0,0.0,0.0,0.0,0.0,0.0,0.0,0.0,0.0,0.0,0.0,0.0,0.0,0.0,0.0,0.0,0.0,0.0,0.0,0.0,0.0,0.0,0.0,0.0,0.0,0.0,0.0,0.0,0.0,0.0,0.0,0.0,0.0,0.0,0.0,0.0,0.0,0.0,0.0,0.0,0.0,0.0,0.0,0.0,0.0,0.0,0.0,0.0,0.0,0.0,0.0,0.0,0.0,0.0,0.0,0.0,0.0,0.0,0.0,0.28,0.0817,-0.3033,-0.4833,-0.5534,-0.5215,0.0,0.0,0.0,0.0,0.0,0.0,0.0,0.0,0.0,0.0,0.0,0.0,0.0,0.0,0.0,0.0,0.0,0.0,0.0,0.0,0.0,0.0,0.0,0.0,0.0,0.0,0.0,0.0,0.0,0.0,0.0,0.0,0.0,0.0,0.0,0.0,0.0,0.0,0.0,0.0,0.0,0.0,0.0,0.0,0.0,0.0,0.0,0.0,0.0,0.0,0.0,0.0,0.0,0.0,0.0,0.0,0.0,0.0,0.0,0.0,0.0,0.0,0.0,0.0,0.0,0.0,0.0,0.0,0.0,0.0,0.0,0.0,0.0,0.0,0.0,0.0,0.0,0.0,0.0,0.0,0.0,0.0,0.0,0.0,0.0,0.0,0.0,0.0,0.0,0.0,0.0,0.0,0.0,0.0,0.0,0.0,0.0,0.0,0.0,0.0,0.0,0.0,0.0,0.0,0.0,0.0,0.0,0.0,0.0,0.2763,0.1011,-0.281,-0.4741,-0.5408,0.0,0.0,0.0,0.0,0.0,0.0,0.0,0.0,0.0,0.0,0.0,0.0,0.0,0.0,0.0,0.0,0.0,0.0,0.0,0.0,0.0,0.0,0.0,0.0,0.0,0.0,0.0,0.0,0.0,0.0,0.0,0.0,0.0,0.0,0.0,0.0,0.0,0.0,0.0,0.0,0.0,0.0,0.0,0.0,0.0,0.0,0.0,0.0,0.0,0.0,0.0,0.0,0.0,0.0,0.0,0.0,0.0,0.0,0.0,0.0,0.0,0.0,0.0,0.0,0.0,0.0,0.0,0.0,0.0,0.0,0.0,0.0,0.0,0.0,0.0,0.0,0.0,0.0,0.0,0.0,0.0,0.0,0.0,0.0,0.0,0.0,0.0,0.0,0.0,0.0,0.0,0.0,0.0,0.0,0.0,0.0,0.0,0.0,0.0,0.0,0.0,0.0,0.0,0.0,0.0,0.0,0.0,0.0,0.0,0.2703,0.0404,-0.1456,-0.2896,-0.4291,-0.4947,0.0,0.0,0.0,0.0,0.0,0.0,0.0,0.0,0.0,0.0,0.0,0.0,0.0,0.0,0.0,0.0,0.0,0.0,0.0,0.0,0.0,0.0,0.0,0.0,0.0,0.0,0.0,0.0,0.0,0.0,0.0,0.0,0.0,0.0,0.0,0.0,0.0,0.0,0.0,0.0,0.0,0.0,0.0,0.0,0.0,0.0,0.0,0.0,0.0,0.0,0.0,0.0,0.0,0.0,0.0,0.0,0.0,0.0,0.0,0.0,0.0,0.0,0.0,0.0,0.0,0.0,0.0,0.0,0.0,0.0,0.0,0.0,0.0,0.0,0.0,0.0,0.0,0.0,0.0,0.0,0.0,0.0,0.0,0.0,0.0,0.0,0.0,0.0,0.0,0.0,0.0,0.0,0.0,0.0,0.0,0.0,0.0,0.0,0.0,0.0,0.0,0.0,0.0,0.0,0.0,0.0,0.0,0.0,0.0,0.2669,0.0,-0.2849,0.0,-0.4101,-0.47,0.0,0.0,0.0,0.0,0.0,0.0,0.0,0.0,0.0,0.0,0.0,0.0,0.0,0.0,0.0,0.0,0.0,0.0,0.0,0.0,0.0,0.0,0.0,0.0,0.0,0.0,0.0,0.0,0.0,0.0,0.0,0.0,0.0,0.0,0.0,0.0,0.0,0.0,0.0,0.0,0.0,0.0,0.0,0.0,0.0,0.0,0.0,0.0,0.0,0.0,0.0,0.0,0.0,0.0,0.0,0.0,0.0,0.0,0.0,0.0,0.0,0.0,0.0,0.0,0.0,0.0,0.0,0.0,0.0,0.0,0.0,0.0,0.0,0.0,0.0,0.0,0.0,0.0,0.0,0.0,0.0,0.0,0.0,0.0,0.0,0.0,0.0,0.0,0.0,0.0,0.0,0.0,0.0,0.0,0.0,0.0,0.0,0.0,0.0,0.0,0.0,0.0,0.0,0.0,0.0,0.0,0.0,0.0,0.4525,0.263,-0.0955,-0.2666,-0.2261,-0.4061,-0.4691,0.0,0.0,0.0,0.0,0.0,0.0,0.0,0.0,0.0,0.0,0.0,0.0,0.0,0.0,0.0,0.0,0.0,0.0,0.0,0.0,0.0,0.0,0.0,0.0,0.0,0.0,0.0,0.0,0.0,0.0,0.0,0.0,0.0,0.0,0.0,0.0,0.0,0.0,0.0,0.0,0.0,0.0,0.0,0.0,0.0,0.0,0.0,0.0,0.0,0.0,0.0,0.0,0.0,0.0,0.0,0.0,0.0,0.0,0.0,0.0,0.0,0.0,0.0,0.0,0.0,0.0,0.0,0.0,0.0,0.0,0.0,0.0,0.0,0.0,0.0,0.0,0.0,0.0,0.0,0.0,0.0,0.0,0.0,0.0,0.0,0.0,0.0,0.0,0.0,0.0,0.0,0.0,0.0,0.0,0.0,0.0,0.0,0.0,0.0,0.0,0.0,0.0,0.0,0.0,0.0,0.0,0.0,0.0,0.0,0.1714,-0.1049,-0.2496,-0.2528,-0.3628,-0.4112,0.0,0.0,0.0,0.0,0.0,0.0,0.0,0.0,0.0,0.0,0.0,0.0,0.0,0.0,0.0,0.0,0.0,0.0,0.0,0.0,0.0,0.0,0.0,0.0,0.0,0.0,0.0,0.0,0.0,0.0,0.0,0.0,0.0,0.0,0.0,0.0,0.0,0.0,0.0,0.0,0.0,0.0,0.0,0.0,0.0,0.0,0.0,0.0,0.0,0.0,0.0,0.0,0.0,0.0,0.0,0.0,0.0,0.0,0.0,0.0,0.0,0.0,0.0,0.0,0.0,0.0,0.0,0.0,0.0,0.0,0.0,0.0,0.0,0.0,0.0,0.0,0.0,0.0,0.0,0.0,0.0,0.0,0.0,0.0,0.0,0.0,0.0,0.0,0.0,0.0,0.0,0.0,0.0,0.0,0.0,0.0,0.0,0.0,0.0,0.0,0.0,0.0,0.0,0.0,0.0,0.0,0.0,0.0,0.0,0.155,-0.0878,-0.233,-0.2693,-0.3492,-0.3706,-0.3156,0.0,0.0,0.0,0.0,0.0,0.0,0.0,0.0,0.0,0.0,0.0,0.0,0.0,0.0,0.0,0.0,0.0,0.0,0.0,0.0,0.0,0.0,0.0,0.0,0.0,0.0,0.0,0.0,0.0,0.0,0.0,0.0,0.0,0.0,0.0,0.0,0.0,0.0,0.0,0.0,0.0,0.0,0.0,0.0,0.0,0.0,0.0,0.0,0.0,0.0,0.0,0.0,0.0,0.0,0.0,0.0,0.0,0.0,0.0,0.0,0.0,0.0,0.0,0.0,0.0,0.0,0.0,0.0,0.0,0.0,0.0,0.0,0.0,0.0,0.0,0.0,0.0,0.0,0.0,0.0,0.0,0.0,0.0,0.0,0.0,0.0,0.0,0.0,0.0,0.0,0.0,0.0,0.0,0.0,0.0,0.0,0.0,0.0,0.0,0.0,0.0,0.0,0.0,0.0,0.0,0.0,0.0,0.0,0.2064,-0.0459,-0.2069,-0.2661,-0.3447,-0.3382,0.0,0.0,0.0,0.0,0.0,0.0,0.0,0.0,0.0,0.0,0.0,0.0,0.0,0.0,0.0,0.0,0.0,0.0,0.0,0.0,0.0,0.0,0.0,0.0,0.0,0.0,0.0,0.0,0.0,0.0,0.0,0.0,0.0,0.0,0.0,0.0,0.0,0.0,0.0,0.0,0.0,0.0,0.0,0.0,0.0,0.0,0.0,0.0,0.0,0.0,0.0,0.0,0.0,0.0,0.0,0.0,0.0,0.0,0.0,0.0,0.0,0.0,0.0,0.0,0.0,0.0,0.0,0.0,0.0,0.0,0.0,0.0,0.0,0.0,0.0,0.0,0.0,0.0,0.0,0.0,0.0,0.0,0.0,0.0,0.0,0.0,0.0,0.0,0.0,0.0,0.0,0.0,0.0,0.0,0.0,0.0,0.0,0.0,0.0,0.0,0.0,0.0,0.0,0.0,0.0,0.0,0.0,0.0,0.0,0.2707,0.0822,-0.0635,-0.1531,-0.2245,-0.2271,0.0,0.0,0.0,0.0,0.0,0.0,0.0,0.0,0.0,0.0,0.0,0.0,0.0,0.0,0.0,0.0,0.0,0.0,0.0,0.0,0.0,0.0,0.0,0.0,0.0,0.0,0.0,0.0,0.0,0.0,0.0,0.0,0.0,0.0,0.0,0.0,0.0,0.0,0.0,0.0,0.0,0.0,0.0,0.0,0.0,0.0,0.0,0.0,0.0,0.0,0.0,0.0,0.0,0.0,0.0,0.0,0.0,0.0,0.0,0.0,0.0,0.0,0.0,0.0,0.0,0.0,0.0,0.0,0.0,0.0,0.0,0.0,0.0,0.0,0.0,0.0,0.0,0.0,0.0,0.0,0.0,0.0,0.0,0.0,0.0,0.0,0.0,0.0,0.0,0.0,0.0,0.0,0.0,0.0,0.0,0.0,0.0,0.0,0.0,0.0,0.0,0.0,0.0,0.0,0.0,0.0,0.0,0.0,0.3758,0.3503,0.1488,0.0252,-0.01,-0.0935,-0.0957,0.0,0.0,0.0,0.0,0.0,0.0,0.0,0.0,0.0,0.0,0.0,0.0,0.0,0.0,0.0,0.0,0.0,0.0,0.0,0.0,0.0,0.0,0.0,0.0,0.0,0.0,0.0,0.0,0.0,0.0,0.0,0.0,0.0,0.0,0.0,0.0,0.0,0.0,0.0,0.0,0.0,0.0,0.0,0.0,0.0,0.0,0.0,0.0,0.0,0.0,0.0,0.0,0.0,0.0,0.0,0.0,0.0,0.0,0.0,0.0,0.0,0.0,0.0,0.0,0.0,0.0,0.0,0.0,0.0,0.0,0.0,0.0,0.0,0.0,0.0,0.0,0.0,0.0,0.0,0.0,0.0,0.0,0.0,0.0,0.0,0.0,0.0,0.0,0.0,0.0,0.0,0.0,0.0,0.0,0.0,0.0,0.0,0.0,0.0,0.0,0.0,0.0,0.0,0.0,0.0,0.0,0.0,0.0,0.4328,0.4395,0.205,0.102,0.1551,0.0349,0.0507,0.0,0.0,0.0,0.0,0.0,0.0,0.0,0.0,0.0,0.0,0.0,0.0,0.0,0.0,0.0,0.0,0.0,0.0,0.0,0.0,0.0,0.0,0.0,0.0,0.0,0.0,0.0,0.0,0.0,0.0,0.0,0.0,0.0,0.0,0.0,0.0,0.0,0.0,0.0,0.0,0.0,0.0,0.0,0.0,0.0,0.0,0.0,0.0,0.0,0.0,0.0,0.0,0.0,0.0,0.0,0.0,0.0,0.0,0.0,0.0,0.0,0.0,0.0,0.0,0.0,0.0,0.0,0.0,0.0,0.0,0.0,0.0,0.0,0.0,0.0,0.0,0.0,0.0,0.0,0.0,0.0,0.0,0.0,0.0,0.0,0.0,0.0,0.0,0.0,0.0,0.0,0.0,0.0,0.0,0.0,0.0,0.0,0.0,0.0,0.0,0.0,0.0,0.0,0.0,0.0,0.0,0.0,0.0,0.6463,0.5897,0.4243,0.335,0.3464,0.1601,0.1668,0.0,0.0,0.0,0.0,0.0,0.0,0.0,0.0,0.0,0.0,0.0,0.0,0.0,0.0,0.0,0.0,0.0,0.0,0.0,0.0,0.0,0.0,0.0,0.0,0.0,0.0,0.0,0.0,0.0,0.0,0.0,0.0,0.0,0.0,0.0,0.0,0.0,0.0,0.0,0.0,0.0,0.0,0.0,0.0,0.0,0.0,0.0,0.0,0.5723,0.0,0.0,0.0,0.0,0.0,0.0,0.0,0.0,0.0,0.0,0.0,0.0,0.0,0.0,0.0,0.0,0.0,0.0,0.0,0.0,0.0,0.0,0.0,0.0,0.0,0.0,0.0,0.0,0.0,0.0,0.0,0.0,0.0,0.0,0.0,0.0,0.0,0.0,0.0,0.0,0.0,0.0,0.0,0.0,0.0,0.0,0.0,0.0,0.0,0.0,0.0,0.0,0.0,0.0,0.0,0.0,0.0,0.0,0.0,0.7332,0.6657,0.5448,0.4863,0.4996,0.3923,0.3967,0.0,0.0,0.0,0.0,0.0,0.0,0.0,0.0,0.0,0.0,0.0,0.0,0.0,0.0,0.0,0.0,0.0,0.0,0.0,0.0,0.0,0.0,0.0,0.0,0.0,0.0,0.0,0.0,0.0,0.0,0.0,0.0,0.0,0.0,0.0,0.0,0.0,0.0,0.0,0.0,0.0,0.0,0.0,0.0,0.0,0.0,0.0,0.0,0.0,0.0,0.0,0.0,0.0,0.0,0.0,0.0,0.0,0.0,0.0,0.0,0.0,0.0,0.0,0.0,0.0,0.0,0.0,0.0,0.0,0.0,0.0,0.0,0.0,0.0,0.0,0.0,0.0,0.0,0.0,0.0,0.0,0.0,0.0,0.0,0.0,0.0,0.0,0.0,0.0,0.0,0.0,0.0,0.0,0.0,0.0,0.0,0.0,0.0,0.0,0.0,0.0,0.0,0.0,0.0,0.0,0.0,0.0,0.8863,0.8044,0.751,0.6509,0.606,0.6281,0.6276,0.6457,0.6829,0.0,0.0,0.0,0.0,0.0,0.0,0.0,0.0,0.0,0.0,0.0,0.0,0.0,0.0,0.0,0.0,0.0,0.0,0.0,0.0,0.0,0.0,0.0,0.0,0.0,0.0,0.0,0.0,0.0,0.0,0.0,0.0,0.0,0.0,0.0,0.0,0.0,0.0,1.542,1.3406,0.0,0.0,0.0,0.0,0.0,0.0,0.0,0.0,0.7943,0.0,0.0,0.0,0.0,0.0,0.0,0.0,0.0,0.0,0.0,0.0,0.0,0.0,0.0,0.0,0.0,0.0,0.0,0.0,0.0,0.0,0.0,0.0,0.0,0.0,0.0,0.0,0.0,0.0,0.0,0.0,0.0,0.0,0.0,0.0,0.0,0.0,0.0,0.0,0.0,0.0,0.0,0.0,0.0,0.0,0.0,0.0,0.0,0.0,0.0,0.0,0.0,0.0,0.0,0.0,0.0,1.1829,1.0669,1.0018,0.9888,0.8396,0.7477,0.7189,0.7387,0.79,0.8715,0.0,0.0,0.0,0.0,0.0,0.0,0.0,0.0,0.0,0.0,0.0,0.0,0.0,0.0,0.0,0.0,0.0,0.0,0.0,0.0,0.0,0.0,0.0,0.0,0.0,0.0,0.0,0.0,0.0,0.0,0.0,0.0,0.0,0.0,0.0,0.0,0.0,0.0,0.0,1.4439,1.3958,0.0,0.0,0.0,0.0,0.0,0.0,0.0,0.0,0.9212,0.0,0.0,0.0,0.0,0.0,0.0,0.0,0.0,0.0,0.0,0.0,0.0,0.0,0.0,0.0,0.0,0.0,0.0,0.0,0.0,0.0,0.0,0.0,0.0,0.0,0.0,0.0,0.0,0.0,0.0,0.0,0.0,0.0,0.0,0.0,0.0,0.0,0.0,0.0,0.0,0.0,0.0,0.0,0.0,0.0,0.0,0.0,0.0,0.0,0.0,0.0,0.0,0.0,0.0,0.0,1.2766,1.2366,1.2035,1.1821,1.0919,1.0091,0.9475,0.9701,0.9866,0.0,0.0,0.0,0.0,0.0,0.0,0.0,0.0,0.0,0.0,0.0,0.0,0.0,0.0,0.0,0.0,0.0,0.0,0.0,0.0,0.0,0.0,0.0,0.0,0.0,0.0,0.0,0.0,0.0,0.0,0.0,0.0,0.0,0.0,0.0,0.0,0.0,0.0,0.0,0.0,1.5747,1.5668,1.5162,0.0,0.0,0.0,0.0,0.0,0.0,1.0739,1.0449,0.0,0.0,0.0,0.0,0.0,0.0,0.0,0.0,0.0,0.0,0.0,0.0,0.0,0.0,0.0,0.0,0.0,0.0,0.0,0.0,0.0,0.0,0.0,0.0,0.0,0.0,0.0,0.0,0.0,0.0,0.0,0.0,0.0,0.0,0.0,0.0,0.0,0.0,0.0,0.0,0.0,0.0,0.0,0.0,0.0,0.0,0.0,0.0,0.0,0.0,0.0,0.0,0.0,0.0,0.0,1.3558,1.3655,1.3653,1.3465,1.3065,1.2448,1.1608,1.1787,1.1606,0.0,0.0,0.0,0.0,0.0,0.0,0.0,0.0,0.0,0.0,0.0,0.0,0.0,0.0,0.0,0.0,0.0,0.0,0.0,0.0,0.0,0.0,0.0,0.0,0.0,0.0,0.0,0.0,0.0,0.0,0.0,0.0,0.0,0.0,0.0,0.0,0.0,0.0,0.0,0.0,0.0,1.6981,1.6399,1.562,0.0,0.0,0.0,0.0,1.3104,1.2529,0.0,0.0,0.0,0.0,0.0,0.0,0.0,0.0,0.0,0.0,0.0,0.0,0.0,0.0,0.0,0.0,0.0,0.0,0.0,0.0,0.0,0.0,0.0,0.0,0.0,0.0,0.0,0.0,0.0,0.0,0.0,0.0,0.0,0.0,0.0,0.0,0.0,0.0,0.0,0.0,0.0,0.0,0.0,0.0,0.0,0.0,0.0,0.0,0.0,0.0,0.0,0.0,0.0,0.0,0.0,0.0,1.4618,1.4119,1.4166,1.4725,1.3872,1.3123,1.2574,1.2533,1.2415,0.0,0.0,0.0,0.0,0.0,0.0,0.0,0.0,0.0,0.0,0.0,0.0,0.0,0.0,0.0,0.0,0.0,0.0,0.0,0.0,0.0,0.0,0.0,0.0,0.0,0.0,0.0,0.0,0.0,0.0,0.0,0.0,0.0,0.0,0.0,0.0,0.0,0.0,0.0,0.0,0.0,1.768,1.6834,1.6961,1.6819,0.0,0.0,1.5685,1.5247,1.5162,0.0,0.0,0.0,0.0,0.0,0.0,0.0,0.0,0.0,0.0,0.0,0.0,0.0,0.0,0.0,0.0,0.0,0.0,0.0,0.0,0.0,0.0,0.0,0.0,0.0,0.0,0.0,0.0,0.0,0.0,0.0,0.0,0.0,0.0,0.0,0.0,0.0,0.0,0.0,0.0,0.0,0.0,0.0,0.0,0.0,0.0,0.0,0.0,0.0,0.0,0.0,0.0,0.0,0.0,0.0,1.6291,1.6286,1.6405,1.6634,1.7004,1.6253,1.5543,1.4966,1.4084,1.3646,0.0,0.0,0.0,0.0,0.0,0.0,0.0,0.0,0.0,0.0,0.0,0.0,0.0,0.0,0.0,0.0,0.0,0.0,0.0,0.0,0.0,0.0,0.0,0.0,0.0,0.0,0.0,0.0,0.0,0.0,0.0,0.0,0.0,0.0,0.0,0.0,0.0,0.0,0.0,0.0,0.0,0.0,1.9496,1.9356,0.0,0.0,0.0,1.7556,1.6513,0.0,0.0,0.0,0.0,0.0,0.0,0.0,0.0,0.0,0.0,0.0,0.0,0.0,0.0,0.0,0.0,0.0,0.0,0.0,0.0,0.0,0.0,0.0,0.0,0.0,0.0,0.0,0.0,0.0,0.0,0.0,0.0,0.0,0.0,0.0,0.0,0.0,0.0,0.0,0.0,0.0,0.0,0.0,0.0,0.0,0.0,0.0,0.0,0.0,0.0,0.0,0.0,0.0,0.0,0.0,0.0,0.0,1.7709,1.8446,1.8859,1.882,1.8365,1.7854,1.7285,1.599,0.0,0.0,0.0,0.0,0.0,0.0,0.0,0.0,0.0,0.0,0.0,0.0,0.0,0.0,0.0,0.0,0.0,0.0,0.0,0.0,0.0,0.0,0.0,0.0,0.0,0.0,0.0,1.6072,0.0,0.0,0.0,0.0,0.0,0.0,0.0,0.0,0.0,0.0,0.0,0.0,0.0,0.0,2.0849,2.1191,2.111,2.104,0.0,0.0,1.9379,1.8447,1.8322,1.7861,0.0,0.0,0.0,0.0,0.0,0.0,0.0,0.0,0.0,0.0,0.0,0.0,0.0,0.0,0.0,0.0,0.0,0.0,0.0,0.0,0.0,0.0,0.0,0.0,0.0,0.0,0.0,0.0,0.0,0.0,0.0,0.0,0.0,0.0,0.0,0.0,0.0,0.0,0.0,0.0,0.0,0.0,0.0,0.0,0.0,0.0,0.0,0.0,0.0,0.0,0.0,0.0,0.0,0.0,0.0,1.8551,1.948,1.9855,1.9551,1.9503,1.9268,1.8933,1.8114,1.7088,0.0,0.0,0.0,0.0,0.0,0.0,0.0,0.0,0.0,0.0,0.0,0.0,0.0,0.0,0.0,0.0,0.0,0.0,0.0,0.0,0.0,0.0,0.0,0.0,0.0,0.0,0.0,0.0,0.0,0.0,0.0,0.0,0.0,0.0,0.0,0.0,0.0,0.0,0.0,0.0,0.0,2.0653,2.0553,2.1504,2.2067,0.0,0.0,2.1474,2.1861,2.1721,2.1119,1.9778,0.0,0.0,0.0,0.0,0.0,0.0,0.0,0.0,0.0,0.0,0.0,0.0,0.0,0.0,0.0,0.0,0.0,0.0,0.0,0.0,0.0,0.0,0.0,0.0,0.0,0.0,0.0,0.0,0.0,0.0,0.0,0.0,0.0,0.0,0.0,0.0,0.0,0.0,0.0,0.0,0.0,0.0,0.0,0.0,0.0,0.0,0.0,0.0,0.0,0.0,0.0,0.0,0.0,1.9399,1.9975,2.1234,2.1914,2.1966,2.1769,2.1699,2.1827,1.9694,1.8464,0.0,0.0,0.0,0.0,0.0,0.0,0.0,0.0,0.0,0.0,0.0,0.0,0.0,0.0,0.0,0.0,0.0,0.0,0.0,0.0,0.0,0.0,0.0,0.0,0.0,0.0,0.0,0.0,1.9551,1.9751,2.009,0.0,0.0,0.0,0.0,0.0,0.0,0.0,0.0,0.0,0.0,2.3835,2.4545,2.4649,0.0,0.0,2.3179,2.2511,2.1648,2.1592,2.1062,1.9443,1.9355,0.0,0.0,0.0,0.0,0.0,0.0,0.0,0.0,0.0,0.0,0.0,0.0,0.0,0.0,0.0,0.0,0.0,0.0,0.0,0.0,0.0,0.0,0.0,0.0,0.0,0.0,0.0,0.0,0.0,0.0,0.0,0.0,0.0,0.0,0.0,0.0,0.0,0.0,0.0,0.0,0.0,0.0,0.0,0.0,0.0,0.0,0.0,0.0,0.0,0.0,0.0,0.0,2.0497,2.1307,2.2634,2.3501,2.3868,2.3534,2.3508,2.3795,2.1432,2.0131,0.0,0.0,0.0,0.0,0.0,0.0,0.0,0.0,0.0,0.0,0.0,0.0,0.0,0.0,0.0,0.0,0.0,0.0,0.0,0.0,0.0,0.0,0.0,0.0,0.0,0.0,0.0,0.0,2.0806,2.082,2.0534,0.0,0.0,0.0,0.0,0.0,0.0,0.0,0.0,0.0,0.0,2.6082,2.7086,2.6756,2.6181,2.5593,2.4527,2.3418,2.2531,2.2314,2.1824,2.051,0.0,0.0,0.0,0.0,0.0,0.0,0.0,0.0,0.0,0.0,0.0,0.0,0.0,0.0,0.0,0.0,0.0,0.0,0.0,0.0,0.0,0.0,0.0,0.0,0.0,0.0,0.0,0.0,0.0,0.0,2.5166,0.0,0.0,0.0,0.0,0.0,0.0,0.0,0.0,0.0,0.0,0.0,0.0,0.0,0.0,0.0,0.0,0.0,0.0,0.0,0.0,0.0,0.0,2.1554,2.2457,2.3602,2.4307,2.4732,2.448,2.4528,2.4708,2.3455,2.2187,2.0887,0.0,0.0,0.0,0.0,0.0,0.0,0.0,0.0,0.0,0.0,0.0,0.0,0.0,0.0,0.0,0.0,0.0,0.0,0.0,0.0,0.0,0.0,0.0,0.0,0.0,0.0,2.1622,2.1176,2.0602,0.0,0.0,0.0,0.0,0.0,0.0,0.0,0.0,0.0,0.0,2.5414,2.6656,2.7328,2.7175,2.6972,2.6945,2.5347,2.4442,2.529,2.465,2.4022,0.0,0.0,0.0,0.0,0.0,0.0,0.0,0.0,0.0,0.0,0.0,0.0,0.0,0.0,0.0,0.0,0.0,0.0,0.0,0.0,0.0,0.0,0.0,0.0,0.0,0.0,0.0,2.6823,2.6687,0.0,0.0,0.0,0.0,0.0,0.0,0.0,0.0,0.0,0.0,0.0,2.814,2.8848,0.0,0.0,0.0,0.0,0.0,0.0,0.0,0.0,0.0,0.0,0.0,0.0,2.2896,2.4401,2.5585,2.6622,2.7538,2.7499,2.7479,2.7519,2.5581,2.325,2.0652,0.0,0.0,0.0,0.0,0.0,0.0,0.0,0.0,0.0,0.0,0.0,0.0,0.0,0.0,0.0,0.0,0.0,0.0,0.0,0.0,0.0,0.0,0.0,0.0,0.0,2.2411,0.0,0.0,0.0,0.0,0.0,0.0,0.0,0.0,0.0,0.0,0.0,2.4682,2.5402,2.6525,2.7484,2.8179,2.8142,2.795,0.0,0.0,0.0,0.0,0.0,0.0,0.0,0.0,0.0,0.0,0.0,0.0,0.0,0.0,2.1207,1.7749,1.6955,1.6764,1.6571,0.0,0.0,0.0,0.0,0.0,0.0,0.0,0.0,0.0,0.0,0.0,0.0,0.0,0.0,2.9339,0.0,2.8748,0.0,0.0,0.0,0.0,0.0,0.0,0.0,0.0,3.1563,3.1818,3.1098,3.1925,3.1498,0.0,2.9731,2.8,0.0,0.0,0.0,0.0,0.0,0.0,0.0,0.0,2.4283,2.5855,2.7079,2.8191,2.9105,2.9129,2.9142,2.9146,2.6989,2.4718,2.2408,2.0903,1.9991,0.0,0.0,0.0,0.0,0.0,0.0,0.0,0.0,0.0,0.0,0.0,0.0,0.0,0.0,0.0,0.0,0.0,0.0,0.0,0.0,0.0,0.0,0.0,2.3758,0.0,0.0,0.0,0.0,0.0,0.0,0.0,0.0,0.0,2.4569,2.5773,2.7016,2.7907,2.8645,2.922,2.9562,0.0,0.0,0.0,0.0,0.0,0.0,0.0,2.6022,2.5875,2.5955,2.5957,2.5698,2.5678,2.5348,2.4215,0.0,0.0,2.0053,1.9125,1.8854,1.8858,1.8866,1.8682,1.7958,1.776,1.7457,0.0,0.0,0.0,0.0,0.0,0.0,0.0,0.0,3.3274,3.3024,0.0,3.2387,0.0,0.0,0.0,0.0,0.0,3.1533,0.0,0.0,3.4384,3.4585,3.3891,3.3439,3.285,3.2162,3.2707,3.2284,3.0833,2.6769,0.0,0.0,0.0,0.0,0.0,0.0,2.5703,2.6933,2.8178,2.9066,2.9569,2.9484,2.9439,2.9465,2.782,2.6623,2.5987,2.3741,2.2499,2.2456,2.1366,0.0,0.0,0.0,0.0,0.0,0.0,0.0,0.0,0.0,0.0,0.0,0.0,0.0,0.0,0.0,0.0,0.0,0.0,0.0,0.0,2.4692,0.0,0.0,0.0,0.0,0.0,0.0,0.0,0.0,0.0,0.0,2.783,2.8873,3.0133,3.1153,0.0,0.0,0.0,0.0,2.9639,2.9639,2.8495,2.7792,2.8183,2.788,2.7707,2.8154,0.0,0.0,2.7039,2.658,2.6069,2.4922,2.5187,2.5134,2.3966,2.283,2.2185,2.2057,2.153,2.1181,2.0941,2.012,1.9585,3.851,0.0,0.0,0.0,0.0,3.4096,3.4911,3.6434,3.5315,3.4857,3.4857,3.3634,0.0,0.0,0.0,0.0,0.0,0.0,3.5451,3.6412,3.6711,3.6563,3.6067,3.5843,3.5325,3.4582,3.4247,3.3706,3.2947,3.1202,2.8908,2.6215,0.0,0.0,0.0,0.0,2.8438,2.891,3.0217,3.1028,3.1262,3.1248,3.0807,2.993,2.9434,2.8421,2.6913,2.581,2.4821,2.3918,2.272,0.0,0.0,0.0,0.0,0.0,0.0,0.0,0.0,0.0,0.0,0.0,0.0,0.0,0.0,0.0,0.0,0.0,0.0,0.0,2.4554,2.5462,2.5762,0.0,0.0,0.0,0.0,0.0,0.0,0.0,0.0,0.0,3.0419,3.0552,3.0716,0.0,0.0,3.0715,3.0532,3.0546,3.0618,3.0591,0.0,0.0,0.0,2.9238,2.8938,2.9146,2.9427,2.9346,2.8668,2.8296,2.7805,2.6943,2.6987,2.6863,2.6109,2.4855,2.383,2.3406,2.3138,2.2695,2.1828,2.1407,2.0797,4.2098,3.8864,3.7512,3.7125,3.7398,3.704,3.7763,3.9123,3.8071,3.7767,3.7989,3.6854,3.5727,3.4706,3.4571,0.0,0.0,0.0,3.7795,3.9001,3.8537,3.8181,3.7936,3.7494,3.6857,3.6118,3.5658,3.5309,3.5001,3.4597,3.3032,3.0457,0.0,0.0,2.729,2.9004,3.005,3.0448,3.1804,3.2552,3.2641,3.2641,3.2261,3.1515,3.0953,3.0107,2.8933,2.7838,2.6887,2.6122,2.5149,2.4138,0.0,0.0,0.0,0.0,0.0,0.0,0.0,0.0,0.0,0.0,0.0,2.322,0.0,0.0,0.0,0.0,2.4365,2.541,2.6121,2.7075,0.0,0.0,0.0,0.0,0.0,0.0,0.0,3.0118,3.1368,3.2209,3.2453,3.2532,3.2482,3.2301,3.1969,3.1673,3.1405,0.0,3.1521,3.1439,3.1399,3.1245,3.0979,3.0623,3.0378,3.0279,3.0232,2.9979,2.9481,2.8969,2.8461,2.8144,2.7897,2.7634,2.732,2.6304,2.5347,2.4853,2.4217,2.3568,2.2993,2.2401,2.1504,4.539,4.4396,4.2142,4.1057,4.0881,4.081,4.118,4.1761,4.1094,4.12,4.1761,4.1061,4.0339,3.9582,3.8327,0.0,3.8884,3.8901,3.9666,4.0996,3.9977,3.9466,3.9353,3.8383,3.7567,3.69,3.69,3.69,3.6882,3.6882,3.6183,3.4743,3.1728,2.9772,2.9036,3.0196,3.1098,3.1686,3.3019,3.3659,3.3649,3.3624,3.3617,3.3512,3.2287,3.155,3.1382,2.9682,2.8646,2.8592,2.8086,2.7154,2.5863,0.0,0.0,0.0,0.0,0.0,0.0,0.0,0.0,0.0,0.0,0.0,0.0,0.0,0.0,0.0,2.5642,0.0,2.7809,2.9109,0.0,0.0,0.0,2.9804,2.9061,3.0848,3.1933,3.1479,0.0,0.0,3.391,0.0,3.4804,3.4586,3.4136,3.371,3.3339,3.2779,3.2391,3.225,3.2102,3.199,3.1916,3.1741,3.1481,3.117,3.094,3.0321,2.9582,2.8756,2.8319,2.8407,2.8035,2.7633,2.7734,2.7122,2.6687,2.6168,2.4939,2.396,2.4042,2.3036,2.1957,4.7189,4.6369,4.5184,4.3832,4.2406,4.1902,4.1798,4.194,4.1881,4.1958,4.2062,4.1317,4.0747,4.0275,3.9932,4.0382,4.1408,4.1427,4.1796,4.2314,4.0794,3.9865,3.9418,3.7954,3.7117,3.69,3.696,3.6962,3.698,3.698,3.6506,3.561,3.4772,3.3515,3.1983,3.2984,3.3411,3.3188,3.4052,3.4317,3.3919,3.3894,3.3652,3.3087,3.2749,3.2071,3.0999,3.0498,3.0003,2.9518,2.8871,2.8162,2.7328,2.5777,0.0,0.0,0.0,0.0,0.0,0.0,0.0,0.0,0.0,2.518,2.3249,0.0,2.6051,0.0,2.8275,2.9349,2.9505,2.983,0.0,0.0,3.0303,3.0453,3.1335,3.1338,3.1638,3.2493,3.3228,3.38,3.4141,3.4582,3.4875,3.4828,3.4529,3.4267,3.4043,3.3739,3.3481,3.334,3.3182,3.2969,3.2458,3.1674,3.1107,3.1011,3.0145,2.9328,2.903,2.8424,2.7926,2.7795,2.7547,2.7311,2.7234,2.6667,2.6217,2.6018,2.512,2.4112,2.351,2.3006,2.245,4.7498,4.7003,4.5828,4.4727,4.3698,4.2982,4.2676,4.2676,4.2733,4.2789,4.2753,4.2356,4.205,4.1848,4.1847,4.2207,4.28,4.247,4.2405,4.2522,4.0869,3.9931,3.957,3.8241,3.7596,3.756,3.7596,3.7632,3.7632,3.7614,3.7381,3.697,3.6737,3.6072,3.5003,3.503,3.4843,3.4395,3.5076,3.523,3.4721,3.4697,3.435,3.3647,3.3294,3.2601,3.1495,3.0933,3.0671,3.0633,3.0152,2.9544,2.8838,2.7896,2.6897,0.0,0.0,0.0,0.0,0.0,0.0,0.0,0.0,0.0,0.0,0.0,2.7486,0.0,3.001,3.1119,3.112,3.1867,3.2533,3.2923,3.2786,3.283,3.3298,3.3195,3.333,3.3827,3.4338,3.4714,3.4914,3.5138,3.5155,3.493,3.478,3.4618,3.4497,3.4284,3.4101,3.3915,3.372,3.3308,3.2604,3.1658,3.0946,3.0715,3.008,2.9409,2.8874,2.8251,2.7698,2.7502,2.7114,2.6856,2.6941,2.6448,2.5908,2.5594,2.4982,2.4198,2.3457,2.2957,2.2384,4.7039,4.6801,4.5369,4.4726,4.4654,4.388,4.3531,4.3479,4.3479,4.3479,4.3479,4.3479,4.3479,4.3479,4.3479,4.3479,4.3442,4.2671,4.2304,4.2196,4.059,3.9808,3.9772,3.885,3.8399,3.8399,3.8417,3.8415,3.8433,3.8433,3.8385,3.8305,3.7967,3.7685,3.7506,3.6573,3.5878,3.5443,3.6039,3.6195,3.5783,3.5761,3.5375,3.4542,3.3896,3.3114,3.2162,3.1239,3.1008,3.1579,3.1445,3.1064,3.0445,3.0338,2.9704,0.0,2.8158,0.0,0.0,0.0,0.0,0.0,0.0,0.0,0.0,2.828,2.8737,2.942,3.1423,3.2716,3.2804,3.4333,3.5271,3.5287,3.5499,3.5351,3.4718,3.5134,3.5391,3.5082,3.5634,3.5939,3.5831,3.5764,3.5487,3.5071,3.4906,3.4835,3.4756,3.4594,3.4423,3.4176,3.3809,3.3125,3.2269,3.1514,3.0892,3.0534,3.0125,2.9794,2.888,2.81,2.7544,2.7399,2.6831,2.6449,2.6783,2.6237,2.5704,2.5282,2.4717,2.4148,2.3603,2.2929,2.2302,4.6728,4.6085,4.5389,4.4949,4.4671,4.4132,4.373,4.3479,4.3479,4.3479,4.3479,4.3479,4.3479,4.3479,4.3479,4.3479,4.346,4.2653,4.2304,4.2231,4.0618,3.9855,3.9754,3.8896,3.8462,3.8399,3.8462,3.8494,3.8494,3.8494,3.8478,3.8446,3.8271,3.8019,3.7685,0.0,0.0,0.0,3.6729,3.6759,3.6661,3.6661,3.5978,3.4636,3.4444,0.0,3.1464,3.1742,3.1741,3.1336,3.1842,0.0,0.0,0.0,0.0,0.0,0.0,0.0,0.0,0.0,0.0,0.0,2.9404,2.9223,2.9209,3.0524,3.1726,3.2487,3.3535,3.4438,3.5103,3.5475,3.569,3.5688,3.5175,3.4772,3.4606,3.4193,3.4225,3.528,3.5225,3.5485,3.6394,3.6037,3.5549,3.5333,3.5071,3.4899,3.4875,3.478,3.457,3.4267,3.34,3.2431,3.1548,3.0868,3.037,3.0162,2.941,2.8854,2.8578,2.7965,2.7395,2.7234,2.6608,2.6104,2.6022,2.5604,2.5322,2.5096,2.4631,2.4041,2.3233,2.2904,2.2678,4.6141,0.0,4.5068,4.4702,0.0,4.4285,4.4102,4.3915,4.3631,4.3479,4.3479,4.3479,4.3479,4.3479,4.3479,4.3479,4.346,4.2653,4.2103,4.1645,4.0451,3.9682,3.925,3.881,3.8575,3.8546,3.8575,3.8609,3.8609,3.8609,3.8559,3.8491,3.8449,3.8269,3.8051,3.8204,3.7949,3.7208,3.7264,3.7188,3.696,3.6941,3.6415,3.5308,0.0,0.0,0.0,0.0,0.0,0.0,0.0,0.0,0.0,0.0,0.0,3.2014,3.1824,3.1871,3.23,3.2201,3.2404,3.3049,3.308,3.2643,3.1669,3.2726,3.376,3.4558,3.5344,3.5946,3.6345,3.6743,3.6834,3.6435,3.6037,3.5512,3.4769,3.4606,3.485,3.5512,3.573,3.6096,3.6835,3.656,3.6079,3.5705,3.5339,3.5142,3.5118,3.4954,3.4592,3.39,3.2619,3.1542,3.0935,3.0236,2.9729,2.9595,2.9179,2.8748,2.8535,2.8189,2.7835,2.7454,2.689,2.6431,2.6203,2.5783,2.5397,2.5272,2.4977,2.4523,2.3738,2.3228,2.2848,4.5571,4.5345,4.472,4.4438,4.4416,4.4452,4.4438,4.4374,0.0,0.0,0.0,4.3664,4.3646,4.3664,4.3664,4.3664,4.3609,4.2834,4.2007,4.1214,4.0403,3.9626,3.8873,3.8837,3.8837,3.8837,3.8795,3.8765,3.8765,3.8719,3.864,3.8559,3.851,3.846,3.8399,3.8433,3.8168,3.7685,3.7756,3.765,3.7267,3.723,3.6894,3.6149,3.6185,3.5456,3.3875,3.3683,3.3548,3.3433,3.3235,3.3145,3.3199,3.3872,3.4247,3.4279,3.511,3.5944,3.6632,3.6274,3.622,3.6721,3.639,3.5585,3.421,3.4615,3.5254,3.6033,3.6644,3.7049,3.7194,3.7792,3.7937,3.7267,3.7085,3.6451,3.5276,3.5424,3.5804,3.6039,3.6465,3.6912,3.7194,3.7034,3.6721,3.6165,3.5771,3.5453,3.5345,3.4922,3.4244,3.3308,3.2006,3.0852,3.0401,2.9872,2.9344,2.9277,2.9176,2.9006,2.8716,2.855,2.8304,2.7929,2.7378,2.6927,2.6718,2.619,2.5743,2.5564,2.5397,2.5076,2.4551,2.3767,2.3168,4.5265,4.4561,4.4707,4.4612,4.4411,4.465,4.463,4.4402,4.4299,4.4256,4.4289,4.427,4.427,4.4275,4.427,4.427,4.4233,4.3428,4.2604,0.0,4.0956,4.015,3.9401,3.9389,3.9389,3.9376,3.9156,3.9031,3.9017,3.8807,3.8673,3.8658,3.8559,3.8478,3.8433,3.8462,3.843,3.8267,3.8267,3.8285,3.8201,3.8201,3.782,3.7057,3.7021,3.6274,3.4709,3.523,3.5323,3.4794,3.5294,3.5648,3.5756,3.5844,3.5936,3.595,3.6295,3.6576,3.6688,3.678,3.6881,3.6918,3.6639,3.6233,3.5813,3.5742,3.6054,3.6835,3.7007,3.7303,3.7919,3.8136,3.8136,3.7955,3.7393,3.6886,3.6542,3.6127,3.6091,3.6689,3.6788,3.7085,3.7578,3.7355,3.6993,3.6696,3.6197,3.5825,3.5279,3.4476,3.3505,3.2659,3.1714,3.0807,3.0138,2.9784,2.9592,2.9464,2.9328,2.919,2.899,2.874,2.8511,2.8407,2.773,2.7159,2.6912,2.6431,2.6029,2.5784,2.5578,2.5369,2.5118,2.4551,2.4002,4.5299,4.4917,4.5023,4.5,4.4905,4.5023,4.5,4.4893,4.4875,4.4695,4.4397,4.4416,4.4416,4.4416,4.4416,4.4416,4.4397,4.4021,4.3157,4.1905,4.1524,4.0697,3.957,3.9495,3.9495,3.9502,3.9389,3.9324,3.9266,3.9045,3.8974,3.9096,3.8927,3.874,3.8578,3.8593,3.8593,3.858,3.8496,3.8462,3.8462,3.8462,3.828,3.7898,3.7982,3.7433,3.6218,3.6589,3.6468,3.5728,3.6039,3.6309,3.65,3.6513,3.6581,3.6669,3.6941,3.7288,3.7697,3.8256,3.8568,3.8568,3.8283,3.8095,3.7963,3.7081,3.6903,3.7699,3.7729,3.7792,3.8172,3.8209,3.8028,3.7593,3.7212,3.6832,3.6453,3.649,3.6598,3.6961,3.7293,3.7589,3.7845,3.7631,3.7338,3.7075,3.6419,3.5572,3.4896,3.3667,3.2757,3.2469,3.1528,3.0604,3.0006,2.9804,2.9665,2.9425,2.935,2.9236,2.9137,2.8897,2.885,2.8803,2.8286,2.7815,2.7515,2.7019,2.6537,2.6096,2.5921,2.5771,2.5564,2.5328,2.4738,4.5341,4.5277,4.5277,4.5277,4.5277,4.5277,4.5277,4.5277,4.5297,4.5042,4.4643,4.4604,4.4604,4.4604,4.4604,4.4604,4.4604,4.4604,4.3699,4.2209,4.2115,4.1228,3.9814,3.9682,3.9682,3.967,3.9623,3.958,3.9563,3.9324,3.9298,3.9464,3.9298,3.9069,3.8881,3.8825,3.8777,3.8795,3.8621,3.8541,3.8559,3.8559,3.8541,3.8541,3.8658,3.8365,3.768,3.7723,3.7504,3.6973,3.6932,3.7054,3.731,3.7336,3.7405,3.7568,3.7816,3.8265,3.8931,3.9606,3.9996,3.9986,3.9709,3.9556,3.9494,3.8359,3.783,3.8382,3.8318,3.8207,3.8225,3.8209,3.7937,3.7339,3.7285,3.7104,3.6544,3.6888,3.7267,3.7323,3.7743,3.8001,3.7951,3.7845,3.7667,3.7341,3.6343,3.5333,3.4742,3.338,3.2442,3.2367,3.1454,3.0458,3.013,3.0,2.9782,2.947,2.9373,2.9282,2.9144,2.9114,2.9114,2.9029,2.8756,2.8367,2.8061,2.764,2.7108,2.6628,2.6377,2.6204,2.5921,2.5839,2.5411,4.5361,4.5307,4.5297,4.5277,4.5277,4.5277,4.5277,4.5277,4.5277,4.5286,4.5173,4.5224,4.5203,4.5224,4.5184,4.5192,4.5184,4.5213,4.4287,4.2808,4.2714,4.1837,4.03,4.0215,4.0225,4.0195,3.9975,3.9851,3.984,3.9611,3.9471,3.9495,3.9477,3.9452,3.9401,3.9183,3.9059,3.9059,3.8807,3.8673,3.8692,3.8673,3.8692,3.8692,3.8707,3.8655,3.8557,3.8563,3.8659,3.8827,3.8799,3.8936,3.9158,3.9214,3.9227,3.9226,3.9479,3.9817,4.0082,4.0225,4.0253,4.0225,3.9916,3.9747,3.9829,3.9346,3.8919,3.8839,3.8525,3.8305,3.8309,3.8242,3.8154,3.8028,3.8028,3.8064,3.7902,3.8046,3.8083,3.8082,3.8119,3.8175,3.8141,3.8037,3.7845,3.7595,3.6476,3.5737,3.5789,3.4085,3.2632,3.2715,3.165,3.0659,3.0438,3.0295,3.0044,2.9782,2.9598,2.9412,2.9206,2.9114,2.9114,2.9068,2.8826,2.855,2.8367,2.811,2.764,2.7097,2.6811,2.6613,2.6096,2.5948,2.5633,4.538,4.5348,4.5317,4.5277,4.5277,4.5277,4.5277,4.5277,4.5277,4.5277,4.5277,4.5277,4.5277,4.5277,4.5277,4.5277,4.5258,4.4762,4.3921,4.2794,4.2278,4.1399,4.0396,4.032,4.032,4.0301,4.0186,4.0147,4.0127,4.0007,3.9815,3.9563,3.9658,3.967,3.9514,3.9401,3.9318,3.9318,3.9232,3.9183,3.9137,3.9003,3.8935,3.8931,3.9087,3.9183,3.9183,3.9183,3.9219,3.9324,3.9318,3.9446,3.9717,3.9739,3.9588,3.9252,3.9316,3.9424,3.9518,4.0005,4.032,4.032,4.0147,4.0078,4.0127,3.9785,3.9433,3.9125,3.8789,3.8478,3.834,3.8259,3.8209,3.8209,3.8209,3.8209,3.8209,3.8209,3.8209,3.8209,3.8209,3.8209,3.8192,3.8088,3.7897,3.7596,3.6681,3.6119,3.5911,3.4506,3.3377,3.2662,3.1926,3.1233,3.0659,3.038,3.0167,2.9875,2.971,2.9502,2.9282,2.9144,2.9114,2.9114,2.8959,2.8732,2.8527,2.8391,2.8076,2.753,2.6997,2.6736,2.6474,2.6447,2.634,4.5399,4.5359,4.5317,4.5277,4.5277,4.5277,4.5277,4.5277,4.5277,4.5277,4.5277,4.5277,4.5277,4.5277,4.5277,4.5182,4.4876,4.4274,4.3433,4.2469,4.1781,4.1055,4.0358,4.032,4.032,4.032,4.0301,4.032,4.032,4.032,4.0106,3.9804,3.9914,3.9922,3.9747,3.9658,3.9623,3.9611,3.9532,3.9495,3.9471,3.9389,3.9285,3.9232,3.9383,3.9495,3.9495,3.9495,3.952,3.9592,3.9623,3.9728,3.9986,4.0007,3.9812,3.9432,3.9355,3.9355,3.9355,3.9957,4.032,4.032,4.032,4.032,4.0253,4.0067,3.9773,3.9445,3.9122,3.8774,3.8354,3.8224,3.8209,3.8209,3.8209,3.8209,3.8209,3.8209,3.8209,3.8209,3.8209,3.8209,3.8192,3.8123,3.8002,3.7738,3.6988,3.6398,3.5937,3.5095,3.3938,3.2825,3.2483,3.1769,3.0713,3.0417,3.0231,3.0022,2.9842,2.9643,2.9403,2.9259,2.9137,2.9137,2.9114,2.9068,2.8842,2.8661,2.8479,2.7885,2.7382,2.7063,2.6963,2.6963,2.6884,4.5429,4.5298,4.5288,4.5307,4.5277,4.5307,4.5307,4.5307,4.5307,4.5288,4.5277,4.5277,4.5277,4.5277,4.5277,4.4838,4.414,4.3987,4.31,4.1724,4.1495,4.1055,4.0339,4.032,4.032,4.032,4.032,4.032,4.032,4.0301,4.0272,4.0273,4.0244,4.0282,4.0205,3.9996,3.9892,3.987,3.967,3.952,3.9563,3.9758,3.9796,3.9607,3.9514,3.9532,3.952,3.9508,3.9635,3.9881,3.9862,4.0007,4.0244,4.0282,4.0244,4.0205,4.0205,4.0205,4.0186,4.0244,4.032,4.032,4.032,4.032,4.0301,4.0196,4.0007,3.9705,3.9477,3.9105,3.8449,3.8272,3.8225,3.8209,3.8209,3.8209,3.8209,3.8209,3.8209,3.8209,3.8209,3.8209,3.8209,3.8192,3.8105,3.7858,3.718,3.6738,3.6895,3.5825,3.4712,3.3842,3.3083,3.2156,3.0871,3.0459,3.0354,3.0189,2.9979,2.976,2.956,2.9396,2.9259,2.9144,2.9144,2.9121,2.9091,2.8959,2.8756,2.8359,2.7953,2.767,2.7299,2.735,2.7196,4.54,4.5359,4.5378,4.5359,4.5359,4.537,4.537,4.5359,4.5378,4.5357,4.5307,4.5277,4.5277,4.5277,4.5277,4.4819,4.4006,4.3482,4.2603,4.1514,4.0979,4.0597,4.0339,4.032,4.032,4.032,4.032,4.032,4.032,4.032,4.032,4.032,4.032,4.032,4.0272,4.0196,4.0157,4.0128,4.0057,4.0007,4.0091,4.0603,4.0869,4.075,4.0273,4.0007,4.0007,4.0007,4.0038,4.0157,4.0157,4.0196,4.0291,4.032,4.032,4.032,4.032,4.032,4.032,4.032,4.032,4.032,4.032,4.0358,4.0291,4.0215,4.0058,3.9766,3.9508,3.9119,3.8688,3.8462,3.832,3.8242,3.8209,3.8209,3.8209,3.8209,3.8209,3.8209,3.8209,3.8209,3.8209,3.8209,3.8157,3.8018,3.7681,3.7506,3.7398,3.6805,3.5918,3.4858,3.4264,3.3569,3.2126,3.1002,3.0438,3.0316,3.0167,3.0049,2.9891,2.9723,2.9621,2.9373,2.9305,2.9167,2.916,2.8912,2.874,2.8622,2.8247,2.7993,2.7478,2.7514,2.7284,4.5419,4.5419,4.5419,4.5409,4.5419,4.541,4.54,4.5409,4.5409,4.537,4.5339,4.5339,4.5339,4.5339,4.5319,4.4869,4.3989,4.3167,4.2316,4.1476,4.0664,4.032,4.032,4.032,4.032,4.032,4.032,4.032,4.032,4.032,4.032,4.032,4.032,4.032,4.032,4.032,4.032,4.032,4.032,4.0416,4.0711,4.1208,4.1648,4.18,4.138,4.1122,4.1103,4.1103,4.1094,4.1113,4.1103,4.1113,4.1122,4.1113,4.1113,4.1103,4.1122,4.1113,4.1103,4.1084,4.1132,4.1122,4.1122,4.1113,4.1084,4.1026,4.0745,4.0336,3.9976,3.9594,3.8931,3.8628,3.8449,3.8276,3.8209,3.8209,3.8209,3.8209,3.8209,3.8209,3.8209,3.8209,3.8209,3.8209,3.8157,3.8071,3.7985,3.7863,3.7703,3.7504,3.6845,3.5385,3.4957,3.413,3.2983,3.1851,3.152,3.1401,3.1111,3.0817,3.0446,3.0249,2.9964,2.9679,2.9441,2.9321,2.9098,2.8873,2.874,2.8669,2.8622,2.8431,2.8008,2.7675,2.7448,4.5438,4.5485,4.5448,4.54,4.541,4.5419,4.541,4.541,4.541,4.54,4.539,4.54,4.541,4.541,4.5409,4.4939,4.4172,4.334,4.2479,4.1619,4.0864,4.053,4.053,4.0587,4.0587,4.0549,4.0396,4.0377,4.053,4.0492,4.0435,4.0377,4.0435,4.0396,4.032,4.0387,4.0377,4.0435,4.0511,4.0826,4.1399,4.1667,4.2087,4.2717,4.2794,4.2813,4.2813,4.2698,4.2584,4.2622,4.266,4.2737,4.2584,4.2584,4.2679,4.2584,4.2679,4.2717,4.2679,4.2603,4.2507,4.2526,4.266,4.2507,4.244,4.2467,4.212,4.1385,4.096,4.0408,3.9305,3.8862,3.8535,3.8257,3.8209,3.8209,3.8209,3.8209,3.8209,3.8209,3.8209,3.8209,3.8209,3.8209,3.8192,3.8157,3.8088,3.7967,3.7881,3.7757,3.6928,3.5767,3.5307,3.4939,3.3789,3.2757,3.2757,3.2702,3.2326,3.1984,3.1402,3.1089,3.0591,3.0241,2.9663,2.9489,2.9282,2.9059,2.9029,2.8959,2.8897,2.8795,2.8383,2.8018,2.7785,4.5485,4.5504,4.5466,4.5457,4.5466,4.5513,4.5513,4.5476,4.5457,4.5438,4.541,4.541,4.541,4.54,4.541,4.5246,4.4919,4.4096,4.3225,4.2479,4.2125,4.1953,4.1972,4.1991,4.203,4.1915,4.1399,4.1437,4.1781,4.1399,4.1113,4.1132,4.1132,4.0826,4.0435,4.0826,4.1113,4.1189,4.1743,4.2163,4.245,4.2947,4.3357,4.3643,4.4188,4.4513,4.4475,4.3424,4.2832,4.2832,4.2794,4.2794,4.2813,4.2794,4.2794,4.2794,4.2794,4.2794,4.2794,4.2813,4.2851,4.2813,4.2813,4.2794,4.2794,4.2841,4.2597,4.2044,4.1731,4.1055,3.9966,3.9439,3.9039,3.828,3.8209,3.8209,3.8209,3.8209,3.8209,3.8209,3.8209,3.8209,3.8209,3.8209,3.8209,3.8209,3.8157,3.8106,3.8003,3.7898,3.7523,3.6527,3.628,3.5876,3.4895,3.4202,3.4125,3.3784,3.3338,3.2894,3.2341,3.1912,3.1401,3.0782,3.0186,2.9791,2.9569,2.948,2.9522,2.9287,2.9171,2.892,2.859,2.8319,2.8067,4.5531,4.5531,4.5531,4.555,4.555,4.5605,4.5577,4.555,4.555,4.5513,4.5485,4.5466,4.5476,4.5476,4.5438,4.5458,4.5371,4.4825,4.4298,4.3675,4.2976,4.2804,4.2775,4.2785,4.2794,4.2717,4.224,4.2259,4.2756,4.2259,4.1972,4.1972,4.1972,4.1762,4.1285,4.1705,4.1982,4.2087,4.2488,4.2947,4.3291,4.372,4.4159,4.4494,4.501,4.5258,4.522,4.4265,4.373,4.373,4.373,4.373,4.373,4.3768,4.373,4.373,4.3749,4.3749,4.373,4.3825,4.373,4.373,4.3711,4.373,4.373,4.373,4.3503,4.2879,4.2542,4.1861,4.0707,4.0203,3.9738,3.9133,3.8518,3.8263,3.8209,3.8209,3.8209,3.8209,3.8209,3.8209,3.8209,3.8209,3.8209,3.8209,3.8209,3.8192,3.8088,3.8055,3.7631,3.7246,3.6911,3.6466,3.6075,3.5713,3.5504,3.4936,3.4295,3.3742,3.3164,3.2894,3.2473,3.1657,3.1014,3.0745,3.0537,3.0455,3.0417,3.0005,2.969,2.9493,2.9288,2.8667,2.835,4.5594,4.5594,4.5586,4.5586,4.5586,4.5594,4.5594,4.5586,4.5586,4.5586,4.5586,4.5577,4.5605,4.5577,4.5522,4.5514,4.5475,4.5371,4.5247,4.4796,4.3895,4.3196,4.3226,4.3274,4.3264,4.3148,4.2947,4.2966,4.3214,4.2966,4.2851,4.287,4.2851,4.2794,4.2622,4.2794,4.2851,4.287,4.3004,4.3463,4.4045,4.4121,4.4446,4.5182,4.5239,4.5277,4.5258,4.5116,4.5125,4.5239,4.5078,4.5029,4.5201,4.5288,4.5105,4.5078,4.5231,4.5125,4.5201,4.501,4.5059,4.501,4.501,4.5277,4.5048,4.4934,4.4568,4.3703,4.3402,4.2703,4.1545,4.1046,4.0756,4.0364,3.9205,3.848,3.8299,3.8281,3.8209,3.8209,3.8209,3.8209,3.8209,3.8209,3.8209,3.8209,3.8209,3.8192,3.8192,3.8089,3.7897,3.7614,3.7339,3.7055,3.662,3.6291,3.6054,3.5554,3.4964,3.4422,3.3885,3.3591,3.3154,3.2373,3.1863,3.1648,3.147,3.1331,3.123,3.0999,3.0696,3.0394,3.0014,2.9515,2.9199,4.5559,4.5586,4.554,4.554,4.5594,4.5594,4.5594,4.5594,4.5594,4.5594,4.5594,4.5594,4.5594,4.5594,4.5577,4.5559,4.5504,4.5466,4.5438,4.5343,4.4998,4.4729,4.4719,4.47,4.4651,4.4504,4.3959,4.4017,4.4551,4.3959,4.3701,4.3682,4.3682,4.3386,4.2966,4.3424,4.3643,4.3787,4.436,4.4647,4.4857,4.4914,4.5048,4.5239,4.5277,4.5277,4.5277,4.5277,4.5277,4.5277,4.5277,4.5277,4.5277,4.5277,4.5277,4.5277,4.5277,4.5277,4.5277,4.5277,4.5277,4.5277,4.5277,4.5277,4.5277,4.5277,4.4928,4.4335,4.4073,4.3486,4.2269,4.1873,4.1516,4.0738,3.9835,3.9149,3.9001,3.8587,3.8209,3.8209,3.8209,3.8209,3.8209,3.8209,3.8209,3.8209,3.8209,3.8209,3.8209,3.8192,3.8019,3.7916,3.7685,3.7485,3.7186,3.6856,3.6471,3.6028,3.5509,3.5038,3.4492,3.4038,3.3442,3.2706,3.251,3.2302,3.2177,3.2069,3.1956,3.2032,3.159,3.127,3.1109,3.0725,3.0581,4.5513,4.5586,4.5541,4.555,4.5594,4.5594,4.5594,4.5594,4.5594,4.5594,4.5594,4.5594,4.5594,4.5594,4.5594,4.5558,4.555,4.5531,4.5513,4.5495,4.5428,4.539,4.5381,4.54,4.537,4.53,4.481,4.4857,4.5125,4.4762,4.459,4.4551,4.4551,4.4284,4.4017,4.4265,4.4532,4.4628,4.5067,4.5277,4.5277,4.5277,4.5277,4.5277,4.5277,4.5277,4.5277,4.5277,4.5277,4.5277,4.5277,4.5277,4.5277,4.5277,4.5277,4.5277,4.5277,4.5277,4.5277,4.5277,4.5277,4.5277,4.5277,4.5277,4.5256,4.5184,4.4862,4.446,4.4318,4.3708,4.2998,4.2663,4.2391,4.1972,4.1066,4.0233,3.9632,3.9039,3.8553,3.8336,3.8209,3.8209,3.8227,3.8227,3.8209,3.8209,3.8209,3.8209,3.8209,3.8192,3.8157,3.8038,3.7969,3.7793,3.7684,3.7407,3.7036,3.6572,3.5832,3.5402,3.4988,3.4469,3.4021,3.3485,3.3224,3.304,3.304,3.3088,3.3216,3.3089,3.2579,3.2233,3.2079,3.1845,3.1707,4.5503,4.5594,4.5521,4.5549,4.5594,4.5594,4.5594,4.5594,4.5594,4.5594,4.5594,4.5594,4.5594,4.5594,4.5594,4.5594,4.5586,4.5586,4.5586,4.5577,4.5577,4.5541,4.5457,4.5419,4.538,4.5339,4.5317,4.5269,4.5258,4.522,4.5239,4.5163,4.5201,4.5258,4.501,4.5182,4.5258,4.5182,4.522,4.5277,4.5277,4.5277,4.5277,4.5277,4.5277,4.5277,4.5277,4.5277,4.5277,4.5277,4.5277,4.5277,4.5277,4.5277,4.5277,4.5277,4.5277,4.5277,4.5277,4.5277,4.5277,4.5277,4.5277,4.5277,4.5246,4.5034,4.4733,4.4443,4.4166,4.3807,4.3406,4.3249,4.3176,4.2992,4.2465,4.141,4.0195,3.9637,3.9241,3.8554,3.8445,3.8336,3.8317,3.8263,3.8209,3.8209,3.8209,3.8209,3.8209,3.8192,3.8192,3.8175,3.8125,3.8075,3.8024,3.7972,3.7584,3.7136,3.6165,3.5594,3.5301,3.4894,3.4629,3.4296,3.3991,3.4018,3.4244,3.4339,3.4284,3.4072,3.3486,3.3307,3.3153,3.2797,3.257,4.5711,4.5603,4.5618,4.5621,4.5603,4.5594,4.5594,4.5594,4.5594,4.5594,4.5594,4.5594,4.5594,4.5594,4.5594,4.5594,4.5594,4.5594,4.5594,4.5594,4.5594,4.5586,4.5522,4.5448,4.538,4.5329,4.5298,4.5288,4.5277,4.5277,4.5277,4.5277,4.5277,4.5277,4.5277,4.5277,4.5277,4.5277,4.5277,4.5277,4.5277,4.5277,4.5277,4.5277,4.5277,4.5277,4.5277,4.5277,4.5277,4.5277,4.5277,4.5277,4.5277,4.5277,4.5277,4.5277,4.5277,4.5277,4.5277,4.5277,4.5277,4.5277,4.5277,4.5277,4.5267,4.5026,4.4732,4.443,4.4166,4.3997,4.3624,4.3448,4.3448,4.3392,4.312,4.2539,4.1611,4.0831,4.0272,3.9912,3.9441,3.9151,3.9115,3.8607,3.8444,3.8281,3.8264,3.8263,3.8319,3.8427,3.8536,3.8717,3.8682,3.874,3.8868,3.8798,3.8468,3.7927,3.695,3.6173,3.5863,3.5329,3.5057,3.4905,3.4733,3.4842,3.4859,3.4811,3.4616,3.4503,3.4374,3.4137,3.3884,3.36,3.3437,4.574,4.568,4.5621,4.5618,4.5594,4.5594,4.5594,4.5594,4.5594,4.5594,4.5594,4.5594,4.5594,4.5594,4.5594,4.5594,4.5594,4.5594,4.5594,4.5594,4.5594,4.5577,4.555,4.5467,4.5371,4.533,4.5298,4.5288,4.5277,4.5277,4.5277,4.5277,4.5277,4.5277,4.5277,4.5277,4.5277,4.5277,4.5277,4.5277,4.5277,4.5277,4.5277,4.5277,4.5277,4.5277,4.5277,4.5277,4.5277,4.5277,4.5277,4.5277,4.5277,4.5277,4.5277,4.5277,4.5277,4.5277,4.5277,4.5277,4.5277,4.5277,4.5277,4.5545,4.56,4.5456,4.5389,4.541,4.518,4.4716,4.4139,4.405,4.394,4.3535,4.341,4.312,4.2629,4.1831,4.1016,4.0618,4.0112,3.9967,3.9713,3.9315,3.9297,3.9405,3.946,3.9441,3.9514,3.9586,3.9514,3.9568,3.946,3.9497,3.9715,3.9662,3.9422,3.8812,3.8011,3.7335,3.6883,3.6171,3.547,3.5276,3.5085,3.4961,3.4977,3.493,3.4899,3.4754,3.4642,3.4643,3.4553,3.4274,3.4193,4.5612,4.5793,4.5607,4.5558,4.5586,4.5586,4.5586,4.5594,4.5594,4.5594,4.5594,4.5594,4.5594,4.5594,4.5594,4.5594,4.5594,4.5594,4.5594,4.5594,4.5594,4.5577,4.5541,4.5476,4.541,4.539,4.5339,4.5307,4.5277,4.5277,4.5277,4.5277,4.5277,4.5277,4.5277,4.5277,4.5277,4.5277,4.5277,4.5277,4.5277,4.5277,4.5277,4.5277,4.5277,4.5277,4.5277,4.5277,4.5277,4.5277,4.5277,4.5277,4.5277,4.5277,4.5277,4.5277,4.5277,4.5277,4.5277,4.5277,4.5277,4.5277,4.5277,4.5564,4.5905,4.5622,4.5538,4.5709,4.553,4.4983,4.4728,4.4342,4.414,4.3828,4.3626,4.3481,4.3266,4.2595,4.1832,4.1234,4.0926,4.0727,4.0583,4.0329,4.0438,4.0528,4.0546,4.0546,4.0582,4.0492,4.0329,4.0166,4.0003,4.0293,4.0528,4.0637,4.0379,3.9958,3.9148,3.8611,3.8096,3.7711,3.7025,3.569,3.5333,3.5228,3.5081,3.4947,3.4899,3.4899,3.4875,3.4804,3.4828,3.4899,3.4853,4.5287,4.58,4.5715,4.5648,4.5594,4.5531,4.5521,4.5586,4.5594,4.5594,4.5594,4.5594,4.5594,4.5594,4.5594,4.5594,4.5594,4.5594,4.5594,4.5594,4.5594,4.5586,4.5568,4.5504,4.5448,4.541,4.535,4.5307,4.5277,4.5277,4.5277,4.5277,4.5277,4.5277,4.5277,4.5277,4.5277,4.5277,4.5277,4.5277,4.5277,4.5277,4.5277,4.5277,4.5277,4.5277,4.5277,4.5277,4.5277,4.5277,4.5297,4.5316,4.5373,4.5373,4.5354,4.5277,4.5277,4.5277,4.5277,4.5277,4.5277,4.5277,4.5277,4.5316,4.5398,4.5086,4.5111,4.4898,4.4689,4.4213,4.4654,4.4287,4.4121,4.4103,4.3883,4.3481,4.3357,4.3086,4.2796,4.2323,4.1887,4.1488,4.1379,4.1234,4.1162,4.1144,4.1107,4.1071,4.1053,4.089,4.0691,4.0546,4.0401,4.0872,4.1361,4.1451,4.1377,4.1141,4.0557,4.0014,3.9624,3.9487,3.8719,3.7206,3.5983,3.5524,3.5305,3.5101,3.5015,3.5098,3.5015,3.4949,3.5247,3.5495,3.528,4.4889,4.5144,4.504,4.518,4.5369,4.5034,4.5148,4.554,4.5577,4.5594,4.5594,4.5594,4.5594,4.5594,4.5594,4.5594,4.5594,4.5594,4.5594,4.5594,4.5594,4.5594,4.5586,4.5522,4.5476,4.5419,4.537,4.5328,4.5288,4.5277,4.5297,4.5277,4.5277,4.5277,4.5277,4.5277,4.5277,4.5277,4.5277,4.5277,4.5277,4.5277,4.5277,4.5277,4.5277,4.5277,4.5277,4.5277,4.5277,4.5373,4.5698,4.587,4.5927,4.5889,4.5736,4.543,4.5316,4.5297,4.5297,4.5277,4.5277,4.5277,4.5277,4.5461,4.5513,4.538,4.4986,4.5008,4.4998,4.469,4.4727,4.4287,4.4176,4.3975,4.3699,4.3518,4.3394,4.3269,4.3196,4.3104,4.2649,4.2285,4.2303,4.2103,4.1868,4.1759,4.1705,4.1633,4.1578,4.1506,4.1397,4.1452,4.1433,4.1633,4.2049,4.2085,4.214,4.1958,4.1722,4.1178,4.0814,4.0552,3.9702,3.8474,3.74,3.652,3.5753,3.5599,3.5457,3.5387,3.5479,3.5644,3.5943,3.6059,3.5876,4.4204,4.4333,4.4133,4.4381,4.4786,4.4479,4.4641,4.5225,4.5519,4.5594,4.5594,4.5594,4.5594,4.5594,4.5594,4.5594,4.5594,4.5594,4.5594,4.5594,4.5594,4.5594,4.5586,4.5531,4.5485,4.5419,4.539,4.535,4.5317,4.5317,4.5317,4.5307,4.5307,4.5307,4.5307,4.5297,4.5277,4.5277,4.5277,4.5277,4.5277,4.5277,4.5277,4.5277,4.5277,4.5277,4.5277,4.5277,4.5449,4.5698,4.6099,4.6557,4.671,4.6748,4.6443,4.5889,4.5536,4.5373,4.5507,4.5297,4.5256,4.5162,4.5203,4.5403,4.5433,4.5214,4.5134,4.54,4.5241,4.5094,4.4709,4.4507,4.425,4.3993,4.3699,4.3463,4.3394,4.3287,4.3178,4.3086,4.2994,4.2847,4.272,4.2665,4.2357,4.2339,4.2303,4.2339,4.2303,4.2429,4.2411,4.2556,4.2592,4.2592,4.2683,4.2629,4.2629,4.2538,4.232,4.1975,4.1666,4.1392,4.0544,3.9924,3.9038,3.8157,3.7155,3.6236,3.6226,3.6224,3.6214,3.6307,3.6506,3.6655,3.6605,4.2847,4.3458,4.3289,4.3236,4.3367,4.3914,4.4268,4.4563,4.5299,4.5594,4.5594,4.5594,4.5594,4.5586,4.5594,4.5594,4.5594,4.5594,4.5594,4.5594,4.5594,4.5594,4.5594,4.5594,4.5513,4.5429,4.5419,4.538,4.5338,4.5367,4.5348,4.5328,4.5348,4.5367,4.5307,4.5277,4.5277,4.5277,4.5277,4.5277,4.5277,4.5277,4.5277,4.5277,4.5354,4.5392,4.5468,4.5545,4.5793,4.6347,4.6481,4.694,4.7474,4.7654,4.7635,4.7081,4.6366,4.5621,4.6042,4.5608,4.5132,4.4969,4.4898,4.4777,4.4729,4.4487,4.4209,4.3785,4.39,4.4176,4.4378,4.4066,4.403,4.3993,4.3791,4.3554,4.3394,4.3269,4.3178,4.3086,4.2994,4.2938,4.2847,4.2883,4.2883,4.2901,4.2919,4.2919,4.2919,4.2919,4.2919,4.2919,4.2919,4.2919,4.2919,4.2919,4.2919,4.2919,4.2755,4.2574,4.2356,4.2118,4.2294,4.1586,4.0709,3.9617,3.8434,3.7664,3.725,3.7066,3.7093,3.7053,3.7003,3.7152,3.74,4.1945,4.2535,4.2389,4.2544,4.2936,4.3357,4.3825,4.4428,4.5222,4.5594,4.5594,4.5594,4.5577,4.5568,4.5577,4.5577,4.5559,4.5577,4.5594,4.5594,4.5594,4.5594,4.5594,4.5586,4.5531,4.5457,4.5419,4.539,4.536,4.5369,4.5369,4.5359,4.5369,4.5359,4.5288,4.5277,4.5277,4.5277,4.5277,4.5277,4.5277,4.5277,4.5297,4.5316,4.5736,4.5908,4.6061,4.6538,4.6806,4.733,4.7627,4.8105,4.843,4.8582,4.8678,4.9068,4.7635,4.6768,4.6432,4.5616,4.5155,4.4845,4.4707,4.4476,4.4192,4.3979,4.3754,4.3532,4.3497,4.3736,4.4011,4.3699,4.3736,4.3773,4.3773,4.361,4.3394,4.3269,4.316,4.3068,4.2994,4.2957,4.2938,4.2938,4.2919,4.2919,4.2919,4.2919,4.2919,4.2919,4.2919,4.2919,4.2919,4.2919,4.2919,4.2919,4.2919,4.2919,4.2919,4.2774,4.2828,4.2789,4.2804,4.2804,4.2106,4.0967,3.9714,3.8846,3.8225,3.8068,3.7968,3.807,3.8162,3.8288,3.8503,4.1248,4.1687,4.1506,4.1758,4.2333,4.2769,4.3372,4.4044,4.5145,4.5594,4.5594,4.5594,4.5577,4.555,4.5577,4.5577,4.5541,4.5577,4.5586,4.5594,4.5594,4.5594,4.5594,4.5586,4.5568,4.5504,4.5448,4.5429,4.5419,4.539,4.538,4.5369,4.538,4.5339,4.5298,4.5277,4.5277,4.5277,4.5277,4.5277,4.5277,4.5277,4.546,4.5717,4.6137,4.6596,4.6901,4.7311,4.7693,4.8239,4.8602,4.8965,4.9308,4.9423,4.9595,4.971,4.8678,4.78,4.7129,4.6333,4.5533,4.5234,4.4956,4.4879,4.4633,4.4223,4.4103,4.4287,4.4287,4.4232,4.4084,4.4048,4.3956,4.3901,4.3717,4.3555,4.3448,4.3396,4.3287,4.3142,4.3087,4.305,4.3013,4.2975,4.2938,4.2919,4.2919,4.2919,4.2919,4.2919,4.2919,4.2919,4.2919,4.2919,4.2919,4.2919,4.2919,4.2919,4.2919,4.2919,4.29,4.29,4.2881,4.29,4.2919,4.2388,4.1193,4.0162,3.9219,3.9221,3.9253,3.9376,3.9471,3.9516,3.9372,4.0834,4.0874,4.0752,4.0688,4.0799,4.2337,4.3035,4.3361,4.4885,4.5537,4.5594,4.5594,4.5586,4.5586,4.5586,4.5586,4.5586,4.5594,4.5594,4.5594,4.5594,4.5594,4.5594,4.5586,4.5558,4.5513,4.5466,4.5485,4.5495,4.5429,4.539,4.5338,4.538,4.533,4.5309,4.5277,4.5277,4.5335,4.5392,4.5383,4.5392,4.5488,4.5793,4.6271,4.6519,4.6871,4.7665,4.796,4.8334,4.8965,4.9175,4.95,4.9901,5.0015,5.0168,4.9996,4.948,4.8729,4.8163,4.7333,4.6922,4.6592,4.6115,4.5563,4.542,4.5643,4.5663,4.5443,4.5259,4.5406,4.5296,4.5149,4.469,4.4525,4.4305,4.3976,4.3832,4.3631,4.3487,4.3269,4.3287,4.3451,4.3687,4.3777,4.3213,4.314,4.2956,4.2956,4.2919,4.2919,4.2919,4.2919,4.2919,4.2919,4.2919,4.2919,4.2919,4.2919,4.2919,4.2919,4.2919,4.2919,4.2919,4.2919,4.29,4.2828,4.2699,4.1609,4.0817,4.0598,4.0485,4.0328,4.0165,4.0044,3.9859,4.0746,4.0715,4.0589,4.0492,4.0537,4.1745,4.256,4.3184,4.4297,4.5152,4.5594,4.5594,4.5577,4.5568,4.5577,4.5577,4.5559,4.5605,4.5586,4.5594,4.5594,4.5594,4.5594,4.5594,4.5586,4.5559,4.5541,4.5504,4.5495,4.5476,4.5429,4.5399,4.538,4.5339,4.5298,4.5297,4.5316,4.5488,4.5717,4.5851,4.5555,4.6385,4.6748,4.6462,4.7799,4.8143,4.864,4.9137,4.948,4.971,4.9786,5.0015,5.0206,5.0283,5.029,5.0236,4.9732,4.9435,4.8986,4.7971,4.6869,4.6349,4.6008,4.5957,4.6085,4.5957,4.592,4.5865,4.5993,4.6122,4.5828,4.5626,4.5424,4.5351,4.5076,4.4636,4.4362,4.4198,4.4144,4.409,4.4127,4.4235,4.4509,4.4745,4.3997,4.3341,4.3159,4.3048,4.3155,4.3155,4.3208,4.3155,4.3118,4.2955,4.2937,4.2937,4.2919,4.2919,4.2919,4.2919,4.2919,4.2919,4.2919,4.2919,4.2919,4.2864,4.2789,4.2693,4.2259,4.167,4.1247,4.0983,4.0803,4.0607,4.0407,4.0713,4.0681,4.0564,4.0496,4.0612,4.1431,4.2143,4.2835,4.3874,4.4778,4.5594,4.5594,4.5577,4.5559,4.5568,4.5577,4.5549,4.5577,4.5586,4.5594,4.5594,4.5594,4.5594,4.5594,4.5594,4.5605,4.5568,4.5522,4.555,4.5504,4.5467,4.5429,4.5408,4.5359,4.5298,4.5297,4.5392,4.5793,4.6061,4.6519,4.6233,4.7054,4.7837,4.7417,4.8449,4.9079,4.9423,4.9824,5.0073,5.0187,5.0225,5.0264,5.0302,5.029,5.0236,5.012,4.9942,4.973,4.9144,4.8423,4.7225,4.6984,4.682,4.6746,4.6617,4.6617,4.6856,4.6783,4.6709,4.6599,4.6526,4.6489,4.6305,4.6177,4.5736,4.5315,4.5168,4.5022,4.5004,4.4986,4.5041,4.504,4.515,4.5369,4.5056,4.4416,4.4228,4.4116,4.4079,4.3987,4.3788,4.3643,4.3425,4.319,4.2955,4.3028,4.3046,4.2919,4.2919,4.2919,4.2919,4.2992,4.2973,4.2919,4.2919,4.2919,4.2899,4.2823,4.2671,4.2442,4.2053,4.1661,4.142,4.1218,4.1076,4.0694,4.0681,4.0564,4.0496,4.0593,4.1431,4.1808,4.2173,4.3605,4.4786,4.5556,4.5594,4.5577,4.5568,4.5541,4.5513,4.5522,4.555,4.5577,4.5586,4.5594,4.5594,4.5594,4.5594,4.5594,4.5594,4.5586,4.5577,4.5605,4.5531,4.5476,4.5486,4.5514,4.554,4.5345,4.5316,4.5717,4.6385,4.6577,4.7092,4.7398,4.7845,4.8411,4.8621,4.9041,4.9576,4.9977,5.0149,5.0302,5.0302,5.0302,5.0302,5.0302,5.0302,5.0156,4.9889,4.9817,4.9468,4.888,4.8739,4.8345,4.7941,4.77,4.781,4.8067,4.8122,4.7939,4.7664,4.7884,4.8012,4.7884,4.7535,4.7223,4.6947,4.6526,4.6177,4.603,4.5865,4.5865,4.5847,4.5865,4.5865,4.5902,4.5938,4.5899,4.5619,4.539,4.5222,4.5004,4.4767,4.4497,4.4313,4.4059,4.3932,4.3697,4.33,4.3137,4.301,4.3173,4.3425,4.3444,4.3516,4.3389,4.3118,4.3318,4.3661,4.3353,4.3009,4.3201,4.3392,4.2745,4.2314,4.2082,4.2101,4.2259,4.0559,4.0571,4.0519,4.0496,4.0535,4.0804,4.1239,4.2047,4.3528,4.4786,4.5479,4.5594,4.5466,4.539,4.5332,4.5342,4.5342,4.5361,4.539,4.5586,4.5594,4.5594,4.5594,4.5586,4.5594,4.5594,4.5594,4.5586,4.5594,4.5568,4.5495,4.5486,4.5787,4.612,4.6099,4.6156,4.6519,4.7341,4.7837,4.8181,4.7998,4.8793,4.9308,4.9194,4.9595,4.9996,5.0264,5.0302,5.0302,5.0302,5.0302,5.0302,5.029,5.0271,5.012,4.9803,4.9627,4.9161,4.8676,4.8421,4.8402,4.8344,4.8324,4.8324,4.8324,4.8324,4.8306,4.8324,4.8324,4.8324,4.8159,4.8086,4.7883,4.7902,4.7572,4.7223,4.6984,4.6801,4.6709,4.6709,4.6691,4.7021,4.7168,4.6966,4.6853,4.6612,4.6387,4.5868,4.5576,4.5373,4.5136,4.504,4.4874,4.4747,4.455,4.417,4.4079,4.4132,4.4349,4.4657,4.4566,4.4204,4.4295,4.4258,4.4367,4.4476,4.4204,4.4077,4.4385,4.4379,4.3876,4.3672,4.3699,4.3935,4.4263,4.0496,4.0496,4.0496,4.0496,4.0496,4.0496,4.0989,4.197,4.3278,4.4355,4.5038,4.5331,4.5371,4.5211,4.5126,4.5159,4.5191,4.5211,4.5342,4.5568,4.5594,4.5594,4.5586,4.5577,4.5559,4.5568,4.5568,4.5568,4.5549,4.5586,4.5649,4.5795,4.6039,4.6486,4.6731,4.7101,4.7398,4.8143,4.8659,4.8907,4.906,4.9538,4.9977,4.9824,4.9958,5.0302,5.0302,5.0302,5.0302,5.0302,5.0302,5.0302,5.0271,5.0156,4.9981,4.9627,4.9161,4.8781,4.8439,4.8325,4.8325,4.8324,4.8324,4.8324,4.8324,4.8324,4.8324,4.8324,4.8324,4.8324,4.8324,4.8324,4.8306,4.8288,4.8159,4.7792,4.7681,4.748,4.7443,4.7443,4.748,4.7902,4.8141,4.8102,4.788,4.7623,4.7348,4.6775,4.6275,4.62,4.6015,4.5865,4.5715,4.5571,4.539,4.5116,4.5096,4.5254,4.5399,4.5526,4.5218,4.482,4.511,4.5309,4.5128,4.5037,4.5146,4.5218,4.5291,4.5381,4.5269,4.5194,4.5345,4.5417,4.5526,4.0496,4.0496,4.0496,4.0496,4.0496,4.0496,4.0989,4.1846,4.2758,4.3596,4.4329,4.4987,4.515,4.5115,4.4884,4.4915,4.5094,4.5118,4.5312,4.5504,4.5568,4.5586,4.5577,4.554,4.5531,4.5513,4.5513,4.5531,4.5494,4.5448,4.5656,4.5841,4.5753,4.6477,4.7181,4.7726,4.8138,4.8822,4.924,4.9526,4.9843,5.0111,5.0225,5.0149,5.0245,5.0302,5.0302,5.0302,5.0302,5.0302,5.0302,5.0302,5.0181,4.9981,4.9641,4.9206,4.8694,4.8458,4.8325,4.8324,4.8324,4.8343,4.8453,4.8379,4.8324,4.8324,4.8324,4.8324,4.8324,4.8324,4.8324,4.8324,4.8324,4.8306,4.8306,4.8214,4.8214,4.8159,4.8159,4.8141,4.8122,4.8269,4.8269,4.8267,4.8267,4.8139,4.7863,4.7769,4.7379,4.743,4.7208,4.6802,4.6655,4.6436,4.6235,4.6103,4.6116,4.6275,4.5979,4.5979,4.5671,4.5653,4.5961,4.6033,4.5653,4.5617,4.5997,4.6051,4.5943,4.6051,4.6269,4.625,4.6232,4.5997,4.5979,4.0496,4.0496,4.0496,4.0496,4.0496,4.0496,4.0989,4.1846,4.272,4.3459,4.4058,4.485,4.5,4.4637,4.4527,4.4585,4.4688,4.4856,4.5094,4.5292,4.5532,4.5577,4.5586,4.5568,4.555,4.5541,4.5522,4.5504,4.54,4.5303,4.5057,4.5041,4.5439,4.6307,4.7045,4.7763,4.8562,4.9239,4.9567,4.9961,5.0176,5.0302,5.0302,5.0302,5.0302,5.0302,5.0302,5.0302,5.0302,5.0302,5.0302,5.0302,5.0278,4.9968,4.9599,4.8984,4.8587,4.8324,4.8324,4.8324,4.8379,4.8581,4.8875,4.8746,4.8563,4.8471,4.8508,4.8636,4.8673,4.8746,4.8618,4.8545,4.8434,4.8324,4.8324,4.8324,4.8324,4.8324,4.8324,4.8324,4.8324,4.8324,4.8324,4.8305,4.8305,4.8305,4.8305,4.8248,4.8209,4.8169,4.8037,4.7595,4.7448,4.7211,4.7332,4.7272,4.7266,4.7243,4.6873,4.6706,4.6794,4.683,4.6957,4.6848,4.6558,4.6721,4.7083,4.6993,4.6703,4.7011,4.7228,4.7174,4.7045,4.6776,4.6667,4.0496,4.0496,4.0496,4.0496,4.0496,4.0496,4.0835,4.145,4.2585,4.3297,4.3676,4.4622,4.4861,4.4585,4.4388,4.4303,4.4471,4.4714,4.4973,4.5232,4.5485,4.5568,4.5594,4.5559,4.5448,4.5457,4.5438,4.539,4.5171,4.4856,4.4581,4.497,4.5286,4.5743,4.651,4.7367,4.8137,4.8909,4.9519,5.0043,5.0236,5.029,5.0302,5.0302,5.0302,5.0302,5.0302,5.0302,5.0302,5.0302,5.0302,5.0224,5.012,4.9776,4.9409,4.8866,4.8676,4.8439,4.8418,4.8728,4.8765,4.9003,4.9536,4.9701,4.9609,4.9554,4.9517,4.9536,4.9407,4.926,4.9022,4.8783,4.8563,4.8343,4.8324,4.8324,4.8324,4.8324,4.8324,4.8324,4.8324,4.8324,4.8324,4.8324,4.8324,4.8324,4.8324,4.8305,4.8267,4.8248,4.8209,4.8006,4.7986,4.7948,4.807,4.8028,4.786,4.7709,4.757,4.7493,4.7759,4.7666,4.7409,4.7464,4.7554,4.7609,4.7518,4.7591,4.75,4.7699,4.7699,4.7536,4.7428,4.7391,4.7391,4.0496,4.0496,4.0496,4.0496,4.0496,4.0496,4.0535,4.0681,4.2195,4.3005,4.3244,4.4284,4.4763,4.4487,4.4053,4.4094,4.4266,4.4525,4.4798,4.5173,4.5485,4.5594,4.5577,4.5523,4.5361,4.5282,4.5241,4.5191,4.467,4.4443,4.457,4.505,4.4726,4.5069,4.606,4.6823,4.7601,4.8448,4.9179,4.9776,5.012,5.0236,5.0278,5.0302,5.0302,5.0302,5.0302,5.0302,5.0302,5.0302,5.0212,5.0076,4.9776,4.9439,4.9097,4.8902,4.8694,4.8514,4.8565,4.8948,4.9353,4.9757,5.0343,5.0674,5.0674,5.0343,5.0233,5.0215,5.0105,4.9976,4.9756,4.9664,4.9481,4.915,4.8967,4.8875,4.8765,4.86,4.8324,4.8324,4.8324,4.8324,4.8324,4.8324,4.8324,4.8324,4.8324,4.8324,4.8287,4.8287,4.8267,4.8267,4.8229,4.8209,4.8189,4.8148,4.8108,4.803,4.7966,4.7904,4.7866,4.7804,4.7717,4.7717,4.7699,4.7699,4.7681,4.7699,4.7699,4.7699,4.7699,4.7699,4.7699,4.7699,4.7699,4.0496,4.0496,4.0496,4.0496,4.0496,4.0496,4.0496,4.0577,4.1414,4.2096,4.2721,4.3952,4.4591,4.4209,4.351,4.3554,4.419,4.4159,4.4486,4.5001,4.5428,4.5594,4.5531,4.541,4.5241,4.5169,4.5096,4.4919,4.4585,4.4374,4.4151,4.4022,4.3918,4.4488,4.559,4.6265,4.6961,4.7911,4.869,4.936,4.9803,4.9942,5.0012,5.0169,5.0259,5.0271,5.029,5.0302,5.0302,5.029,5.0019,4.9757,4.9439,4.9113,4.8917,4.8781,4.8623,4.8476,4.862,4.9114,4.9665,5.0161,5.073,5.1371,5.1518,5.1077,5.0857,5.0894,5.0857,5.0747,5.0563,5.0508,5.0343,4.9976,4.9609,4.9444,4.926,4.8838,4.8416,4.8324,4.8324,4.8324,4.8324,4.8324,4.8324,4.8324,4.8324,4.8324,4.8324,4.8287,4.8287,4.8287,4.8305,4.8286,4.8267,4.8247,4.8189,4.813,4.8068,4.8028,4.7988,4.7907,4.7822,4.7738,4.7699,4.7738,4.7738,4.7699,4.7699,4.7699,4.7699,4.7699,4.7699,4.7699,4.7699,4.0496,4.0496,4.0496,4.0496,4.0496,4.0496,4.0496,4.0619,4.1148,4.1537,4.1973,4.329,4.4081,4.3912,4.3241,4.3121,4.3828,4.3724,4.4011,4.4562,4.5323,4.5549,4.5475,4.5303,4.5085,4.4973,4.4567,4.4308,4.4341,4.4099,4.3777,4.3582,4.3588,4.3993,4.5039,4.5534,4.6452,4.7404,4.8198,4.8846,4.9378,4.9512,4.973,4.9968,5.0076,5.0132,5.029,5.0302,5.0302,5.0144,4.9825,4.9716,4.9424,4.9115,4.8849,4.8764,4.8641,4.8476,4.8676,4.926,5.0051,5.0602,5.1573,5.2417,5.2527,5.216,5.2142,5.216,5.216,5.205,5.1499,5.1298,5.093,5.0563,5.027,5.005,4.9702,4.9262,4.8746,4.8324,4.8324,4.8324,4.8324,4.8324,4.8324,4.8324,4.8324,4.8324,4.8324,4.8324,4.8324,4.8324,4.8324,4.8324,4.8305,4.8286,4.8267,4.8208,4.8149,4.809,4.803,4.797,4.7907,4.7918,4.7894,4.7819,4.7798,4.7795,4.7717,4.7699,4.7699,4.7699,4.7735,4.779,4.7753,4.0496,4.0496,4.0496,4.0496,4.0496,4.0496,4.0481,4.0521,4.0949,4.1199,4.1418,4.2534,4.338,4.3474,4.3181,4.3142,4.3147,4.3238,4.3547,4.4479,4.5245,4.55,4.5466,4.5263,4.4962,4.4572,4.4173,4.4084,4.4084,4.3871,4.373,4.3566,4.3626,4.3754,4.4213,4.5149,4.6507,4.7095,4.7776,4.8403,4.8781,4.9083,4.9394,4.9599,4.9757,4.9884,5.0076,5.0212,5.0212,5.0006,4.9655,4.9483,4.9287,4.8967,4.8867,4.873,4.8658,4.8587,4.8879,4.9866,5.0508,5.1279,5.2527,5.3093,5.313,5.3112,5.3093,5.3075,5.3075,5.2913,5.2362,5.2013,5.1628,5.1206,5.0949,5.0435,4.9978,4.95,4.8893,4.8343,4.8324,4.8324,4.8324,4.8324,4.8324,4.8324,4.8324,4.8324,4.8324,4.8324,4.8324,4.8324,4.8324,4.8324,4.8324,4.8305,4.8286,4.8267,4.8209,4.8131,4.8072,4.805,4.8101,4.8243,4.8202,4.8107,4.8008,4.7985,4.7889,4.7959,4.7717,4.7772,4.8134,4.8134,4.7877,4.0496,4.0496,4.0496,4.0496,4.0489,4.0489,4.0417,4.0242,4.0155,4.0666,4.1481,4.1684,4.2046,4.2139,4.1983,4.2245,4.3083,4.2995,4.4033,4.5216,4.535,4.5502,4.5448,4.5129,4.4688,4.4332,4.4075,4.4075,4.3936,4.386,4.3749,4.3532,4.4268,4.4745,4.548,4.6324,4.6984,4.7443,4.7755,4.8382,4.8458,4.8746,4.9067,4.9256,4.939,4.942,4.9541,4.9776,4.9857,4.9757,4.9541,4.9287,4.8982,4.8746,4.8623,4.8641,4.8587,4.8826,4.9298,5.0178,5.082,5.1646,5.2656,5.3148,5.3167,5.3167,5.3148,5.3148,5.3148,5.3148,5.2821,5.2821,5.2506,5.2032,5.1665,5.0618,4.9831,4.9224,4.8618,4.8379,4.8324,4.8324,4.8324,4.8324,4.8324,4.8324,4.8324,4.8324,4.8324,4.8324,4.8361,4.8453,4.8489,4.8324,4.8324,4.8324,4.8305,4.8287,4.8396,4.8576,4.8536,4.8206,4.8294,4.8857,4.8707,4.8464,4.8366,4.8616,4.8592,4.8605,4.7977,4.7862,4.8333,4.8641,4.855]}]]